[[{"header":{"parameterUnit":"m.s-1","parameterCategory":1,"la1":30.6,"la2":28.766,"lo1":-90.7593,"lo2":-88.6598,"dy":0.0162,"dx":0.0183,"nx":116,"ny":114,"refTime":"2023-11-22T06:00:00:Z","depth":0,"parameterNumber":2,"parameterNumberName":"U-component_of_WINDS"},"data":[0.0,0.0,0.0,0.0,0.0,0.0,0.0,0.0,0.0,0.0,0.0,0.0,0.0,0.0,0.0,0.0,0.0,0.0,0.0,0.0,0.0,0.0,0.0,0.0,0.0,0.0,0.0,0.0,0.0,0.0,0.0,0.0,0.0,0.0,0.0,0.0,0.0,0.0,0.0,0.0,0.0,0.0,0.0,0.0,0.0,0.0,0.0,0.0,0.0,0.0,0.0,0.0,0.0,0.0,0.0,0.0,0.0,0.0,0.0,0.0,0.0,0.0,0.0,0.0,0.0,0.0,0.0,0.0,0.0,0.0,0.0,0.0,0.0,0.0,0.0,0.0,0.0,0.0,0.0,0.0,0.0,0.0,0.0,0.0,0.0,0.0,0.0,0.0,0.0,0.0,0.0,0.0,0.0,0.0,0.0,0.0,0.0,0.0,0.0,0.0,0.0,0.0,0.0,0.0,0.0,0.0,0.0,0.0,0.0,0.0,0.0,0.0,0.0,0.0,0.0,0.0,0.0,0.0,0.0,0.0,0.0,0.0,0.0,0.0,0.0,0.0,0.0,0.0,0.0,0.0,0.0,0.0,0.0,0.0,0.0,0.0,0.0,0.0,0.0,0.0,0.0,0.0,0.0,0.0,0.0,0.0,0.0,0.0,0.0,0.0,0.0,0.0,0.0,0.0,0.0,0.0,0.0,0.0,0.0,0.0,0.0,0.0,0.0,0.0,0.0,0.0,0.0,0.0,0.0,0.0,0.0,0.0,0.0,0.0,0.0,0.0,0.0,0.0,0.0,0.0,0.0,0.0,0.0,0.0,0.0,0.0,0.0,0.0,0.0,0.0,0.0,0.0,0.0,0.0,0.0,0.0,0.0,0.0,0.0,0.0,0.0,0.0,0.0,0.0,0.0,0.0,0.0,0.0,0.0,0.0,0.0,0.0,0.0,0.0,0.0,0.0,0.0,0.0,0.0,0.0,0.0,0.0,0.0,0.0,0.0,0.0,0.0,0.0,0.0,0.0,0.0,0.0,0.0,0.0,0.0,0.0,0.0,0.0,0.0,0.0,0.0,0.0,0.0,0.0,0.0,0.0,0.0,0.0,0.0,0.0,0.0,0.0,0.0,0.0,0.0,0.0,0.0,0.0,0.0,0.0,0.0,0.0,0.0,0.0,0.0,0.0,0.0,0.0,0.0,0.0,0.0,0.0,0.0,0.0,0.0,0.0,0.0,0.0,0.0,0.0,0.0,0.0,0.0,0.0,0.0,0.0,0.0,0.0,0.0,0.0,0.0,0.0,0.0,0.0,0.0,0.0,0.0,0.0,0.0,0.0,0.0,0.0,0.0,0.0,0.0,0.0,0.0,0.0,0.0,0.0,0.0,0.0,0.0,0.0,0.0,0.0,0.0,0.0,0.0,0.0,0.0,0.0,0.0,0.0,0.0,0.0,0.0,0.0,0.0,0.0,0.0,0.0,0.0,0.0,0.0,0.0,0.0,0.0,0.0,0.0,0.0,0.0,0.0,0.0,0.0,0.0,0.0,0.0,0.0,0.0,0.0,0.0,0.0,0.0,0.0,0.0,0.0,0.0,0.0,0.0,0.0,0.0,0.0,0.0,0.0,0.0,0.0,0.0,0.0,0.0,0.0,0.0,0.0,0.0,0.0,0.0,0.0,0.0,0.0,0.0,0.0,0.0,0.0,0.0,0.0,0.0,0.0,0.0,0.0,0.0,0.0,0.0,0.0,0.0,0.0,0.0,0.0,0.0,0.0,0.0,0.0,0.0,0.0,0.0,0.0,0.0,0.0,0.0,0.0,0.0,0.0,0.0,0.0,0.0,0.0,0.0,0.0,0.0,0.0,0.0,0.0,0.0,0.0,0.0,0.0,0.0,0.0,0.0,0.0,0.0,0.0,0.0,0.0,0.0,0.0,0.0,0.0,0.0,0.0,0.0,0.0,0.0,0.0,0.0,0.0,0.0,0.0,0.0,0.0,0.0,0.0,0.0,0.0,0.0,0.0,0.0,0.0,0.0,0.0,0.0,0.0,0.0,0.0,0.0,0.0,0.0,0.0,0.0,0.0,0.0,0.0,0.0,0.0,0.0,0.0,0.0,0.0,0.0,0.0,0.0,0.0,0.0,0.0,0.0,0.0,0.0,0.0,0.0,0.0,0.0,0.0,0.0,0.0,0.0,0.0,0.0,0.0,0.0,0.0,0.0,0.0,0.0,0.0,0.0,0.0,0.0,0.0,0.0,0.0,0.0,0.0,0.0,0.0,0.0,0.0,0.0,0.0,0.0,0.0,0.0,0.0,0.0,0.0,0.0,0.0,0.0,0.0,0.0,0.0,0.0,0.0,0.0,0.0,0.0,0.0,0.0,0.0,0.0,0.0,0.0,0.0,0.0,0.0,0.0,0.0,0.0,0.0,0.0,0.0,0.0,0.0,0.0,0.0,0.0,0.0,0.0,0.0,0.0,0.0,0.0,0.0,0.0,0.0,0.0,0.0,0.0,0.0,0.0,0.0,0.0,0.0,0.0,0.0,0.0,0.0,0.0,0.0,0.0,0.0,0.0,0.0,0.0,0.0,0.0,0.0,0.0,0.0,0.0,0.0,0.0,0.0,0.0,0.0,0.0,0.0,0.0,0.0,0.0,0.0,0.0,0.0,0.0,0.0,0.0,0.0,0.0,0.0,0.0,0.0,0.0,0.0,0.0,0.0,0.0,0.0,0.0,0.0,0.0,0.0,0.0,0.0,0.0,0.0,0.0,0.0,0.0,0.0,0.0,0.0,0.0,0.0,0.0,0.0,0.0,0.0,0.0,0.0,0.0,0.0,0.0,0.0,0.0,0.0,0.0,0.0,0.0,0.0,0.0,0.0,0.0,0.0,0.0,0.0,0.0,0.0,0.0,0.0,0.0,0.0,0.0,0.0,0.0,0.0,0.0,0.0,0.0,0.0,0.0,0.0,0.0,0.0,0.0,0.0,0.0,0.0,0.0,0.0,0.0,0.0,0.0,0.0,0.0,0.0,0.0,0.0,0.0,0.0,0.0,0.0,0.0,0.0,0.0,0.0,0.0,0.0,0.0,0.0,0.0,0.0,0.0,0.0,0.0,0.0,0.0,0.0,0.0,0.0,0.0,0.0,0.0,0.0,0.0,0.0,0.0,0.0,0.0,0.0,0.0,0.0,0.0,0.0,0.0,0.0,0.0,0.0,0.0,0.0,0.0,0.0,0.0,0.0,0.0,0.0,0.0,0.0,0.0,0.0,0.0,0.0,0.0,0.0,0.0,0.0,0.0,0.0,0.0,0.0,0.0,0.0,0.0,0.0,0.0,0.0,0.0,0.0,0.0,0.0,0.0,0.0,0.0,0.0,0.0,0.0,0.0,0.0,0.0,0.0,0.0,0.0,0.0,0.0,0.0,0.0,0.0,0.0,0.0,0.0,0.0,0.0,0.0,0.0,0.0,0.0,0.0,0.0,0.0,0.0,0.0,0.0,0.0,0.0,0.0,0.0,0.0,0.0,0.0,0.0,0.0,0.0,0.0,0.0,0.0,0.0,0.0,0.0,0.0,0.0,0.0,0.0,0.0,0.0,0.0,0.0,0.0,0.0,0.0,0.0,0.0,0.0,0.0,0.0,0.0,0.0,0.0,0.0,0.0,0.0,0.0,0.0,0.0,0.0,0.0,0.0,0.0,0.0,0.0,0.0,0.0,0.0,0.0,0.0,0.0,0.0,0.0,0.0,0.0,0.0,0.0,0.0,0.0,0.0,0.0,0.0,0.0,0.0,0.0,0.0,0.0,0.0,0.0,0.0,0.0,0.0,0.0,0.0,0.0,0.0,0.0,0.0,0.0,0.0,0.0,0.0,0.0,0.0,0.0,0.0,0.0,0.0,0.0,0.0,0.0,0.0,0.0,0.0,0.0,0.0,0.0,0.0,0.0,0.0,0.0,0.0,0.0,0.0,0.0,0.0,0.0,0.0,0.0,0.0,0.0,0.0,0.0,0.0,0.0,0.0,0.0,0.0,0.0,0.0,0.0,0.0,0.0,0.0,0.0,0.0,0.0,0.0,0.0,0.0,0.0,0.0,0.0,0.0,0.0,0.0,0.0,0.0,0.0,0.0,0.0,0.0,0.0,0.0,0.0,0.0,0.0,0.0,0.0,0.0,0.0,0.0,0.0,0.0,0.0,0.0,0.0,0.0,0.0,0.0,0.0,0.0,0.0,0.0,0.0,0.0,0.0,0.0,0.0,0.0,0.0,0.0,0.0,0.0,0.0,0.0,0.0,0.0,0.0,0.0,0.0,0.0,0.0,0.0,0.0,0.0,0.0,0.0,0.0,0.0,0.0,0.0,0.0,0.0,0.0,0.0,0.0,0.0,0.0,0.0,0.0,0.0,0.0,0.0,0.0,0.0,0.0,0.0,0.0,0.0,0.0,0.0,0.0,0.0,0.0,0.0,0.0,0.0,0.0,0.0,0.0,0.0,0.0,0.0,0.0,0.0,0.0,0.0,0.0,0.0,0.0,0.0,0.0,0.0,0.0,0.0,0.0,0.0,0.0,0.0,0.0,0.0,0.0,0.0,0.0,0.0,0.0,0.0,0.0,0.0,0.0,0.0,0.0,0.0,0.0,0.0,0.0,0.0,0.0,0.0,0.0,0.0,0.0,0.0,0.0,0.0,0.0,0.0,0.0,0.0,0.0,0.0,0.0,0.0,0.0,0.0,0.0,0.0,0.0,0.0,0.0,0.0,0.0,0.0,0.0,0.0,0.0,0.0,0.0,0.0,0.0,0.0,0.0,0.0,0.0,0.0,0.0,0.0,0.0,0.0,0.0,0.0,0.0,0.0,0.0,0.0,0.0,0.0,0.0,0.0,0.0,0.0,0.0,0.0,0.0,0.0,0.0,0.0,0.0,0.0,0.0,0.0,0.0,0.0,0.0,0.0,0.0,0.0,0.0,0.0,0.0,0.0,0.0,0.0,0.0,0.0,0.0,0.0,0.0,0.0,0.0,0.0,0.0,0.0,0.0,0.0,0.0,0.0,0.0,0.0,0.0,0.0,0.0,0.0,0.0,0.0,0.0,0.0,0.0,0.0,0.0,0.0,0.0,0.0,0.0,0.0,0.0,0.0,0.0,0.0,0.0,0.0,0.0,0.0,0.0,0.0,0.0,0.0,0.0,0.0,0.0,0.0,0.0,0.0,0.0,0.0,0.0,0.0,0.0,0.0,0.0,0.0,0.0,0.0,0.0,0.0,0.0,0.0,0.0,0.0,0.0,0.0,0.0,0.0,0.0,0.0,0.0,0.0,0.0,0.0,0.0,0.0,0.0,0.0,0.0,0.0,0.0,0.0,0.0,0.0,0.0,0.0,0.0,0.0,0.0,0.0,0.0,0.0,0.0,0.0,0.0,0.0,0.0,0.0,0.0,0.0,0.0,0.0,0.0,0.0,0.0,0.0,0.0,0.0,0.0,0.0,0.0,0.0,0.0,0.0,0.0,0.0,0.0,0.0,0.0,0.0,0.0,0.0,0.0,0.0,0.0,0.0,0.0,0.0,0.0,0.0,0.0,0.0,0.0,0.0,0.0,0.0,0.0,0.0,0.0,0.0,0.0,0.0,0.0,0.0,0.0,0.0,0.0,0.0,0.0,0.0,0.0,0.0,0.0,0.0,0.0,0.0,0.0,0.0,0.0,0.0,0.0,0.0,0.0,0.0,0.0,0.0,0.0,0.0,0.0,0.0,0.0,0.0,0.0,0.0,0.0,0.0,0.0,0.0,0.0,0.0,0.0,0.0,0.0,0.0,0.0,0.0,0.0,0.0,0.0,0.0,0.0,0.0,0.0,0.0,0.0,0.0,0.0,0.0,0.0,0.0,0.0,0.0,0.0,0.0,0.0,0.0,0.0,0.0,0.0,0.0,0.0,0.0,0.0,0.0,0.0,0.0,0.0,0.0,0.0,0.0,0.0,0.0,0.0,0.0,0.0,0.0,0.0,0.0,0.0,0.0,0.0,0.0,0.0,0.0,0.0,0.0,0.0,0.0,0.0,0.0,0.0,0.0,0.0,0.0,0.0,0.0,0.0,0.0,0.0,0.0,0.0,0.0,0.0,5.0709,5.0709,0.0,0.0,0.0,0.0,0.0,0.0,0.0,0.0,0.0,0.0,0.0,0.0,0.0,0.0,0.0,0.0,0.0,0.0,0.0,0.0,0.0,0.0,0.0,0.0,0.0,0.0,0.0,0.0,0.0,0.0,0.0,0.0,0.0,0.0,0.0,0.0,0.0,0.0,4.5592,4.5592,4.5592,4.5592,4.5592,4.5592,0.0,0.0,0.0,0.0,0.0,0.0,0.0,0.0,0.0,0.0,0.0,0.0,0.0,0.0,0.0,0.0,0.0,0.0,0.0,0.0,0.0,0.0,0.0,0.0,0.0,0.0,0.0,0.0,0.0,0.0,0.0,0.0,0.0,0.0,0.0,0.0,0.0,0.0,0.0,0.0,0.0,0.0,0.0,0.0,0.0,0.0,0.0,0.0,0.0,0.0,0.0,0.0,0.0,0.0,0.0,0.0,0.0,0.0,0.0,0.0,0.0,0.0,0.0,0.0,0.0,0.0,0.0,0.0,0.0,0.0,5.1462,5.1265,0.0,0.0,0.0,0.0,0.0,0.0,0.0,0.0,0.0,0.0,0.0,0.0,0.0,0.0,0.0,0.0,0.0,0.0,0.0,0.0,0.0,0.0,0.0,4.5592,4.5592,4.5592,4.5592,4.5592,0.0,0.0,0.0,0.0,0.0,0.0,4.5592,4.5592,4.5592,4.5592,4.5592,4.5592,4.5592,4.5592,4.5592,4.5592,4.5592,0.0,0.0,0.0,0.0,0.0,0.0,0.0,0.0,0.0,0.0,0.0,0.0,0.0,0.0,0.0,0.0,0.0,0.0,0.0,0.0,0.0,0.0,0.0,0.0,0.0,0.0,0.0,0.0,0.0,0.0,0.0,0.0,0.0,0.0,0.0,0.0,0.0,0.0,0.0,0.0,0.0,0.0,0.0,0.0,0.0,0.0,0.0,0.0,0.0,0.0,0.0,0.0,0.0,0.0,0.0,0.0,0.0,0.0,0.0,0.0,0.0,0.0,0.0,5.1819,5.2127,5.2148,5.2863,5.3219,5.3178,5.2586,5.2278,5.2177,5.289,0.0,0.0,0.0,0.0,0.0,0.0,0.0,0.0,0.0,0.0,0.0,0.0,0.0,0.0,0.0,0.0,0.0,0.0,0.0,0.0,0.0,4.5592,4.5592,4.5592,4.5592,4.5592,4.5592,0.0,0.0,4.5592,4.5592,4.5592,4.5592,4.5592,4.5592,4.5592,4.5592,4.5592,4.5592,4.5592,4.5592,4.5592,4.5592,4.5592,4.5592,0.0,0.0,0.0,0.0,0.0,0.0,0.0,0.0,0.0,0.0,0.0,0.0,0.0,0.0,0.0,0.0,0.0,0.0,0.0,0.0,0.0,0.0,0.0,0.0,0.0,0.0,0.0,0.0,0.0,0.0,0.0,0.0,0.0,0.0,0.0,0.0,0.0,0.0,0.0,0.0,0.0,4.7988,4.8079,0.0,0.0,0.0,0.0,0.0,0.0,0.0,0.0,0.0,0.0,0.0,0.0,0.0,5.1739,5.1739,5.2493,5.2887,5.2887,5.2969,5.3041,5.303,5.3148,5.3189,5.3227,5.3864,0.0,5.3046,5.3167,0.0,0.0,0.0,0.0,0.0,0.0,0.0,0.0,0.0,0.0,0.0,0.0,0.0,0.0,0.0,0.0,0.0,0.0,0.0,0.0,0.0,4.5592,4.5592,4.5592,4.5592,4.5592,4.5592,4.5592,4.5592,4.5592,4.5592,4.5592,4.5592,4.5592,4.5592,4.5592,4.5592,4.5592,4.5592,4.5592,4.5592,4.5592,4.5592,4.5592,4.5592,4.5592,0.0,0.0,0.0,0.0,0.0,0.0,0.0,0.0,0.0,0.0,0.0,0.0,0.0,0.0,0.0,0.0,0.0,0.0,0.0,0.0,0.0,0.0,0.0,0.0,0.0,0.0,0.0,0.0,0.0,0.0,0.0,0.0,0.0,0.0,0.0,0.0,0.0,0.0,0.0,4.82,4.8464,4.9425,4.9111,4.9161,0.0,0.0,0.0,0.0,0.0,0.0,0.0,0.0,0.0,5.2095,5.2454,5.2625,5.2644,5.3,5.3197,5.3197,5.3713,5.3928,5.396,5.4397,5.4597,5.4635,5.4995,5.4942,5.4626,5.4626,5.4598,5.4597,0.0,0.0,0.0,0.0,5.5151,5.5231,0.0,0.0,0.0,0.0,0.0,0.0,0.0,0.0,0.0,0.0,0.0,0.0,4.5592,4.5592,4.5592,4.5592,4.5592,4.5592,4.5592,4.5592,4.5592,4.5592,4.5592,4.5592,4.5592,4.5592,4.5592,4.5592,4.5592,4.5592,4.5592,4.5592,4.5592,4.5592,4.583,4.5791,4.5592,4.5592,4.5592,4.5592,0.0,0.0,0.0,0.0,0.0,0.0,0.0,0.0,0.0,0.0,0.0,0.0,0.0,0.0,0.0,0.0,0.0,0.0,0.0,0.0,0.0,0.0,0.0,0.0,0.0,0.0,0.0,0.0,0.0,0.0,0.0,0.0,0.0,0.0,0.0,0.0,0.0,4.9161,4.924,5.0551,5.0115,4.9995,0.0,0.0,0.0,0.0,0.0,0.0,5.2216,5.223,5.2533,5.3168,5.3404,5.3526,5.3524,5.3724,5.3842,5.3842,5.4397,5.4635,5.4676,5.5151,5.539,5.539,5.5508,5.5549,5.5549,5.5667,5.5706,5.5706,5.5706,5.5706,5.5706,5.5706,5.5706,5.5706,0.0,0.0,0.0,0.0,0.0,0.0,0.0,0.0,0.0,0.0,0.0,4.5592,4.5592,4.5592,4.5592,4.5592,4.5592,4.5592,4.5592,4.5592,4.5592,4.5592,4.5592,4.5592,4.5592,4.5592,4.5592,4.5592,4.5592,4.5592,4.5592,4.5592,4.5592,4.5633,4.6465,4.6386,4.5592,4.5592,4.5592,4.5592,4.5592,0.0,0.0,0.0,0.0,0.0,0.0,0.0,0.0,0.0,0.0,0.0,0.0,0.0,0.0,0.0,0.0,0.0,0.0,0.0,0.0,0.0,0.0,0.0,0.0,0.0,0.0,0.0,0.0,0.0,0.0,0.0,0.0,0.0,0.0,0.0,0.0,0.0,0.0,5.0709,5.0668,0.0,0.0,0.0,0.0,5.1859,5.2611,5.3087,5.3126,5.3113,5.3135,5.3214,5.4009,5.4443,5.4438,5.5192,5.5588,5.5588,5.5231,5.5072,5.5072,5.4715,5.4556,5.4597,5.4954,5.5113,5.5151,5.5549,5.5706,5.5706,5.5706,5.5706,5.5706,5.5706,5.5706,5.5706,0.0,0.0,0.0,0.0,0.0,0.0,0.0,0.0,4.5592,4.5592,4.5592,4.5592,4.5592,4.5592,4.5592,4.5592,4.5592,4.5592,4.5592,4.5592,4.5592,4.5592,4.5592,4.5592,4.5592,4.5592,4.5592,4.5592,4.6148,4.6424,4.6465,4.6979,4.7216,4.7219,4.7535,4.7498,4.7201,4.7228,4.7216,4.7216,4.7216,4.7216,0.0,0.0,0.0,0.0,0.0,0.0,0.0,0.0,0.0,0.0,0.0,0.0,0.0,0.0,0.0,0.0,0.0,0.0,0.0,0.0,0.0,0.0,0.0,0.0,0.0,0.0,0.0,0.0,0.0,0.0,0.0,0.0,0.0,0.0,0.0,0.0,0.0,5.1421,5.1462,0.0,5.2254,5.2572,5.2743,5.2754,5.3026,5.3305,5.3582,5.3864,5.4161,5.4399,5.4992,5.5151,5.4874,5.5667,5.5945,5.5706,5.6065,5.6438,5.6699,5.6573,5.6657,5.6942,5.7101,5.7149,5.7172,5.7293,5.67,5.5706,5.5706,5.6024,5.6541,5.6541,5.6895,5.7373,0.0,0.0,0.0,0.0,0.0,0.0,0.0,0.0,4.5592,4.5592,4.5592,4.5592,4.5592,4.5592,4.5592,4.5592,4.5592,4.5592,4.5592,4.5592,4.5592,4.5592,4.5592,4.5592,4.5592,4.5909,4.6029,4.6029,4.69,4.7319,4.7324,4.784,4.8116,4.8116,4.8394,4.8552,4.857,4.884,4.8632,4.8116,4.8116,4.8116,4.8116,0.0,0.0,0.0,0.0,0.0,0.0,0.0,0.0,0.0,0.0,0.0,0.0,0.0,0.0,0.0,0.0,0.0,0.0,0.0,0.0,0.0,0.0,0.0,0.0,0.0,0.0,0.0,0.0,0.0,0.0,0.0,0.0,0.0,0.0,5.1345,5.1739,5.2295,5.2343,5.2559,5.3154,5.3312,5.3482,5.3648,5.3763,5.396,5.4237,5.4785,5.5185,5.5297,5.5826,5.6063,5.5945,5.6323,5.644,5.6348,5.6549,5.6817,5.7104,5.6971,5.709,5.7413,5.7534,5.7571,5.7638,5.7915,5.7398,5.6371,5.6524,5.6936,5.7447,5.7451,5.7797,5.8311,0.0,0.0,0.0,0.0,0.0,0.0,0.0,4.5592,4.5592,4.5592,4.5592,4.5592,4.5592,4.5592,4.5592,4.5592,4.5592,4.5592,4.5592,4.5592,4.5592,4.5592,4.5592,4.5592,4.5633,4.6465,4.69,4.6936,4.7767,4.8152,4.813,4.8169,4.8169,4.821,4.9043,4.944,4.9519,5.0351,4.9719,4.8169,4.8169,4.8169,4.8169,0.0,0.0,0.0,0.0,0.0,0.0,0.0,0.0,0.0,0.0,0.0,0.0,0.0,0.0,0.0,0.0,0.0,0.0,0.0,0.0,0.0,0.0,0.0,0.0,0.0,0.0,0.0,0.0,0.0,0.0,0.0,0.0,0.0,5.2052,5.2685,5.32,5.3241,5.3231,5.3247,5.3286,5.3642,5.4065,5.4507,5.4932,5.5151,5.5113,5.5908,5.6161,5.5728,5.6516,5.7113,5.755,5.7146,5.7179,5.7584,5.6747,5.6335,5.6336,5.5947,5.5797,5.5797,5.6195,5.6355,5.6396,5.7308,5.7689,5.7739,5.816,5.8319,5.8346,5.8323,5.8363,5.8363,0.0,0.0,0.0,0.0,0.0,0.0,4.5592,4.5592,4.5592,4.5592,4.5592,4.5592,4.5592,4.5592,4.5592,4.5592,4.5592,4.5592,4.5592,4.5592,4.5592,4.5592,4.5592,4.5909,4.6544,4.6782,4.7181,4.7777,4.8611,4.9031,4.9043,4.9678,4.9995,4.9995,5.0233,5.0351,5.0353,5.0592,5.043,4.9995,4.9995,4.9995,4.9995,0.0,0.0,0.0,0.0,0.0,0.0,0.0,0.0,0.0,0.0,0.0,0.0,0.0,0.0,0.0,0.0,0.0,0.0,0.0,0.0,0.0,0.0,0.0,0.0,0.0,0.0,0.0,0.0,0.0,0.0,0.0,5.3728,5.3846,5.2974,5.3054,5.341,5.4085,5.4138,5.4358,5.4954,5.5113,5.5333,5.5763,5.5898,5.5945,5.5906,5.6758,5.6883,5.6082,5.6952,5.7158,5.6583,5.76,5.8046,5.7917,5.8829,5.9413,5.9765,5.9631,5.9779,6.0065,5.9615,5.9371,5.9371,5.9413,5.94,5.9359,5.8595,5.8648,5.916,5.9169,5.9554,6.011,0.0,0.0,0.0,0.0,0.0,0.0,4.5592,4.5592,4.5592,4.5592,4.5592,4.5592,4.5592,4.5592,4.5592,4.5592,4.5592,4.5592,4.5592,4.5592,4.5751,4.6146,4.6146,4.6544,4.7377,4.777,4.8192,4.8644,4.9361,4.9678,4.9716,5.0036,5.0195,5.0195,5.0195,5.0195,5.0195,5.0195,5.0274,5.0433,5.0433,5.0551,5.0709,5.0709,5.0709,5.0709,5.0709,5.0709,5.0709,5.0709,0.0,0.0,0.0,0.0,0.0,0.0,0.0,0.0,0.0,0.0,0.0,0.0,0.0,0.0,0.0,0.0,0.0,0.0,0.0,0.0,0.0,0.0,0.0,0.0,5.4676,5.4756,5.4081,5.4158,5.4438,5.4954,5.4992,5.531,5.6142,5.5906,5.601,5.6777,5.6478,5.624,5.6198,5.7372,5.7708,5.6986,5.8159,5.8622,5.8251,5.8986,5.9351,5.9308,6.0052,6.0552,6.0803,6.0803,6.0968,6.1175,6.0717,6.0531,6.0529,6.0529,6.051,6.0426,0.0,0.0,0.0,0.0,6.0388,6.0784,0.0,0.0,0.0,0.0,0.0,0.0,4.5592,4.5592,4.5592,4.5592,4.5592,4.5592,4.5592,4.5592,4.5592,4.5592,4.5592,4.5592,4.5592,4.5671,4.6108,4.6861,4.7008,4.7398,4.8152,4.8933,4.9361,4.9478,4.9916,5.0133,5.0169,4.977,4.9573,4.9573,4.9532,4.9494,4.9494,4.9494,4.969,5.0021,5.0028,5.0313,5.0709,5.0709,5.0709,5.0709,5.0709,5.0709,5.0709,5.0709,0.0,0.0,0.0,0.0,0.0,0.0,0.0,0.0,0.0,0.0,0.0,0.0,0.0,0.0,0.0,0.0,0.0,0.0,0.0,0.0,0.0,0.0,0.0,0.0,5.5629,5.5508,5.5151,5.5436,5.5676,5.5574,5.5667,5.6063,5.6777,5.625,5.6305,5.7509,5.6879,5.6499,5.6541,5.8039,0.0,0.0,0.0,6.0667,6.1034,6.0704,6.0723,6.1164,6.0834,6.0669,6.0669,6.0669,6.0669,6.0669,6.0583,6.0555,6.0545,6.0954,6.1134,6.1144,6.0997,6.0902,6.0902,6.0822,6.0822,6.0825,0.0,0.0,0.0,0.0,0.0,0.0,4.5592,4.5592,4.5592,4.5592,4.5592,4.5592,4.5592,4.5592,4.5592,4.5592,4.5592,4.5592,4.5592,4.6266,4.6703,4.69,4.7532,4.8121,4.8637,4.8815,4.9243,4.9957,5.0075,5.0268,5.0563,5.0151,4.9985,4.9985,4.9657,4.9495,4.9495,4.9495,4.9537,4.9624,4.9622,5.0036,5.0709,5.0709,5.0709,5.0709,5.0709,5.0709,5.0709,5.0709,5.0709,5.0709,5.0709,0.0,0.0,0.0,0.0,0.0,0.0,0.0,0.0,0.0,0.0,0.0,0.0,0.0,0.0,0.0,0.0,0.0,0.0,0.0,0.0,5.5269,5.5231,5.5192,5.5113,5.5457,5.5458,5.4799,5.5588,5.6104,5.5983,5.6382,5.6886,5.7406,5.7883,5.8288,5.8586,5.9907,6.0421,5.9935,6.0595,6.0836,6.0548,6.1086,6.1416,6.15,6.2082,0.0,6.2333,6.2333,6.2333,6.229,6.1665,6.1379,6.1337,6.1172,6.1333,6.1676,6.1633,6.1615,6.1538,6.0864,6.0864,6.11,0.0,0.0,0.0,0.0,0.0,0.0,4.5592,4.5592,4.5592,4.5592,4.5592,4.5592,4.5592,4.5592,4.5592,4.5592,4.5592,4.5592,4.5592,4.6228,4.6878,4.7459,4.7922,4.8565,4.944,4.9239,4.9466,5.0113,4.972,4.9706,5.0075,4.9469,4.9192,4.9173,4.9002,4.8883,4.8883,4.8883,4.9007,4.9218,4.9216,4.9549,5.0116,5.0303,5.0512,5.0709,5.0709,5.0709,5.0709,5.0709,5.0709,5.0709,5.0709,5.0709,5.0789,0.0,0.0,0.0,0.0,0.0,0.0,0.0,0.0,0.0,0.0,0.0,0.0,0.0,0.0,5.5629,0.0,0.0,5.531,5.5113,5.5282,5.5412,5.5412,5.5939,5.6078,5.5478,5.6096,5.6687,5.6895,5.7418,5.8006,5.8592,5.9164,5.9607,5.9803,6.0792,6.1233,6.1005,6.1623,6.1837,6.1586,6.2002,6.2204,6.221,6.2621,6.2793,6.2793,6.2793,6.2793,6.2786,6.2376,6.2204,6.2204,6.2002,6.2082,6.2316,6.2301,6.2263,6.214,6.1736,6.1882,6.2223,0.0,0.0,0.0,0.0,0.0,0.0,0.0,4.5592,4.5592,4.5592,4.5592,4.5592,4.5592,4.5592,4.5592,4.5592,4.5592,4.5671,4.583,4.6266,4.7079,4.8283,4.8491,4.9023,4.9948,4.9679,4.9668,4.9996,4.9242,4.9133,4.9586,4.8785,4.8415,4.8421,4.8338,4.8301,4.8301,4.8301,4.8504,4.8795,4.8795,4.9007,4.9432,4.9731,5.0169,5.0589,5.0668,5.0709,5.0709,5.0709,5.0789,5.0948,5.0948,5.1065,5.1304,5.1977,5.2281,0.0,0.0,0.0,0.0,0.0,0.0,0.0,0.0,0.0,5.5706,5.5706,5.5706,5.5588,5.5272,5.5278,5.5304,5.5224,5.5558,5.5788,5.5786,5.6409,5.6791,5.6552,5.6811,5.7282,5.7994,5.8458,5.9081,5.9919,6.0407,6.0632,6.0638,6.1415,6.1831,6.1831,6.2455,6.2793,6.2793,6.2793,6.2793,6.2793,6.2793,6.2793,6.2793,6.2793,6.2793,6.2793,6.2793,6.2793,6.2793,6.2793,6.2793,6.2793,6.2793,6.2793,6.2769,6.25,6.2719,6.3101,0.0,0.0,0.0,0.0,0.0,0.0,0.0,0.0,4.5592,4.5592,4.5592,4.5592,4.5592,4.5592,4.5592,4.5592,4.5592,4.595,4.6703,4.7139,4.7946,4.9184,4.9664,4.9783,4.9587,4.9537,4.9506,4.9585,4.9119,4.929,5.0004,4.9219,4.8818,4.8836,4.8467,4.8301,4.8301,4.8301,4.8338,4.8379,4.8379,4.8592,4.8985,4.9012,4.9505,5.0195,5.0551,5.0709,5.0709,5.0709,5.1186,5.178,5.178,5.2295,5.2928,5.3046,0.0,5.4215,5.4322,5.4874,5.5428,5.5549,5.5629,5.5706,0.0,0.0,5.5706,5.5706,5.5706,5.5706,5.5629,5.5933,5.6062,5.5693,5.5935,5.6121,5.6126,5.6544,5.6914,5.7247,5.7313,5.7514,5.7966,5.8702,5.9463,6.0274,6.1031,6.1471,6.1464,6.2247,6.2664,6.2664,6.275,6.2793,6.2793,6.2793,6.2793,6.2793,6.2793,6.2793,6.2793,6.2793,6.2793,6.2793,6.2793,6.2793,6.2793,6.2793,6.2793,6.2793,6.2793,6.3081,6.3332,6.2155,6.2018,6.2303,0.0,0.0,0.0,0.0,0.0,0.0,0.0,0.0,0.0,4.5592,4.5592,4.5592,4.5592,4.5592,4.5791,4.6307,4.6345,4.6703,4.7535,4.7794,4.8358,4.9352,4.938,4.942,4.9504,4.9268,4.9132,4.9132,4.8758,4.8849,4.9381,4.8836,4.855,4.8545,4.8384,4.8301,4.8301,4.8301,4.8301,4.8301,4.8301,4.8384,4.867,4.9626,5.0219,5.0567,5.0919,5.1186,0.0,5.1977,5.2375,5.2642,5.2659,5.2918,5.3313,5.3828,5.4195,0.0,5.5072,5.5428,5.5706,0.0,5.5706,5.5706,5.5706,5.5706,5.5629,5.539,5.5945,5.6302,5.5785,5.6234,5.6572,0.0,5.6496,5.6621,5.6876,5.725,5.7748,5.8373,5.8458,5.8501,5.8665,5.9844,6.0744,6.106,6.1837,6.229,6.229,6.2621,6.2793,6.2793,6.2793,6.2793,6.2793,6.2793,6.2793,6.2793,6.2793,6.2793,6.2793,6.2793,6.2793,6.2793,6.2793,6.2793,6.2793,6.2793,6.2793,6.2793,6.2793,6.2952,6.3094,6.2875,6.3095,6.3463,0.0,0.0,0.0,0.0,0.0,0.0,0.0,0.0,0.0,0.0,4.5592,4.5592,4.5592,4.5592,4.595,4.682,4.6914,4.7333,4.8404,4.8294,4.8618,4.955,4.926,4.9161,4.932,4.9161,4.9007,4.8883,4.8504,4.852,4.8883,4.8504,4.8301,4.8301,4.8301,4.8301,4.8301,4.8301,4.8301,4.8301,4.855,4.867,4.8836,5.0251,5.0925,5.1202,5.1643,5.1999,5.2333,5.3005,5.3361,5.3548,5.3551,5.3722,5.4001,5.4635,5.4833,5.4954,5.5549,0.0,0.0,5.5706,5.5706,5.5706,5.5706,5.5903,5.5983,5.5667,5.6554,5.712,5.6365,5.6775,5.7173,5.7062,5.7086,5.7213,5.7504,5.8002,5.8543,5.9121,5.9595,5.9854,5.9854,6.0933,6.1708,6.1916,6.2462,6.2793,6.2793,6.2793,6.2793,6.2793,6.2793,6.2793,6.2793,6.2793,6.2793,6.2793,6.2793,6.2793,6.2793,6.2793,6.2793,6.2793,6.2793,6.2793,6.2793,6.2793,6.2793,6.2793,6.2793,6.2793,6.2836,6.3246,6.3621,6.3952,0.0,0.0,0.0,0.0,0.0,0.0,0.0,0.0,0.0,0.0,0.0,0.0,0.0,4.5592,4.595,4.682,4.6886,4.7617,4.9245,4.8647,4.878,5.0008,4.9704,4.9281,4.8923,4.9285,4.9293,4.8883,4.8493,4.8525,4.8883,4.8504,4.8301,4.8301,4.8301,4.8301,4.8301,4.8301,4.8301,4.8379,4.9215,4.9548,4.9668,5.0496,5.1285,5.2069,5.2843,5.3141,5.317,5.3173,5.3768,5.4443,5.4479,5.4992,0.0,5.5667,5.5667,5.5667,5.5706,5.5706,5.5706,5.5706,5.5706,5.5706,5.5706,5.6343,5.6975,5.6936,5.7633,5.8119,5.7647,5.7813,5.7905,5.7452,5.7711,5.796,5.7997,5.8665,5.9164,5.9206,6.0579,6.1519,6.1519,6.1586,6.1916,6.2707,6.2793,6.2793,6.2793,6.2793,6.2793,6.2793,6.2793,6.2793,6.2793,6.2793,6.2793,6.2793,6.2793,6.2793,6.2793,6.2793,6.2793,6.2793,6.2793,6.2793,6.2793,6.2793,6.2793,6.2793,6.2793,6.2793,6.2793,6.2829,6.2829,6.2836,0.0,0.0,0.0,0.0,0.0,0.0,0.0,0.0,0.0,0.0,0.0,0.0,0.0,0.0,0.0,0.0,4.8231,4.8923,4.9798,4.9598,4.954,4.9675,4.956,4.9449,4.9305,4.9161,4.9044,4.8883,4.8509,4.8379,4.8509,4.8343,4.8301,4.8301,4.8301,4.8301,4.8301,4.8301,4.8633,4.9173,4.9465,4.9914,5.0523,5.1604,5.2322,5.2948,0.0,5.4308,5.4158,5.4676,5.5033,5.531,5.531,5.547,5.5706,5.5706,5.5706,5.5706,5.5706,5.5706,5.5706,5.5706,5.6142,5.6579,5.6579,5.7252,5.7788,5.7442,5.8284,5.8886,5.8138,5.8549,5.8801,5.8346,5.8124,5.8002,5.8002,5.8702,5.9388,5.9926,6.0964,6.1794,6.2333,6.2412,6.2498,6.2786,6.2793,6.2793,6.2793,6.2793,6.2793,6.2793,6.2793,6.2793,6.2793,6.2793,6.2793,6.2793,6.2793,6.2793,6.2793,6.2793,6.2793,6.2793,6.2793,6.2793,6.2793,6.2793,6.2793,6.2793,6.2793,6.2793,6.2793,6.2793,6.2793,6.2793,0.0,0.0,0.0,0.0,0.0,0.0,0.0,0.0,0.0,0.0,0.0,0.0,0.0,0.0,0.0,0.0,0.0,4.9678,5.0272,5.0048,4.9838,4.971,4.9596,4.9434,4.9281,4.916,4.8969,4.8675,4.8426,4.8301,4.8301,4.8301,4.8301,4.8301,4.8301,4.8301,4.8301,4.8633,4.909,4.9653,5.0247,5.0763,5.1344,5.259,5.3298,0.0,5.4732,5.5033,5.4995,5.5547,5.5706,5.5706,5.5706,5.5706,5.5706,5.5706,5.5706,5.5706,5.5706,5.5706,5.5785,5.6104,5.6579,5.7085,5.7404,5.811,5.8605,5.8138,5.8918,5.9435,5.8522,5.8812,5.8999,5.8537,5.8452,5.8416,5.8416,5.9371,6.0244,6.0761,6.1543,6.2247,0.0,0.0,6.2793,6.2793,6.2793,6.2793,6.2793,6.2793,6.2793,6.2793,6.2793,6.2793,6.2793,6.2793,6.2793,6.2793,6.2793,6.2793,6.2793,6.2793,6.2793,6.2793,6.2793,6.2793,6.2793,6.2793,6.2793,6.2793,6.2793,6.2793,6.2793,6.2793,6.2793,6.2793,0.0,0.0,0.0,0.0,0.0,0.0,0.0,0.0,0.0,0.0,0.0,0.0,0.0,0.0,0.0,0.0,0.0,0.0,5.063,4.9969,4.971,5.003,4.9725,4.933,4.8914,4.926,4.9088,4.8338,4.8301,4.8301,4.8301,4.8301,4.8301,4.8301,4.8343,4.8379,4.8426,4.9293,4.9695,4.985,5.1386,5.205,5.2218,5.334,5.4112,5.4573,5.4956,5.5352,5.5706,5.5706,5.5706,5.5706,5.5706,5.5706,5.5706,5.5706,5.5706,5.5706,5.5706,5.5747,5.5983,5.6777,5.7052,5.7338,5.815,5.896,5.9394,5.8918,5.9503,5.9774,0.0,0.0,5.8543,5.8081,5.8665,5.9195,5.9214,6.058,6.1588,0.0,0.0,0.0,0.0,0.0,0.0,6.2793,6.2793,6.2793,6.2793,6.2793,6.2793,6.2793,6.2793,6.2793,6.2793,6.2793,6.2793,6.2793,6.2793,6.2793,6.2793,6.2793,6.2793,6.2793,6.2793,6.2793,6.2793,6.2793,6.2793,6.2793,6.2793,6.2793,6.2793,6.2793,6.2793,6.2793,0.0,0.0,0.0,0.0,0.0,0.0,0.0,0.0,0.0,0.0,0.0,0.0,0.0,0.0,0.0,0.0,0.0,0.0,5.0272,5.0327,5.0051,4.9251,4.9666,4.963,4.8907,4.8998,4.894,4.8758,4.8462,4.8301,4.8301,4.8301,4.8301,4.8338,4.8966,4.9257,4.9335,5.0163,5.0853,5.1417,5.1841,5.2548,5.3382,5.3671,5.429,5.495,5.5044,5.5352,5.5706,5.5706,5.5706,5.5706,5.5706,5.5706,5.5706,5.5706,5.5706,5.5706,5.5706,5.6183,5.6738,5.6936,5.7948,5.8835,5.8688,5.9317,5.9793,5.9356,5.9426,5.939,0.0,5.8708,5.8543,5.8081,5.8665,0.0,5.9213,6.0585,0.0,6.1598,0.0,6.2793,6.2793,6.2793,0.0,6.2793,6.2793,6.2793,6.2793,6.2793,6.2793,6.2793,6.2793,6.2793,6.2793,6.2793,6.2793,6.2793,6.2793,6.2793,6.2793,6.2793,6.2793,6.2793,6.2793,6.2793,6.2793,6.2793,6.2793,6.2793,6.2793,6.2793,6.2793,6.2793,6.2793,6.2793,0.0,0.0,0.0,0.0,0.0,0.0,0.0,0.0,0.0,0.0,0.0,0.0,0.0,0.0,0.0,0.0,0.0,0.0,0.0,5.0392,5.0193,4.9724,4.9788,4.9699,4.943,4.9244,4.9086,4.8883,4.8675,4.8467,4.8301,4.8301,4.8301,4.8301,4.8799,4.9233,4.9633,5.0462,5.1275,0.0,0.0,5.3214,5.3828,5.4218,5.4662,5.5113,5.531,5.5508,5.5706,5.5706,5.5706,5.5706,5.5706,5.5706,5.5706,5.5706,5.5706,5.5785,5.6183,5.662,5.7164,5.791,5.8645,5.9276,5.9595,5.9758,5.9723,5.9442,5.941,5.92,5.8537,5.8543,5.8665,0.0,0.0,0.0,6.0187,6.1335,6.2125,0.0,6.2541,0.0,6.2793,6.2793,6.2793,6.2793,6.2793,6.2793,6.2793,6.2793,6.2793,6.2793,6.2793,6.2793,6.2793,6.2793,6.2793,6.2793,6.2793,6.2793,6.2793,6.2793,6.2793,6.2793,6.2793,6.2793,6.2793,6.2793,6.2793,6.2793,6.2793,6.2793,6.2793,6.2793,6.2793,6.2793,0.0,0.0,0.0,0.0,0.0,0.0,0.0,0.0,0.0,0.0,0.0,0.0,0.0,0.0,0.0,0.0,0.0,0.0,0.0,0.0,5.0313,5.0592,5.0018,4.9785,5.0035,4.9719,4.9365,4.8991,4.8932,4.8716,4.8384,4.8301,4.8301,4.8301,4.8426,4.8959,4.9799,5.0613,5.1422,5.226,5.334,5.3854,5.3985,0.0,0.0,5.5231,5.5588,5.5706,0.0,0.0,5.5706,5.5706,5.5706,5.5706,5.5706,5.5706,5.5785,5.6024,5.6777,5.7164,5.7684,5.9139,5.9237,5.9273,6.0447,5.9964,5.9306,5.9397,5.9365,5.9096,5.8385,5.8594,5.8957,5.9286,0.0,6.0813,6.1513,6.229,6.2793,6.2793,6.2793,6.2793,6.2793,6.2793,6.2793,6.2793,6.2793,6.2793,6.2793,6.2793,6.2793,6.2793,6.2793,6.2793,6.2793,6.2793,6.2793,6.2793,6.2793,6.2793,6.2793,6.2915,6.2958,6.2995,6.3081,6.3124,6.3124,6.3124,6.3124,6.3124,6.3124,6.3124,6.3124,6.3124,6.3124,6.3124,0.0,0.0,0.0,0.0,0.0,0.0,0.0,0.0,0.0,0.0,4.682,0.0,0.0,0.0,0.0,0.0,0.0,0.0,0.0,0.0,0.0,5.0233,5.0372,5.0222,4.9631,4.9858,4.9782,4.9383,4.9057,4.8841,4.8799,4.8467,4.8301,4.8338,4.9049,4.9833,5.0652,5.1454,5.226,5.3046,5.3587,5.4026,5.4418,5.4916,0.0,0.0,5.5667,0.0,0.0,0.0,5.5706,5.5706,5.5706,5.5706,5.5706,5.5706,5.6222,5.6818,5.6975,5.8022,5.9139,5.9441,5.9675,5.994,6.0182,5.9508,0.0,0.0,5.9079,5.898,5.9485,5.9638,5.9785,6.0157,6.0852,6.1422,6.1592,6.229,6.2793,0.0,6.2793,6.2793,6.2793,6.2793,0.0,6.2793,6.2793,6.2793,6.2793,6.2793,6.2793,6.2793,6.2793,6.2793,6.2793,6.2793,6.2793,6.2793,6.2793,6.2793,6.2829,6.3541,6.3873,6.3909,6.4573,6.4868,6.4868,6.4868,6.4868,6.4868,6.4868,6.4868,6.4868,6.4868,6.4868,6.4782,0.0,0.0,0.0,0.0,0.0,0.0,0.0,0.0,0.0,0.0,4.7647,4.8346,0.0,0.0,0.0,0.0,0.0,0.0,0.0,0.0,0.0,0.0,5.0392,5.0303,5.0136,4.9917,4.9798,4.9798,0.0,4.9198,4.921,4.8799,4.8592,4.8628,4.8836,4.9626,5.0843,5.1197,5.2087,5.3256,5.3629,5.4062,5.4556,0.0,0.0,0.0,0.0,0.0,0.0,0.0,5.5706,5.5706,5.5706,5.5706,5.5785,5.6222,5.6659,5.72,5.8061,5.8879,5.9595,6.0068,5.995,5.9796,6.0035,0.0,0.0,5.9244,5.938,5.9429,5.9836,6.0247,6.0609,6.0981,6.1349,6.1751,6.2168,6.2541,6.2793,6.2793,6.2793,6.2793,6.2793,6.2793,6.2793,6.2793,6.2793,6.2793,6.2793,6.2793,6.2793,6.2793,6.2793,6.2793,6.2793,6.2793,6.3038,6.3492,6.3492,6.3707,6.4118,6.4536,6.4712,6.4753,6.5128,6.5295,6.5295,6.5295,6.5295,6.5295,6.5295,6.5295,6.5295,6.5295,6.5295,6.5251,0.0,0.0,0.0,0.0,0.0,0.0,0.0,4.6623,4.721,4.7425,4.8579,4.9478,4.9678,5.0274,5.0709,0.0,0.0,0.0,0.0,0.0,0.0,0.0,0.0,0.0,5.0709,0.0,0.0,5.0227,4.9841,0.0,0.0,0.0,0.0,0.0,4.8592,4.9257,5.0676,5.0863,5.1757,0.0,0.0,5.4224,0.0,0.0,0.0,0.0,0.0,0.0,0.0,0.0,5.5706,5.5706,5.5706,5.5826,5.6104,5.6815,5.7239,5.7835,5.9139,5.9554,5.9793,6.0467,5.995,5.9355,5.9828,5.8924,0.0,5.9428,5.9807,6.0011,6.0338,6.0942,6.1457,6.1794,6.1874,6.2082,6.2707,6.2793,6.2793,0.0,6.2793,0.0,6.2793,6.2793,6.2793,6.2793,6.2793,6.2793,6.2793,6.2793,6.2793,6.2793,6.2793,6.2793,6.2793,6.2995,6.3412,6.4118,6.4276,6.4693,6.5314,6.5481,6.556,6.5577,6.5743,6.5823,6.5823,6.5823,6.5823,6.5823,6.5823,6.5823,6.5823,6.5823,6.5823,6.5786,0.0,0.0,0.0,0.0,0.0,0.0,0.0,4.7456,4.8254,4.907,4.9288,4.9716,5.0471,5.0668,5.0709,0.0,0.0,0.0,0.0,0.0,0.0,0.0,0.0,0.0,0.0,0.0,0.0,5.0643,5.0228,0.0,0.0,0.0,0.0,0.0,0.0,4.934,5.0222,5.1025,0.0,0.0,0.0,0.0,0.0,0.0,0.0,0.0,0.0,5.5706,5.5706,5.5706,5.5706,5.5706,5.5706,5.6222,5.6898,5.6975,5.8096,5.929,5.9477,5.9752,6.0068,6.0148,5.9474,5.8876,5.9377,0.0,5.848,6.016,6.0173,6.0342,6.1793,6.2145,6.229,6.2627,6.2707,6.2707,6.2793,6.2793,6.2793,6.2793,0.0,0.0,6.2793,6.2793,6.2793,6.2793,6.2793,6.2793,6.2793,6.2793,6.2793,6.2793,6.2793,6.2793,6.2793,6.3578,6.4032,6.4112,6.486,6.5218,6.5304,6.6056,6.6406,6.6409,6.7156,6.749,6.749,6.749,6.749,6.749,6.749,6.749,6.749,6.749,6.749,6.7367,0.0,0.0,0.0,0.0,0.0,0.0,0.0,4.8195,4.9012,4.9365,4.9875,5.0313,5.0668,5.0709,5.0709,0.0,0.0,0.0,0.0,0.0,0.0,0.0,0.0,0.0,0.0,0.0,5.0457,5.0702,5.0057,0.0,0.0,0.0,0.0,0.0,0.0,4.97,5.0528,5.1396,0.0,0.0,0.0,0.0,0.0,0.0,0.0,0.0,0.0,0.0,5.5706,5.5706,5.5706,5.5785,5.6302,5.7095,5.7797,5.7772,5.8595,5.9595,6.0148,6.0388,6.0438,6.0158,5.9628,5.9171,5.9342,0.0,5.9079,6.0322,6.0784,6.1208,6.2132,6.2455,6.2627,6.2786,6.2793,6.2793,6.2793,6.2793,6.2793,6.2793,6.2793,6.2793,6.2793,6.2793,6.2793,6.2793,6.2793,6.2793,6.2793,6.2793,6.2793,6.2793,6.3326,6.3578,6.3578,6.4407,6.5075,6.5532,6.5867,6.6286,6.6743,6.7076,6.7206,6.7243,6.7577,6.77,6.77,6.77,6.77,6.77,6.77,6.77,6.77,6.77,6.77,6.7657,0.0,0.0,0.0,0.0,0.0,0.0,4.7853,4.8964,4.9796,4.9796,5.0313,5.0709,5.0709,5.0709,5.0709,5.0709,0.0,0.0,0.0,0.0,0.0,0.0,0.0,0.0,0.0,0.0,5.043,5.0709,5.0115,5.007,0.0,0.0,4.9954,5.0075,0.0,0.0,0.0,0.0,0.0,0.0,0.0,0.0,0.0,0.0,0.0,0.0,0.0,0.0,0.0,0.0,0.0,5.5865,0.0,0.0,0.0,5.8584,5.9237,6.003,6.0624,6.0704,6.0485,5.9998,5.9526,5.9164,5.9036,0.0,5.9468,6.0353,6.1092,6.1751,6.2333,6.2627,6.2793,6.2793,6.2793,6.2793,6.2793,6.2793,6.2793,6.2793,6.2793,6.2793,6.2793,6.2793,6.2793,6.2793,6.2793,6.2793,6.2793,6.2793,6.2793,6.2793,6.3664,6.4105,6.4101,6.514,6.5947,6.6496,6.6743,6.7156,6.77,6.77,6.77,6.77,6.77,6.77,6.77,6.77,6.77,6.77,6.77,6.77,6.77,6.77,6.77,6.77,0.0,0.0,0.0,0.0,0.0,0.0,0.0,4.9875,5.0709,5.0709,5.0709,5.0709,5.0709,5.0709,5.0709,5.0709,0.0,0.0,0.0,0.0,0.0,0.0,0.0,0.0,0.0,0.0,5.0709,5.0709,5.0709,5.0504,5.0119,5.052,5.0471,5.0113,0.0,0.0,0.0,0.0,0.0,0.0,0.0,0.0,5.5151,0.0,0.0,0.0,0.0,0.0,0.0,0.0,0.0,0.0,0.0,5.7618,5.8445,5.9237,6.011,6.0784,6.0784,6.0467,5.9988,5.9536,5.9044,5.858,5.8124,5.8622,5.9431,6.0244,6.1042,6.1837,6.2664,6.2793,6.2793,6.2793,6.2793,6.2793,6.2793,6.2793,6.2793,6.2793,6.2793,6.2793,6.2793,6.2793,6.2793,6.2793,6.2793,6.2793,6.2793,6.2793,6.2793,6.2793,6.3664,6.4088,6.4088,6.5707,6.6496,6.6496,6.7323,6.77,6.77,6.77,6.77,6.77,6.77,6.77,6.77,6.77,6.77,6.77,6.77,6.77,6.77,6.77,6.77,6.77,0.0,0.0,0.0,0.0,0.0,0.0,0.0,4.9836,5.0392,5.0668,5.0709,5.0709,5.0709,5.0709,5.0709,5.0709,0.0,0.0,0.0,0.0,0.0,0.0,0.0,0.0,0.0,0.0,0.0,5.0709,5.043,5.0374,5.0498,5.0075,5.0127,5.051,5.0233,5.0551,0.0,0.0,0.0,0.0,0.0,5.5476,5.5151,0.0,0.0,0.0,0.0,0.0,0.0,0.0,0.0,0.0,0.0,0.0,0.0,6.0148,6.0586,6.0784,6.0784,6.0704,6.0467,5.9991,5.9784,5.9663,5.9742,6.0152,6.0716,6.1544,6.2082,6.2498,6.275,6.2793,6.2793,6.2793,6.2793,6.2793,6.2793,6.2793,6.2793,6.2793,6.2793,6.2793,6.2793,6.2793,6.2793,6.2793,6.2793,6.2793,6.2793,6.3369,6.3701,6.3701,6.4493,6.5171,6.5743,6.6786,6.7323,6.7323,6.7577,6.77,6.77,6.77,6.77,6.77,6.77,6.77,6.77,6.77,6.77,6.77,6.77,6.77,6.77,6.77,6.77,6.77,0.0,0.0,0.0,0.0,0.0,0.0,0.0,4.9843,5.0233,5.0668,5.0709,5.0709,5.0709,5.0709,5.0709,5.0709,0.0,0.0,0.0,0.0,0.0,0.0,0.0,0.0,0.0,0.0,5.0709,5.0709,5.0433,5.0392,5.0457,5.0114,5.0153,5.0486,5.0369,5.0907,0.0,0.0,0.0,0.0,5.5588,5.5549,5.5349,0.0,0.0,0.0,0.0,0.0,0.0,0.0,0.0,0.0,0.0,0.0,0.0,0.0,6.0784,6.0784,6.0784,6.0784,6.0704,6.0228,6.0198,6.0295,6.0337,6.0837,6.1415,6.193,6.2455,6.2793,6.2793,6.2793,6.2793,6.2793,6.2793,6.2793,6.2793,6.2793,6.2793,6.2793,6.2793,6.2793,6.2793,6.2793,6.2793,6.2793,6.2793,6.2793,6.2793,6.3621,6.4252,6.4554,6.5342,6.6008,6.6496,6.7287,6.77,6.77,6.77,6.77,6.77,6.77,6.77,6.77,6.77,6.77,0.0,6.77,6.77,6.77,6.77,6.77,6.77,6.77,6.77,6.77,0.0,0.0,0.0,0.0,0.0,0.0,0.0,0.0,0.0,0.0,5.0709,5.0709,5.0709,5.0709,5.0709,0.0,0.0,0.0,0.0,0.0,0.0,0.0,0.0,0.0,0.0,5.0709,5.0709,5.0709,5.0709,5.051,5.0154,5.051,5.0475,5.0171,5.0544,5.1222,0.0,0.0,0.0,0.0,5.5706,5.5706,0.0,0.0,0.0,0.0,0.0,0.0,0.0,0.0,0.0,0.0,0.0,0.0,0.0,0.0,0.0,0.0,0.0,6.0784,6.0704,0.0,0.0,0.0,0.0,0.0,0.0,6.1665,6.229,6.2793,6.2793,6.2793,6.2793,6.2793,6.2793,6.2793,6.2793,6.2793,6.2793,6.2793,6.2793,6.2793,6.2793,6.2793,6.2793,6.2793,6.2793,6.2829,6.2872,6.3707,6.4556,6.5344,6.6163,6.6576,6.6576,6.7323,6.77,6.77,6.77,6.77,6.77,6.77,6.77,6.77,6.77,6.77,6.77,6.77,6.77,6.77,6.77,6.77,6.77,6.77,6.77,6.77,0.0,0.0,0.0,0.0,0.0,0.0,0.0,0.0,0.0,0.0,5.0709,5.0709,5.0709,5.0709,5.0709,0.0,0.0,0.0,0.0,0.0,0.0,0.0,0.0,0.0,0.0,5.0709,5.0709,5.0709,5.0709,5.0668,5.0551,5.0351,5.0337,5.0562,5.0996,5.2171,5.3959,0.0,0.0,0.0,5.5706,5.5706,0.0,0.0,0.0,0.0,5.5706,5.5706,0.0,0.0,0.0,0.0,0.0,0.0,0.0,0.0,6.0784,6.0784,6.0784,0.0,6.0944,0.0,0.0,0.0,0.0,0.0,0.0,0.0,0.0,6.2793,6.2793,6.2793,6.2793,6.2793,6.2793,6.2793,6.2793,6.2793,0.0,6.2793,6.2793,6.2793,6.2793,6.2793,6.2793,6.2793,6.2793,6.3081,6.375,6.4573,6.5387,6.6176,6.6996,6.741,6.741,6.7614,6.77,6.77,6.77,6.77,6.77,6.77,6.77,6.77,6.77,6.77,6.77,6.77,6.77,6.77,6.77,6.77,6.77,6.77,6.77,6.77,0.0,0.0,0.0,0.0,0.0,0.0,0.0,0.0,0.0,0.0,0.0,0.0,0.0,0.0,0.0,0.0,0.0,0.0,0.0,0.0,0.0,0.0,0.0,0.0,5.0709,5.0709,5.0709,5.0709,5.0709,5.0709,5.0709,5.0471,5.0709,5.1301,5.2323,5.3182,5.396,5.5192,5.5706,5.5706,5.5706,0.0,0.0,0.0,0.0,0.0,5.5706,5.5967,0.0,5.7291,5.8161,5.8998,0.0,0.0,0.0,0.0,6.0784,6.0784,6.0784,6.11,6.1458,6.1695,0.0,0.0,0.0,0.0,0.0,0.0,0.0,6.2793,6.2793,6.2793,6.2793,6.2793,6.2793,6.2793,6.2793,6.2793,6.2793,6.2793,6.2793,6.2793,6.2793,6.2793,6.2793,6.2793,6.2793,6.3167,6.4038,6.4851,6.5685,6.6459,6.7287,6.77,6.77,6.77,6.77,6.77,6.77,6.77,6.77,6.77,6.77,6.77,6.77,6.77,6.77,6.77,6.77,6.77,6.77,6.77,6.77,6.77,6.77,6.77,0.0,0.0,0.0,0.0,0.0,0.0,0.0,0.0,0.0,0.0,0.0,0.0,0.0,0.0,0.0,0.0,0.0,0.0,0.0,0.0,0.0,0.0,0.0,5.0709,5.0709,5.0709,5.0709,5.0709,5.0709,5.0709,5.0709,5.0709,5.1214,5.2189,5.3772,5.4166,5.3683,5.5113,5.5706,5.5706,5.5706,0.0,0.0,0.0,0.0,0.0,0.0,0.0,0.0,5.8143,5.895,5.9639,6.0547,0.0,0.0,0.0,0.0,0.0,6.0926,6.1521,6.1971,6.1608,6.231,0.0,0.0,0.0,0.0,0.0,0.0,0.0,0.0,6.2793,0.0,6.2793,6.2793,6.2793,6.2793,6.2793,6.2793,6.2793,6.2793,6.2793,6.2793,6.2793,6.2793,6.2793,6.2793,6.3246,6.4241,6.4934,6.5743,6.6656,6.733,6.77,6.77,6.77,6.77,6.77,6.77,6.77,6.77,6.77,6.77,6.77,6.77,6.77,6.77,6.77,6.77,6.77,6.77,6.77,6.77,6.77,6.77,6.77,0.0,0.0,0.0,0.0,0.0,0.0,0.0,0.0,0.0,0.0,0.0,0.0,0.0,0.0,0.0,0.0,0.0,0.0,0.0,0.0,0.0,0.0,5.0709,5.0709,5.0709,5.0709,5.0709,5.0709,5.0709,5.0709,5.0709,5.0709,5.1533,5.3035,5.4051,5.4793,5.531,5.5588,5.5706,5.5706,5.5706,0.0,0.0,0.0,0.0,0.0,0.0,0.0,0.0,5.8778,5.939,5.966,6.0515,0.0,0.0,0.0,0.0,0.0,6.1599,6.1916,6.2001,6.231,6.2742,0.0,0.0,0.0,0.0,0.0,0.0,0.0,0.0,6.2793,6.2793,0.0,6.2793,6.2793,6.2793,6.2793,6.2793,6.2793,6.2793,6.2793,6.2793,6.2793,6.2793,6.2793,6.2793,6.3492,6.5028,6.5223,6.599,6.7453,6.7657,6.77,6.77,6.77,6.77,6.77,6.77,6.77,6.77,6.77,6.77,6.77,6.77,6.77,6.77,6.77,6.77,6.77,6.77,6.77,6.77,6.77,6.77,6.77,0.0,0.0,0.0,0.0,0.0,0.0,0.0,0.0,0.0,0.0,0.0,0.0,0.0,0.0,0.0,0.0,0.0,0.0,0.0,0.0,0.0,5.0709,5.0709,5.0709,5.0709,5.0709,5.0709,5.0709,5.0709,5.0709,5.0709,5.1628,5.2446,5.3247,5.458,5.5093,5.5072,5.5508,5.5706,5.5706,0.0,0.0,0.0,0.0,0.0,0.0,0.0,0.0,0.0,0.0,5.9819,6.0281,6.0668,0.0,0.0,0.0,0.0,0.0,6.1943,6.2484,6.2907,6.2873,0.0,0.0,0.0,0.0,0.0,0.0,0.0,0.0,0.0,0.0,6.2793,6.2793,6.2793,6.2793,6.2793,6.2793,6.2793,6.2793,6.2793,6.2793,6.2793,6.2793,6.2793,6.2793,6.2793,6.3535,6.5201,6.5303,6.6033,6.7657,6.77,6.77,6.77,6.77,6.77,6.77,6.77,6.77,6.77,6.77,6.77,6.77,6.77,6.77,6.77,6.77,6.77,6.77,6.77,6.77,6.77,6.77,6.77,6.77,0.0,0.0,0.0,0.0,0.0,0.0,0.0,0.0,0.0,0.0,0.0,0.0,0.0,0.0,0.0,0.0,0.0,0.0,0.0,0.0,5.0709,5.0709,5.0894,5.0894,5.0709,5.0709,5.0709,5.0709,5.0894,5.1084,5.1318,5.281,5.3484,5.3571,5.5036,5.5352,5.4833,5.5428,5.5706,5.5706,0.0,0.0,0.0,0.0,0.0,0.0,0.0,0.0,0.0,0.0,0.0,0.0,0.0,0.0,0.0,6.1053,6.1505,6.2023,6.2401,6.2977,6.3444,6.3248,0.0,6.3468,6.2922,0.0,0.0,0.0,0.0,0.0,0.0,6.2793,6.2793,6.2793,6.2793,6.2793,6.2793,6.2793,6.2793,6.2793,6.2793,6.2793,6.2793,6.2793,6.2793,6.2793,6.2793,6.3535,6.5201,6.5303,6.6033,6.7657,6.77,6.77,6.77,6.77,6.77,6.77,6.77,6.77,6.77,6.77,6.77,6.77,6.77,6.77,6.77,6.77,6.77,6.77,6.77,6.77,6.77,6.77,6.77,6.77,0.0,0.0,0.0,0.0,0.0,0.0,0.0,0.0,0.0,0.0,0.0,0.0,0.0,0.0,0.0,0.0,0.0,0.0,0.0,0.0,5.0709,5.0709,5.1411,5.1447,5.0709,5.0709,5.0709,5.0709,5.1447,5.2246,5.3031,5.3984,5.4413,5.4431,5.5321,5.5667,5.5626,5.5667,5.5706,5.5706,5.5706,0.0,0.0,0.0,0.0,0.0,0.0,0.0,0.0,0.0,0.0,0.0,0.0,0.0,6.0979,6.1787,6.1728,6.1764,6.3268,6.3107,6.2673,6.3392,0.0,0.0,6.2904,6.2793,0.0,0.0,0.0,0.0,0.0,6.2793,6.2793,6.2793,6.2793,6.2793,6.2793,6.2793,6.2793,6.2793,6.2793,6.2793,6.2793,6.2793,6.2793,6.2793,6.2793,6.3535,6.5201,6.5303,6.6033,6.7657,6.77,6.77,6.77,6.77,6.77,6.77,6.77,6.77,6.77,6.77,6.77,6.77,6.77,6.77,6.77,6.77,6.77,6.77,6.77,6.77,6.77,6.77,6.77,6.77,0.0,0.0,0.0,0.0,0.0,0.0,0.0,0.0,0.0,0.0,0.0,0.0,0.0,0.0,0.0,0.0,0.0,0.0,0.0,0.0,5.2233,5.2241,5.2538,5.2574,5.2241,5.2233,5.2233,5.2241,5.2574,5.3149,5.4003,5.4346,5.4775,5.5244,5.5552,5.5706,5.5706,5.5706,5.5706,5.5706,5.5706,5.6016,0.0,0.0,0.0,0.0,0.0,0.0,0.0,0.0,6.0784,6.0784,6.0784,6.1172,6.1591,6.1592,6.2228,6.2944,6.3268,6.3264,6.3221,6.3508,6.3354,0.0,0.0,0.0,0.0,0.0,0.0,0.0,0.0,0.0,6.2793,6.2793,6.2793,6.2793,6.2793,6.2793,6.2793,6.2793,6.2793,6.2793,6.2793,6.2793,6.2793,6.2793,6.3289,6.4118,6.5237,6.5765,6.6539,6.7657,6.77,6.77,6.77,6.77,6.77,6.77,6.77,6.77,6.77,6.77,6.77,6.77,6.77,6.77,6.77,6.77,6.77,6.77,6.77,6.77,6.77,6.77,6.77,6.77,0.0,0.0,0.0,0.0,0.0,0.0,0.0,0.0,0.0,0.0,0.0,0.0,0.0,0.0,0.0,0.0,0.0,0.0,5.3187,5.3187,5.319,5.32,5.3469,5.3623,5.3623,5.3846,5.3731,5.32,5.3469,5.4049,5.4898,5.4898,5.5167,5.5706,5.5706,5.5706,5.5706,5.5706,5.5706,5.5706,5.6016,5.6382,0.0,0.0,0.0,0.0,0.0,0.0,0.0,0.0,6.0719,6.0651,6.1062,6.1519,6.1875,6.2024,6.2805,6.3525,6.3304,6.3422,6.3576,6.338,6.3086,0.0,6.2793,0.0,0.0,0.0,6.2793,0.0,0.0,0.0,6.2793,6.2793,6.2793,6.2793,6.2793,6.2793,6.2793,6.2793,6.2793,6.2793,6.2793,6.2793,6.2793,6.2793,6.3621,6.4437,6.5264,6.6063,6.6866,6.7657,6.77,6.77,6.77,6.77,6.77,6.77,6.77,6.77,6.77,6.77,6.77,6.77,6.77,6.77,6.77,6.77,6.77,6.77,6.77,6.77,6.77,6.77,6.77,6.77,0.0,0.0,0.0,0.0,0.0,0.0,0.0,0.0,0.0,0.0,0.0,0.0,0.0,0.0,0.0,0.0,0.0,0.0,5.3238,5.3238,5.3238,5.3238,5.4049,5.4513,5.4513,5.5283,5.4898,5.3238,5.4087,5.4936,5.5706,5.5703,5.5703,5.5706,5.5703,5.5703,5.5703,5.5703,5.57,5.5775,5.6629,5.6744,5.6494,0.0,0.0,0.0,0.0,0.0,0.0,0.0,6.0485,6.0328,6.1684,6.1724,6.1656,6.3314,6.347,6.3172,6.3499,6.3609,6.347,6.2917,6.2793,0.0,6.2793,6.2793,6.2793,6.2793,0.0,6.2793,6.2793,6.2793,6.2793,6.2793,6.2793,6.2793,6.2793,6.2793,6.2793,6.2793,6.2793,6.2793,6.2793,6.2793,6.2793,6.2793,6.3621,6.4476,6.5264,6.6076,6.6873,6.7657,6.77,6.77,6.77,6.77,6.77,6.77,6.77,6.77,6.77,6.77,6.77,6.77,6.77,6.77,6.77,6.77,6.77,6.77,6.77,6.77,6.77,6.77,6.77,6.77,0.0,0.0,0.0,0.0,0.0,0.0,0.0,0.0,0.0,0.0,0.0,0.0,0.0,0.0,0.0,0.0,0.0,0.0,5.4975,5.4975,5.4975,5.4975,5.5206,5.5321,5.5321,5.559,5.5475,5.4975,5.5206,5.5475,5.5703,5.5411,5.5426,5.5698,5.5408,5.5266,5.5266,5.5266,5.5422,5.5766,5.6357,5.7189,5.8134,0.0,0.0,0.0,0.0,0.0,0.0,0.0,0.0,0.0,6.1394,6.2028,6.2591,6.27,6.3087,6.3403,6.3106,6.3044,0.0,6.2842,6.2793,0.0,0.0,6.2793,0.0,0.0,6.2793,6.2793,6.2793,6.2793,6.2793,6.2793,6.2793,6.2793,6.2793,6.2793,6.2793,6.2793,6.2793,6.2793,6.2793,6.2793,6.2793,6.2793,6.4118,6.5061,6.5307,6.6619,6.7453,6.77,6.77,6.77,6.77,6.77,6.77,6.77,6.77,6.77,6.77,6.77,6.77,6.77,6.77,6.77,6.77,6.77,6.77,6.77,6.77,6.77,6.77,6.77,6.77,6.77,0.0,0.0,0.0,0.0,0.0,0.0,0.0,0.0,0.0,0.0,0.0,0.0,0.0,0.0,0.0,0.0,0.0,0.0,0.0,5.5706,5.5706,5.5706,5.5706,5.5706,5.5706,5.5706,5.5613,5.5452,5.5613,5.5607,5.5449,5.5384,5.539,5.5444,5.5205,5.5111,5.5101,5.5288,5.5492,5.5775,5.6683,5.7547,5.832,0.0,0.0,0.0,0.0,0.0,0.0,0.0,0.0,0.0,6.1852,6.2353,6.2801,6.2806,6.3033,6.3215,6.2898,6.2793,0.0,6.2793,6.2793,6.2793,6.2793,0.0,0.0,0.0,6.2793,6.2793,6.2793,6.2793,6.2793,6.2793,6.2793,6.2793,6.2793,6.2793,6.2793,6.2793,6.2793,6.2793,6.2793,6.2793,6.2793,6.2793,6.4364,6.5307,6.5307,6.6829,6.77,6.77,6.77,6.77,6.77,6.77,6.77,6.77,6.77,6.77,6.77,6.77,6.77,6.77,6.77,6.77,6.77,6.77,6.77,6.77,6.77,6.77,6.77,6.77,6.77,6.77,0.0,0.0,0.0,0.0,0.0,0.0,0.0,0.0,0.0,0.0,0.0,0.0,0.0,0.0,0.0,0.0,0.0,0.0,0.0,0.0,5.5706,5.5706,5.5706,5.5706,5.5706,5.5643,5.547,5.516,5.5534,5.5479,5.5117,5.5461,5.5444,5.5107,5.5077,5.5043,5.5099,5.5482,5.5701,5.5927,5.7434,5.7823,5.763,5.846,0.0,0.0,0.0,0.0,0.0,0.0,0.0,0.0,6.2658,6.2703,6.2505,6.3308,6.318,6.2793,6.2793,6.2793,6.2793,6.2793,6.2793,0.0,6.2793,6.2793,6.2793,6.2793,6.2793,6.2793,6.2793,6.2793,6.2793,6.2793,6.2793,6.2793,6.2793,6.2793,6.2793,6.2793,6.2793,6.2793,6.2793,6.2793,6.2823,6.2896,6.4395,6.5337,6.5394,6.6866,6.77,6.77,6.77,6.77,6.77,6.77,6.77,6.77,6.77,6.77,6.77,6.77,6.77,6.77,6.77,6.77,6.77,6.77,6.77,6.77,6.77,6.77,6.77,6.77,6.77,6.77,0.0,0.0,0.0,0.0,0.0,0.0,0.0,0.0,0.0,0.0,0.0,0.0,0.0,0.0,0.0,0.0,0.0,0.0,0.0,0.0,5.5706,5.5706,5.5706,5.5706,5.5706,5.5396,5.5356,5.5574,5.5676,5.5479,5.5114,5.5186,5.5183,5.5097,5.4764,5.4767,5.5015,5.5099,5.571,5.6626,5.733,5.7955,5.8487,5.9056,5.9239,0.0,0.0,0.0,0.0,0.0,0.0,0.0,6.239,6.2558,6.2738,6.2929,6.2904,6.2793,6.2793,6.2793,6.2793,6.2793,6.2793,6.2793,6.2793,6.2793,6.2793,6.2793,6.2793,6.2793,6.2793,6.2793,6.2793,6.2793,6.2793,6.2793,6.2793,6.2793,6.2793,6.2793,6.2793,6.2793,6.2793,6.2793,6.3074,6.3788,6.4741,6.5567,6.6213,6.7163,6.77,6.77,6.77,6.77,6.77,6.77,6.77,6.77,6.77,6.77,6.77,6.77,6.77,6.77,6.77,6.77,6.77,6.77,6.77,6.77,6.77,6.77,6.77,6.77,6.77,6.77,0.0,0.0,0.0,0.0,0.0,0.0,0.0,0.0,0.0,0.0,0.0,0.0,0.0,0.0,0.0,0.0,0.0,0.0,0.0,0.0,5.5706,5.5706,5.5706,5.5602,5.5417,5.5399,5.5284,5.5134,5.5335,0.0,0.0,0.0,0.0,5.45,5.4677,5.4845,5.5029,5.5628,5.6234,5.6844,5.749,5.7984,5.8423,5.9078,5.9292,5.9399,6.0177,0.0,0.0,0.0,0.0,0.0,0.0,0.0,6.2793,6.2793,6.2793,6.2793,6.2793,6.2793,6.2793,6.2793,6.2793,6.2793,6.2793,6.2793,6.2793,6.2793,6.2793,6.2793,6.2793,6.2793,6.2793,6.2793,6.2793,6.2793,6.2793,6.2793,6.2793,6.2793,6.2793,6.2793,6.2793,6.2793,6.3153,6.4028,6.4839,6.5663,6.6446,6.727,6.77,6.77,6.77,6.77,6.77,6.77,6.77,6.77,6.77,6.77,6.77,6.77,6.77,6.77,6.77,6.77,6.77,6.77,6.77,6.77,6.77,6.77,6.77,6.77,6.77,6.77,0.0,0.0,0.0,0.0,0.0,0.0,0.0,0.0,0.0,0.0,0.0,0.0,0.0,0.0,0.0,0.0,0.0,0.0,0.0,0.0,0.0,5.5594,5.5594,5.5435,5.5117,5.5369,5.5199,5.4594,5.479,0.0,0.0,0.0,0.0,5.4042,5.4857,5.5251,5.5362,5.6391,5.6884,5.7073,5.774,5.8076,5.829,0.0,0.0,5.9554,6.0746,6.1351,6.1679,6.2202,0.0,0.0,0.0,0.0,6.2793,6.2793,6.2793,6.2793,6.2793,6.2793,6.2793,6.2793,6.2793,6.2793,6.2793,6.2793,6.2793,6.2793,6.2793,6.2793,6.2793,6.2793,6.2793,6.2793,6.2793,6.2793,6.2793,6.2793,6.2793,6.2793,6.2793,6.2793,6.2793,6.2793,6.3233,6.4243,6.4908,6.5693,6.6653,6.7327,6.77,6.77,6.77,6.77,6.77,6.77,6.77,6.77,6.77,6.77,6.77,6.77,6.77,6.77,6.77,6.77,6.77,6.77,6.77,6.77,6.77,6.77,6.77,6.77,6.77,6.77,0.0,0.0,0.0,0.0,0.0,0.0,0.0,0.0,0.0,0.0,0.0,0.0,0.0,0.0,0.0,0.0,0.0,0.0,5.5706,0.0,0.0,5.518,5.518,5.516,5.5111,5.4801,5.4771,5.504,0.0,0.0,0.0,0.0,0.0,5.4857,0.0,0.0,5.6555,5.6734,5.7183,5.785,5.796,5.8437,0.0,0.0,0.0,0.0,0.0,6.1557,6.1722,6.2488,6.2751,0.0,0.0,0.0,6.2793,6.2793,6.2793,6.2793,6.2793,6.2793,6.2793,6.2793,6.2793,6.2793,6.2793,6.2793,6.2793,6.2793,6.2793,6.2793,6.2793,6.2793,6.2793,6.2793,6.2793,6.2793,6.2793,6.2793,6.2793,6.2793,6.2793,6.2793,6.2793,6.2793,6.3453,6.5038,6.5232,6.5972,6.748,6.7627,6.77,6.77,6.77,6.77,6.77,6.77,6.77,6.77,6.77,6.77,6.77,6.77,6.77,6.77,6.77,6.77,6.77,6.77,6.77,6.77,6.77,6.77,6.77,6.77,6.77,6.77,0.0,0.0,0.0,0.0,0.0,0.0,0.0,0.0,0.0,0.0,0.0,0.0,0.0,0.0,0.0,5.5973,5.6108,5.6414,5.7115,5.7004,5.6888,5.6888,5.6888,5.6632,5.6118,5.6194,5.6075,5.5727,0.0,0.0,0.0,5.612,5.5975,0.0,0.0,0.0,0.0,0.0,0.0,5.8033,5.8505,0.0,0.0,0.0,0.0,0.0,0.0,0.0,0.0,6.2683,6.2793,6.2793,6.2793,0.0,0.0,0.0,6.2793,6.2793,6.2793,6.2793,6.2793,6.2793,6.2793,6.2793,6.2793,6.2793,6.2793,6.2793,6.2793,6.2793,6.2793,6.2793,6.2793,6.2793,6.2793,6.2793,6.2793,6.2793,6.2793,6.2793,6.2793,6.2793,6.2793,6.3239,6.4016,6.5215,6.5735,6.6476,6.7627,6.77,6.77,6.77,6.77,6.77,6.77,6.77,6.77,6.77,6.77,6.77,6.77,6.77,6.77,6.77,6.77,6.77,6.77,6.77,6.77,6.77,6.77,6.77,6.77,6.77,6.77,6.77,0.0,0.0,0.0,0.0,0.0,0.0,0.0,0.0,0.0,0.0,0.0,0.0,0.0,0.0,0.0,0.0,5.6622,5.7175,5.8219,5.8206,5.8127,5.8127,5.8006,5.7631,5.6937,5.712,5.6899,0.0,0.0,0.0,5.6373,5.6674,5.6602,0.0,5.6859,0.0,0.0,0.0,0.0,0.0,0.0,0.0,0.0,0.0,0.0,0.0,0.0,0.0,0.0,0.0,0.0,0.0,6.2793,6.2793,0.0,0.0,0.0,6.2793,6.2793,6.2793,6.2793,6.2793,6.2793,6.2793,6.2793,6.2793,6.2793,6.2793,6.2793,6.2793,6.2793,6.2793,6.2793,6.2793,6.2793,6.2793,6.2793,6.2793,6.2793,6.2793,6.2793,6.2793,6.2793,6.3576,6.4427,6.5258,6.6035,6.6849,6.7664,6.77,6.77,6.77,6.77,6.77,6.77,6.77,6.77,6.77,6.77,6.77,6.77,6.77,6.77,6.77,6.77,6.77,6.77,6.77,6.77,6.77,6.77,6.77,6.77,6.77,6.77,6.77,0.0,0.0,0.0,0.0,0.0,0.0,0.0,0.0,0.0,0.0,0.0,0.0,0.0,5.4936,5.5473,5.6761,5.7298,5.776,5.8258,5.7886,5.7628,5.7628,5.7218,0.0,5.6886,5.649,0.0,0.0,0.0,0.0,5.6782,5.6791,5.7183,5.7892,5.7929,5.7923,5.7997,0.0,0.0,0.0,0.0,0.0,0.0,0.0,0.0,0.0,0.0,0.0,0.0,0.0,0.0,0.0,0.0,0.0,6.2793,0.0,0.0,0.0,6.2793,6.2793,6.2793,6.2793,6.2793,6.2793,6.2793,6.2793,6.2793,6.2793,6.2793,6.2793,6.2793,6.2793,6.2793,6.2793,6.2793,6.2793,6.2793,6.2793,6.2793,6.2793,6.2793,6.2793,6.2793,6.3576,6.4427,6.5258,6.6035,6.6849,6.7664,6.77,6.77,6.77,6.77,6.77,6.77,6.77,6.77,6.77,6.77,6.77,6.77,6.77,6.77,6.77,6.77,6.77,6.77,6.77,6.77,6.77,6.77,6.77,6.77,6.77,6.77,6.77,0.0,0.0,0.0,0.0,0.0,0.0,0.0,0.0,0.0,0.0,0.0,0.0,0.0,5.5524,5.6013,5.7547,5.8341,5.881,5.9,5.8842,5.8762,5.8762,5.8606,5.8378,5.8053,5.7898,0.0,0.0,0.0,5.7305,5.7556,5.7556,5.7703,5.8002,5.8002,5.829,5.8792,5.908,0.0,0.0,0.0,0.0,0.0,0.0,0.0,0.0,0.0,0.0,0.0,0.0,0.0,0.0,0.0,0.0,0.0,0.0,6.2793,6.2793,6.2793,6.2793,6.2793,6.2793,6.2793,6.2793,6.2793,6.2793,6.2793,6.2793,6.2793,6.2793,6.2793,6.2793,6.2793,6.2793,6.2793,6.2793,6.2793,6.2793,6.2793,6.2793,6.2793,6.2793,6.2793,6.4047,6.5001,6.5295,6.6512,6.7407,6.7664,6.77,6.77,6.77,6.77,6.77,6.77,6.77,6.77,6.77,6.77,6.77,6.77,6.77,6.77,6.77,6.77,6.77,6.77,6.77,6.77,6.77,6.77,6.77,6.77,6.77,6.77,6.77,0.0,0.0,0.0,0.0,0.0,0.0,0.0,0.0,0.0,0.0,0.0,0.0,0.0,0.0,5.6626,5.8156,5.8843,5.9226,5.9381,5.9394,5.9394,5.9394,5.9239,5.9037,5.8723,0.0,0.0,0.0,0.0,0.0,0.0,5.8002,5.8143,5.8394,5.8394,5.8688,0.0,0.0,0.0,6.086,0.0,0.0,6.2071,0.0,0.0,0.0,0.0,0.0,0.0,0.0,0.0,0.0,0.0,0.0,0.0,0.0,0.0,0.0,6.2793,6.2793,6.2793,6.2793,6.2793,6.2793,6.2793,6.2793,6.2793,6.2793,6.2793,6.2793,6.2793,6.2793,6.2793,6.2793,6.2793,6.2793,6.2793,6.2793,6.2793,6.2793,6.2793,6.2793,6.2793,6.4334,6.5288,6.5288,6.6769,6.77,6.77,6.77,6.77,6.77,6.77,6.77,6.77,6.77,6.77,6.77,6.77,6.77,6.77,6.77,6.77,6.77,6.77,6.77,6.77,6.77,6.77,6.77,6.77,6.77,6.77,6.77,6.77,6.77,0.0,0.0,0.0,0.0,0.0,0.0,0.0,0.0,0.0,0.0,0.0,0.0,0.0,0.0,0.0,5.8573,5.8693,5.8874,5.9324,5.9354,5.9354,5.9354,5.8932,5.8693,5.8693,0.0,0.0,0.0,0.0,0.0,0.0,0.0,5.8468,5.9227,5.9264,5.9264,5.9374,0.0,6.16,6.171,0.0,6.2793,6.2793,0.0,0.0,0.0,6.2793,6.2793,0.0,0.0,0.0,0.0,0.0,0.0,0.0,0.0,0.0,0.0,0.0,0.0,0.0,6.2793,6.2793,6.2793,6.2793,6.2793,6.2793,6.2793,6.2793,6.2793,6.2793,6.2793,6.2793,6.2793,6.2793,6.2793,6.2793,6.2793,6.2793,6.2793,6.2793,6.2793,6.2793,6.4334,6.5288,6.5288,6.6769,6.77,6.77,6.77,6.77,6.77,6.77,6.77,6.77,6.77,6.77,6.77,6.77,6.77,6.77,6.77,6.77,6.77,6.77,6.77,6.77,6.77,6.77,6.77,6.77,6.77,6.77,6.77,6.77,6.77,0.0,0.0,0.0,0.0,0.0,0.0,0.0,0.0,0.0,0.0,0.0,0.0,0.0,0.0,0.0,5.8161,5.8177,5.8244,5.837,5.8381,5.8381,5.8381,5.8266,5.8177,5.8177,0.0,0.0,0.0,0.0,0.0,0.0,0.0,0.0,0.0,6.0676,6.0933,6.097,6.1416,0.0,0.0,6.2719,6.2793,0.0,0.0,0.0,0.0,0.0,6.2793,0.0,0.0,6.2793,6.2793,0.0,0.0,0.0,0.0,0.0,0.0,6.2793,0.0,0.0,0.0,0.0,0.0,6.2793,6.2793,6.2793,6.2793,6.2793,6.2793,6.2793,6.2793,6.2793,6.2793,6.2793,6.2793,6.2793,6.2793,6.2793,6.2793,6.2793,6.2793,6.2793,6.4334,6.5288,6.5288,6.6769,6.77,6.77,6.77,6.77,6.77,6.77,6.77,6.77,6.77,6.77,6.77,6.77,6.77,6.77,6.77,6.77,6.77,6.77,6.77,6.77,6.77,6.77,6.77,6.77,6.77,6.77,6.77,6.77,6.7774,0.0,0.0,0.0,0.0,0.0,0.0,0.0,0.0,0.0,0.0,0.0,0.0,0.0,0.0,0.0,0.0,5.8988,5.8988,5.8988,5.8988,5.8988,5.8988,5.8988,5.8988,5.8988,0.0,0.0,0.0,0.0,0.0,0.0,0.0,0.0,0.0,0.0,0.0,0.0,0.0,0.0,0.0,6.2793,0.0,0.0,6.2793,6.2793,0.0,0.0,0.0,6.2793,6.2793,6.2793,0.0,0.0,0.0,0.0,0.0,0.0,0.0,0.0,0.0,0.0,0.0,0.0,0.0,6.2793,6.2793,6.2793,6.2793,6.2793,6.2793,6.2793,6.2793,6.2793,6.2793,6.2793,6.2793,6.2793,6.2793,6.2793,6.2793,6.2793,6.2793,6.2793,6.4334,6.5288,6.5288,6.6769,6.77,6.77,6.77,6.77,6.77,6.77,6.77,6.77,6.77,6.77,6.77,6.77,6.77,6.77,6.77,6.77,6.77,6.77,6.77,6.77,6.77,6.77,6.77,6.77,6.77,6.77,6.77,6.7914,6.8274,0.0,0.0,0.0,0.0,0.0,0.0,0.0,0.0,0.0,0.0,0.0,0.0,0.0,0.0,0.0,0.0,6.0413,6.0413,6.0413,6.0413,0.0,0.0,6.0413,6.0413,6.0413,5.971,0.0,0.0,0.0,0.0,0.0,0.0,0.0,0.0,0.0,0.0,0.0,0.0,0.0,6.2793,6.2793,6.2793,0.0,0.0,6.2793,6.2793,6.2793,6.2793,6.2793,6.2793,6.2793,0.0,0.0,0.0,0.0,0.0,6.2793,0.0,0.0,0.0,0.0,0.0,0.0,0.0,6.2793,6.2793,6.2793,6.2793,6.2793,6.2793,6.2793,6.2793,6.2793,6.2793,6.2793,6.2793,6.2793,6.2793,6.2793,6.2793,6.2793,6.2793,6.2793,6.4334,6.5288,6.5288,6.6769,6.77,6.77,6.77,6.77,6.77,6.77,6.77,6.77,6.77,6.77,6.77,6.77,6.77,6.77,6.77,6.77,6.77,6.77,6.77,6.77,6.77,6.77,6.77,6.77,6.7737,6.7841,6.7841,6.8355,6.9038,0.0,0.0,0.0,0.0,0.0,0.0,0.0,0.0,0.0,0.0,0.0,0.0,0.0,0.0,0.0,0.0,0.0,6.0413,6.0413,0.0,6.0413,6.0413,6.0413,6.0413,6.0413,6.0266,6.023,6.0413,6.023,0.0,0.0,0.0,0.0,0.0,0.0,0.0,0.0,0.0,0.0,6.2793,6.2793,0.0,6.2793,6.2793,6.2793,6.2793,6.2793,6.2793,6.2793,0.0,6.2793,6.2793,0.0,0.0,0.0,0.0,0.0,0.0,0.0,0.0,0.0,0.0,0.0,0.0,6.2793,6.2793,6.2793,6.2793,6.2793,6.2793,6.2793,6.2793,6.2793,6.2793,6.2793,6.2793,6.2793,6.2793,6.2793,6.2793,6.2793,6.2793,6.2793,6.4334,6.5288,6.5288,6.6769,6.77,6.77,6.77,6.77,6.77,6.77,6.77,6.77,6.77,6.77,6.77,6.77,6.77,6.77,6.77,6.77,6.77,6.77,6.77,6.77,6.77,6.77,6.77,6.77,6.8098,6.8678,6.8678,6.9192,6.9963,0.0,0.0,0.0,0.0,0.0,0.0,0.0,0.0,0.0,0.0,0.0,0.0,0.0,0.0,0.0,0.0,0.0,0.0,0.0,0.0,0.0,6.1582,6.1582,6.1582,6.1582,6.1582,6.1582,6.1582,6.1582,6.1808,0.0,0.0,0.0,0.0,0.0,0.0,0.0,0.0,6.2793,6.2793,6.2793,0.0,6.2793,6.2793,6.2793,6.2793,6.2793,6.2793,6.2793,6.2793,6.2793,0.0,0.0,6.2793,6.2793,0.0,6.2793,6.2793,0.0,0.0,0.0,6.2793,0.0,0.0,0.0,6.2793,6.2793,6.2793,6.2793,6.2793,6.2793,6.2793,6.2793,6.2793,6.2793,6.2793,6.2793,6.2793,6.2793,6.2793,6.2793,6.2793,6.2793,6.4334,6.5625,6.6439,6.7253,6.77,6.77,6.77,6.77,6.77,6.77,6.77,6.77,6.77,6.77,6.77,6.77,6.77,6.77,6.77,6.77,6.77,6.77,6.77,6.77,6.77,6.7951,6.8311,6.8311,6.8531,6.8965,6.9339,7.0,7.0763,0.0,0.0,0.0,0.0,0.0,0.0,0.0,0.0,0.0,0.0,0.0,0.0,0.0,0.0,0.0,0.0,0.0,0.0,0.0,0.0,0.0,0.0,6.2793,6.2793,6.2793,6.2793,6.2793,6.2793,6.2793,6.2793,6.2793,6.2793,0.0,0.0,0.0,0.0,0.0,0.0,0.0,6.2793,0.0,6.2793,6.2793,6.2793,6.2793,6.2793,6.2793,6.2793,6.2793,6.2793,6.2793,6.2793,6.2793,6.2793,0.0,0.0,0.0,0.0,0.0,0.0,0.0,0.0,0.0,6.2793,0.0,0.0,0.0,6.2793,6.2793,6.2793,6.2793,6.2793,6.2793,6.2793,6.2793,6.2793,6.2793,6.2793,6.2793,6.2793,6.2793,6.2793,6.2793,6.4334,6.5962,6.759,6.77,6.77,6.77,6.77,6.77,6.77,6.77,6.77,6.77,6.77,6.77,6.77,6.77,6.77,6.77,6.77,6.77,6.77,6.77,6.77,6.77,6.7884,6.8311,6.8892,6.8892,6.9075,6.9442,7.011,7.0837,7.1527,5.9196,0.0,0.0,0.0,0.0,0.0,0.0,0.0,0.0,0.0,0.0,0.0,0.0,0.0,0.0,0.0,0.0,0.0,6.2793,0.0,0.0,0.0,0.0,0.0,6.2793,6.2793,6.2793,6.2793,6.2793,6.2793,6.2793,6.2793,0.0,0.0,6.2793,0.0,0.0,0.0,6.2793,0.0,6.2793,6.2793,0.0,6.2793,6.2793,6.2793,6.2793,6.2793,6.2793,0.0,6.2793,6.2793,0.0,6.2793,6.2793,0.0,0.0,0.0,0.0,0.0,0.0,0.0,6.2793,0.0,0.0,0.0,6.2793,6.2793,0.0,6.2793,6.2793,0.0,0.0,6.2793,6.2793,6.2793,6.2793,6.2793,6.2793,6.2793,6.2793,6.2793,6.2793,6.4334,6.5962,6.759,6.77,6.77,6.77,6.77,6.77,6.77,6.77,6.77,6.77,6.77,6.77,6.77,6.77,6.77,6.77,6.77,6.77,6.77,6.77,6.77,6.7774,6.8458,6.8818,6.8892,6.8892,6.9765,7.105,7.1123,7.1674,7.2342,0.0,0.0,0.0,0.0,0.0,0.0,0.0,0.0,0.0,0.0,0.0,0.0,0.0,0.0,0.0,0.0,0.0,6.2793,0.0,0.0,0.0,0.0,0.0,0.0,0.0,6.2793,6.2793,6.2793,6.2793,6.2793,6.2793,6.2793,6.2793,0.0,6.2793,0.0,6.2793,0.0,6.2793,0.0,0.0,6.2793,0.0,6.2793,6.2793,6.2793,6.2793,6.2793,6.2793,0.0,6.2793,0.0,0.0,0.0,0.0,0.0,0.0,0.0,0.0,0.0,0.0,0.0,0.0,0.0,6.2793,0.0,6.2793,0.0,0.0,0.0,0.0,0.0,0.0,0.0,6.2793,6.2793,6.2793,6.2793,6.2793,6.2793,6.2793,6.3196,6.415,6.4884,6.5962,6.759,6.77,6.77,6.77,6.77,6.77,6.77,6.77,6.77,6.77,6.77,6.77,6.77,6.77,6.77,6.77,6.77,6.77,6.7737,6.8201,6.8385,6.8458,6.9265,6.9883,7.0279,7.0279,7.072,7.1344,7.1828,7.2195,7.2488,0.0,0.0,0.0,0.0,0.0,0.0,0.0,0.0,0.0,0.0,0.0,0.0,6.2793,6.2793,0.0,0.0,0.0,6.2793,0.0,0.0,6.2793,0.0,0.0,0.0,0.0,0.0,6.2793,6.2793,6.2793,6.2793,6.2793,6.2793,6.2793,6.2793,0.0,6.2793,6.2793,0.0,6.2793,6.2774,6.2554,6.233,6.2179,6.2376,6.2483,6.2458,6.2225,6.2159,6.2159,6.2159,6.2159,6.2029,6.1471,6.1666,6.2023,0.0,0.0,0.0,6.2395,0.0,0.0,0.0,0.0,0.0,0.0,0.0,0.0,0.0,0.0,0.0,0.0,0.0,0.0,0.0,0.0,6.2793,6.2793,6.2793,6.2793,6.2793,6.2793,6.338,6.4818,6.5185,6.5882,6.7253,6.759,6.77,6.77,6.77,6.77,6.77,6.77,6.77,6.77,6.77,6.77,6.77,6.77,6.77,6.77,6.77,6.7811,6.8061,6.8641,6.9038,6.9302,7.011,7.0763,7.1307,7.1527,7.1637,7.1711,7.2268,7.2488,7.2488,0.0,6.2719,0.0,0.0,0.0,0.0,0.0,0.0,0.0,0.0,0.0,0.0,0.0,0.0,0.0,0.0,0.0,6.2793,6.2793,0.0,6.2793,0.0,0.0,0.0,0.0,0.0,0.0,6.2793,6.2793,6.2793,6.2793,6.2793,6.2793,6.2793,6.2793,6.2793,6.2793,6.2793,6.2793,6.2736,6.1962,6.1157,6.0549,6.1329,6.1646,6.1548,6.0753,6.0466,6.0466,6.0466,6.0466,6.0458,6.0463,6.0478,6.0458,0.0,0.0,0.0,0.0,6.1062,0.0,6.2425,0.0,0.0,0.0,0.0,6.2573,0.0,0.0,0.0,0.0,0.0,0.0,0.0,0.0,0.0,0.0,6.2793,6.2793,6.2793,6.2793,6.3166,6.4059,6.4854,6.5625,6.6476,6.7253,6.77,6.77,6.77,6.77,6.77,6.77,6.77,6.77,6.77,6.77,6.77,6.77,6.77,6.77,6.77,6.8134,6.8855,6.8892,6.9332,7.0117,7.094,7.127,7.138,7.2158,7.2452,7.2452,7.2488,7.2488,7.2488,0.0,0.0,0.0,0.0,0.0,0.0,0.0,6.2793,0.0,0.0,0.0,0.0,0.0,0.0,6.2793,0.0,0.0,6.2793,6.2793,6.2793,0.0,0.0,0.0,6.2793,0.0,0.0,0.0,0.0,0.0,6.2793,6.2793,6.2793,6.2793,6.2793,6.2793,6.2793,0.0,0.0,0.0,0.0,6.1121,6.0953,6.1157,6.0901,6.0798,6.076,6.0489,6.0381,6.0381,6.0381,6.0381,6.0289,5.9728,5.9936,6.0273,5.9712,5.9952,6.0443,6.0723,6.0603,6.079,6.2408,6.2586,6.2745,0.0,0.0,0.0,0.0,0.0,0.0,0.0,0.0,0.0,0.0,0.0,0.0,0.0,6.2793,6.2793,6.2793,6.2793,6.3129,6.4029,6.4824,6.5625,6.6439,6.7253,6.77,6.77,6.77,6.77,6.77,6.77,6.77,6.77,6.77,6.77,6.77,6.77,6.7412,6.6867,6.7982,6.8342,6.8124,6.9782,7.0646,7.0947,7.1754,7.2085,7.2121,7.2378,7.2488,7.2488,7.2488,7.2488,7.2488,6.2793,0.0,0.0,0.0,0.0,0.0,0.0,0.0,0.0,0.0,6.2793,0.0,6.2793,0.0,6.2793,0.0,6.2793,6.2793,6.2793,6.2793,0.0,6.2793,6.2793,0.0,0.0,0.0,0.0,0.0,0.0,6.2793,6.2793,6.2793,6.2793,6.2793,6.2793,6.2624,6.2337,6.1811,6.1414,6.1092,6.0281,6.0094,6.0222,5.9704,5.9864,6.0304,5.9712,5.9519,5.9519,5.9519,5.9519,5.942,5.884,5.9061,5.9447,5.9159,5.9468,6.0022,6.0604,6.0535,6.0698,6.2335,6.2502,6.2645,6.4043,6.393,6.349,0.0,0.0,0.0,0.0,0.0,0.0,0.0,0.0,0.0,0.0,6.2793,6.2793,6.2793,6.2793,6.3129,6.4029,6.4824,6.5625,6.6439,6.7253,6.77,6.77,6.77,6.77,6.77,6.77,6.77,6.77,6.77,6.77,6.7694,6.7398,6.7263,6.731,6.8079,6.8611,6.9018,7.0594,7.1454,7.1784,7.2305,7.2488,7.2488,7.2488,7.2488,7.2488,7.2488,7.2488,7.2488,0.0,0.0,0.0,0.0,6.2793,0.0,0.0,0.0,6.2793,0.0,6.2793,6.2793,6.2793,6.2793,6.2793,6.2793,6.2793,0.0,6.2793,6.2793,0.0,0.0,6.2793,6.2793,6.2793,0.0,0.0,0.0,0.0,0.0,6.2793,6.2755,6.2743,6.2743,6.2743,6.2291,6.1555,6.1555,6.1048,6.0196,5.9377,5.8616,5.7963,5.7909,5.8926,6.011,5.8493,5.7891,5.7891,5.7891,5.7891,5.79,5.7924,5.7958,5.8094,5.8853,5.9047,5.9386,6.0908,6.0734,6.0504,6.218,6.205,6.1693,6.2538,6.2697,6.2427,6.1693,0.0,0.0,0.0,0.0,0.0,0.0,0.0,0.0,0.0,6.2816,6.2792,6.2786,6.2829,6.3166,6.3949,6.4781,6.5625,6.6366,6.7217,6.77,6.77,6.77,6.77,6.77,6.77,6.77,6.77,6.77,6.768,6.764,6.6802,6.7215,6.8724,6.7984,6.8981,7.125,7.1287,7.1734,7.2431,7.2394,7.2343,7.2343,7.2343,7.2343,7.2387,7.2467,7.2488,7.2488,6.2793,6.2793,6.2793,0.0,6.2793,6.2793,0.0,0.0,0.0,0.0,6.2793,6.2793,6.2793,6.2793,6.2793,6.2793,6.2793,0.0,0.0,0.0,0.0,6.2793,6.2793,6.2793,6.2793,6.2793,0.0,6.2793,0.0,0.0,6.278,6.2205,6.1922,6.1922,6.1922,6.1471,6.07,6.07,5.9872,5.8528,5.829,5.8424,5.8712,5.8128,5.8529,5.9294,5.8255,5.7891,5.7891,5.7891,5.7891,5.7992,5.8549,5.8718,5.8853,5.9607,5.98,5.9891,6.0313,6.0269,6.0483,6.2187,6.2448,6.2657,6.4042,6.3932,6.3426,6.3239,6.2724,6.2293,6.2293,6.1805,0.0,0.0,0.0,0.0,0.0,0.0,6.276,6.2797,6.3386,6.3613,6.3166,6.4444,6.5405,6.5588,6.6923,6.77,6.77,6.77,6.77,6.77,6.77,6.77,6.77,6.77,6.7385,6.6743,6.6508,6.6559,6.6944,6.8017,6.9157,7.0379,7.0892,7.1283,7.1417,7.0693,7.0417,7.0417,7.0417,7.0417,7.0576,7.1989,7.2488,7.2488,6.2793,0.0,0.0,6.2793,0.0,0.0,6.2793,6.2793,0.0,6.2793,6.2503,0.0,6.2278,6.1962,6.1765,6.1765,6.1765,0.0,6.1765,0.0,0.0,6.1765,6.1765,6.1765,6.1765,6.1765,0.0,6.1765,0.0,0.0,6.1758,6.1308,6.107,6.107,6.107,6.0625,5.9808,5.947,5.8755,5.7891,5.7891,5.8182,0.0,5.8065,5.8386,5.9008,5.8547,5.8161,5.7958,5.8254,5.8389,5.8524,5.9259,5.9462,5.9631,6.0419,6.0612,6.0689,6.1028,6.1105,6.1341,6.2267,6.251,6.2761,6.3644,6.349,6.3195,6.3195,6.283,6.2508,6.2508,6.2178,6.2049,0.0,0.0,0.0,0.0,0.0,0.0,6.3214,6.3715,6.3995,6.3898,6.5074,6.5809,6.5809,6.6996,6.77,6.77,6.77,6.77,6.77,6.77,6.77,6.77,6.7307,6.6888,6.6396,6.5903,6.6055,6.6715,6.7649,6.8711,6.9873,7.0322,7.0493,7.0451,6.9928,6.9708,6.9708,6.9708,6.9707,6.9849,7.0882,7.1272,7.1281,6.2793,0.0,0.0,0.0,0.0,0.0,0.0,6.2624,0.0,6.2624,0.0,6.1463,6.1597,6.0872,6.0381,6.0381,0.0,6.0381,6.0381,6.0381,6.0381,6.0381,6.0381,6.0381,6.0381,6.0407,0.0,0.0,0.0,0.0,6.0403,6.0273,6.0215,6.0219,6.0219,5.9816,5.9044,5.8228,5.7891,5.7891,5.7891,5.7958,5.8026,5.8026,5.849,5.9148,5.9148,5.8718,5.8297,5.8921,5.9148,5.9259,6.0013,6.025,6.0419,6.1197,6.1434,6.1569,6.2221,6.2391,6.2391,6.2391,6.2391,6.2391,6.2391,6.2391,6.2391,6.2391,6.2391,6.2391,6.2391,6.246,6.2524,0.0,0.0,0.0,0.0,0.0,0.0,0.0,6.3913,0.0,6.5055,6.5976,6.6512,6.6512,6.7253,6.77,6.77,6.77,6.77,6.77,6.77,6.7653,6.7522,6.6787,6.6334,6.6169,6.5251,6.5674,6.7261,6.7136,6.8062,6.9699,6.9574,6.9485,6.9476,6.9385,6.9331,6.9331,6.9331,6.9318,6.9322,6.9322,6.9314,6.9346,6.2793,0.0,0.0,0.0,0.0,6.1804,6.1804,6.1804,6.1804,6.1804,6.1099,6.0857,6.1541,6.0872,6.0381,6.0381,6.0381,0.0,0.0,0.0,0.0,6.0381,6.0381,6.0381,6.0381,6.0397,6.041,0.0,0.0,0.0,6.0366,5.9661,5.9316,5.9336,5.9336,5.9245,5.9044,5.8228,5.7891,5.7891,5.7891,5.8254,5.8819,5.8819,5.9268,5.9911,5.9911,5.981,5.9742,5.9877,5.9911,6.0047,6.0858,6.1095,6.1231,6.1985,6.2221,6.2255,6.2357,6.2391,6.2391,6.2391,6.2391,6.2391,6.2391,6.2391,6.2391,6.2391,6.2391,6.2391,6.2391,6.2402,6.243,6.2423,0.0,0.0,0.0,0.0,0.0,0.0,0.0,6.4701,6.4173,6.5571,6.6512,6.6512,6.7253,6.77,6.77,6.77,6.77,6.77,6.77,6.7334,6.6619,6.6478,6.5951,6.509,6.4896,6.563,6.7136,6.7106,6.8062,6.9663,6.8826,6.8458,6.8391,6.7622,6.7315,6.7315,6.7315,6.7308,6.7321,6.7321,6.7316,6.7524,0.0,0.0,0.0,0.0,0.0,6.1307,6.0446,6.0308,6.0468,6.0916,6.0258,5.9853,6.0269,5.959,5.9087,5.9087,5.9087,5.9087,5.9087,5.9087,5.9087,5.9087,5.9087,0.0,5.9087,5.9112,5.9097,5.9097,0.0,0.0,0.0,5.866,5.8478,5.8468,5.8468,5.8468,5.8441,5.8056,5.8127,5.8457,5.8457,5.893,5.9564,5.9564,6.0047,6.0723,6.0723,6.096,6.124,6.0858,6.0723,6.0858,6.1646,6.1873,6.1941,6.2289,6.2391,6.2391,6.2391,6.2391,6.2391,6.2391,6.2391,6.2391,6.2391,6.2391,6.2391,6.2391,6.2391,6.2391,6.2391,6.2391,6.2391,6.2391,6.2391,0.0,0.0,0.0,0.0,0.0,0.0,0.0,6.5145,6.5975,6.6465,6.6486,6.7253,6.77,6.77,6.77,6.77,6.77,6.7251,6.6831,6.6411,6.547,6.4916,6.48,6.4723,6.5304,6.6385,6.6786,6.7398,6.8161,6.7682,6.7461,6.7454,6.6988,6.6802,6.6802,6.6802,6.6802,6.6802,6.6802,6.6802,6.6938,0.0,6.1763,0.0,0.0,6.1193,6.0627,5.9311,5.8934,5.9171,6.0015,5.9377,5.8917,5.9077,5.8388,5.7891,5.7891,5.7891,5.7891,5.7891,5.7891,5.7891,5.7891,5.7891,5.7891,5.7891,5.7891,5.7891,0.0,0.0,5.7891,5.7891,5.7891,5.7891,5.79,5.8072,5.8121,5.8143,5.8281,5.8712,5.9216,5.9216,5.9665,6.0351,6.0351,6.0858,6.1535,6.1535,6.1917,6.2323,6.1738,6.1535,6.1637,6.2221,6.2391,6.2391,6.2391,6.2391,6.2391,6.2391,6.2391,6.2391,6.2391,6.2391,6.2391,6.2391,6.2391,6.2391,6.2391,6.2391,6.2391,6.2391,6.2391,6.2391,6.2391,6.2391,6.2391,0.0,0.0,0.0,0.0,0.0,0.0,6.5685,6.6163,6.641,6.6457,6.7246,6.7633,6.744,6.762,6.7522,6.713,6.6649,6.6201,6.5811,6.4559,6.4214,6.475,6.4802,6.5222,6.5943,6.6531,6.6802,6.6802,6.6802,6.6802,6.6802,6.6802,6.6802,6.6802,6.6802,6.6802,6.6802,6.6802,6.6802,6.6802,0.0,0.0,6.0496,6.0496,5.9872,5.9286,5.9119,5.8468,5.8342,5.9197,5.8546,5.829,5.901,5.8388,5.7891,5.7891,5.7891,5.7891,5.7891,5.7891,5.7891,5.7891,5.7891,5.7891,5.7891,5.7891,5.7891,0.0,0.0,5.7891,5.7891,5.7891,5.7891,5.7934,5.8606,5.889,5.8948,5.9623,5.9938,6.0013,6.0013,6.0486,6.1197,6.1197,6.1637,6.2289,6.2289,6.2357,6.2391,6.2323,6.2289,6.2323,6.2391,6.2391,6.2391,6.2391,6.2391,6.2391,6.2391,6.2391,6.2391,6.2391,6.2391,6.2391,6.2391,6.2391,6.2391,6.2391,6.2391,6.2391,6.2391,6.2391,6.2391,6.2391,6.2391,6.2391,6.2391,0.0,6.243,0.0,0.0,0.0,6.3953,6.5445,6.6398,6.64,6.7207,6.7371,6.656,6.7258,6.6938,6.5302,6.5989,6.5605,6.3954,6.445,6.4652,6.462,6.5274,6.5967,6.67,6.6768,6.6802,6.6802,6.6802,6.6802,6.6802,6.6802,6.6802,6.6802,6.6802,6.6802,6.6802,6.6802,6.6802,6.6802,6.0351,5.9983,5.9623,5.9623,5.9336,5.8951,5.8441,5.8466,5.8696,5.9042,5.8398,5.8002,5.8343,5.8092,5.8072,5.852,5.8157,5.8081,5.852,5.8157,5.7891,5.7891,5.7891,5.7891,5.7891,5.7891,5.7891,0.0,0.0,5.7891,5.79,5.8348,5.8796,5.9236,5.9514,5.9673,5.9671,5.9983,6.0397,6.0836,6.0836,6.1269,6.1951,6.1951,6.2154,6.2391,6.2391,6.2391,6.2391,6.2391,6.2391,6.2391,6.2391,6.2391,6.2391,6.2391,6.2391,6.2391,6.2391,6.2391,6.2391,6.2391,6.2391,6.2391,6.2391,6.2391,6.2391,6.2391,6.2391,6.2391,6.2391,6.2391,6.2391,6.2391,6.2391,6.2391,6.2391,0.0,0.0,0.0,0.0,0.0,6.3647,6.4358,6.5243,6.6336,6.7209,6.7307,6.6449,6.6743,6.6338,6.504,6.486,6.4646,6.4359,6.4132,6.4448,6.5266,6.5571,6.6102,6.6802,6.6802,6.6802,6.6802,6.6802,6.6802,6.6802,6.6802,6.6802,6.6802,6.6802,6.6802,6.6802,6.6802,6.6802,6.6802,5.9574,5.9179,5.8806,5.903,5.9073,5.8949,5.8601,5.8998,5.9327,5.9327,5.8856,5.8555,5.8555,5.8551,5.8753,5.9289,5.8839,5.8787,5.9289,5.8839,5.8563,5.8563,5.8563,5.8563,5.8563,5.8563,5.8563,5.8563,5.8563,5.8563,5.8563,5.9081,5.9617,6.0112,6.0337,6.0453,6.0478,6.067,6.1114,6.1611,6.1611,6.1941,6.2391,6.2391,6.2391,6.2391,6.2391,6.2531,6.2706,6.2706,6.2881,6.2978,6.2531,6.2391,6.2448,6.266,6.2719,6.2774,6.2981,6.3049,6.2981,6.2774,6.2735,6.2661,6.2458,6.2391,6.2391,6.2391,6.2391,6.2391,6.2391,6.2391,6.2391,6.2391,6.2391,6.2391,6.2391,6.2391,0.0,0.0,6.2391,6.2639,6.3249,6.3537,6.4227,6.551,6.642,6.6656,6.6005,6.5974,6.5442,6.4279,6.4091,6.4143,6.4406,6.4228,6.4681,6.5706,6.5909,6.6305,6.6802,6.6802,6.6802,6.6802,6.6802,6.6802,6.6802,6.6802,6.6802,6.6802,6.6802,6.6802,6.6802,6.6802,6.6802,6.6802,5.8074,5.7918,5.8146,5.8863,5.8998,5.9235,5.9945,6.008,6.008,6.008,6.0073,6.008,6.008,6.0065,6.0084,6.0094,6.0084,6.0084,6.0094,6.0084,6.0084,6.0084,6.0084,6.0084,6.0084,6.0084,6.0084,6.0084,6.0084,6.0084,6.0066,6.0073,6.0094,6.0137,6.0914,6.1282,6.1315,6.2042,6.24,6.24,6.24,6.2391,6.2391,6.2391,6.2391,6.2391,6.2391,6.2881,6.3479,6.3479,6.3961,6.4322,6.2847,6.2391,6.2554,6.3276,6.3487,6.3663,6.4365,6.4582,6.4389,6.3654,6.3491,6.3284,6.256,6.2391,6.2391,6.2391,6.2391,6.2391,6.2391,6.2391,6.2391,6.2391,6.2391,6.2391,6.2391,6.2391,0.0,6.2391,6.2391,6.24,6.241,6.3174,6.371,6.3737,6.4555,6.5032,6.5024,6.5016,6.4218,6.2498,6.3961,6.4393,6.3507,6.4962,6.5672,6.5706,6.644,6.6802,6.6802,6.6802,6.6802,6.6802,6.6802,6.6802,6.6802,6.6802,6.6802,6.6802,6.6802,6.6802,6.6802,6.6802,6.6802,6.6802,5.9368,5.9404,5.9471,5.9708,5.9733,5.9844,6.0047,6.0554,6.0902,6.0916,6.1366,6.1661,6.1661,6.0743,6.0319,6.0857,6.042,6.0343,6.0883,6.0386,6.0117,6.0117,6.0117,6.0117,6.0117,6.0117,6.0117,6.0117,6.0117,6.0386,6.0926,6.0911,6.1175,6.1673,6.1935,6.2032,6.2075,6.2303,6.2391,6.2391,6.2391,6.2706,6.3153,6.3153,6.3469,6.3917,6.3917,6.4049,6.4258,6.4255,6.4391,6.4523,6.4063,6.3907,6.3942,6.4179,6.4239,6.4288,6.4539,6.4603,6.4539,6.4302,6.4248,6.4194,6.3936,6.3896,6.3903,6.3903,6.3501,6.3133,6.3149,6.2753,6.2391,6.2391,6.2391,6.2391,6.2391,6.2391,6.2391,6.2391,6.2391,6.2391,6.2391,6.2649,6.3058,6.3656,6.3425,6.3482,6.4095,6.4096,6.3808,6.3165,6.3639,6.4261,6.4996,6.5477,6.594,6.643,6.67,6.6802,6.6802,6.6802,6.6802,6.6802,6.6802,6.6802,6.6802,6.6802,6.6802,6.6802,6.6802,6.6802,6.6802,6.6802,6.6802,6.6802,6.0013,6.0114,6.0216,6.0486,6.0554,6.0655,6.0926,6.14,6.1714,6.1719,6.2106,6.2391,6.2391,6.1543,6.1155,6.1686,6.1264,6.1175,6.1673,6.1252,6.0948,6.0948,6.0948,6.0948,6.0948,6.0948,6.0948,6.0948,6.0948,6.1218,6.1707,6.1707,6.1945,6.2391,6.2391,6.2391,6.2391,6.2391,6.2565,6.2803,6.2803,6.325,6.3922,6.3906,6.4214,6.462,6.462,6.4796,6.5023,6.5024,6.5211,6.5442,6.5442,6.5428,6.5379,6.507,6.4989,6.5062,6.5361,6.5431,6.5346,6.5075,6.5008,6.4948,6.4651,6.4597,6.4613,6.4613,6.4241,6.3913,6.3919,6.3523,6.3228,6.3228,6.2986,6.2821,6.2821,6.256,6.2391,6.2391,6.2391,6.2391,6.2391,6.2651,6.3052,6.3573,6.3392,6.347,6.4002,6.3779,6.3727,6.392,6.4163,6.4776,6.5708,6.5971,6.6336,6.6802,6.6802,6.6802,6.6802,6.6802,6.6802,6.6802,6.6802,6.6802,6.6802,6.6802,6.6802,6.6802,6.6802,6.6802,6.6802,6.6802,6.6802,6.6802,6.025,6.025,6.0486,6.1264,6.1366,6.1603,6.2289,6.2391,6.2391,6.2391,6.2391,6.2391,6.2391,6.2391,6.2391,6.2391,6.2391,6.2391,6.2391,6.2391,6.2391,6.2391,6.2391,6.2391,6.2391,6.2391,6.2391,6.2391,6.2391,6.2391,6.2391,6.2391,6.2391,6.2391,6.2434,6.2478,6.2478,6.2522,6.2934,6.3591,6.3576,6.4038,6.4696,6.4674,6.4715,6.4759,6.4759,6.5178,6.5762,6.5762,6.6215,6.6802,6.6802,6.6802,6.6669,6.5983,6.5762,6.5939,6.6614,6.6802,6.6658,6.5939,6.5762,6.5602,6.4911,6.4749,6.4749,6.4749,6.4718,6.4688,6.4674,6.462,6.461,6.4596,6.4021,6.3579,6.3589,6.3,6.256,6.256,6.2536,6.2536,6.2536,6.3179,6.3575,6.3589,6.4197,6.4616,6.4656,6.4013,6.3986,6.4634,6.5355,6.5729,6.5783,6.6446,6.6802,6.6802,6.6802,6.6802,6.6802,6.6802,6.6802,6.6802,6.6802,6.6802,6.6802,6.6802,6.6802,6.6802,6.6802,6.6802,6.6802,6.6802,6.6802,6.6802,6.1748,6.1849,6.1917,6.212,6.2154,6.2188,6.2357,6.2391,6.2391,6.2391,6.2391,6.2391,6.2391,6.2391,6.2391,6.2391,6.2391,6.2391,6.2391,6.2391,6.2391,6.2391,6.2391,6.2391,6.2391,6.2391,6.2391,6.2391,6.2391,6.2391,6.2391,6.2391,6.2391,6.2434,6.2978,6.3241,6.3284,6.383,6.419,6.4341,6.4346,6.4772,6.5457,6.5438,6.5796,6.6293,6.6293,6.6392,6.6525,6.6525,6.6658,6.6802,6.6802,6.6802,6.6757,6.658,6.6525,6.657,6.6747,6.6802,6.6757,6.657,6.6525,6.6502,6.6318,6.6294,6.6294,6.6294,6.5829,6.5436,6.544,6.499,6.4586,6.4603,6.4451,6.4339,6.4342,6.42,6.4072,6.4072,6.4085,6.4067,6.4067,6.4247,6.4339,6.4329,6.4498,6.4846,6.5391,6.526,6.5274,6.5433,6.5615,6.5985,6.6526,6.6721,6.6802,6.6802,6.6802,6.6802,6.6802,6.6802,6.6802,6.6802,6.6802,6.6802,6.6802,6.6802,6.6802,6.6802,6.6802,6.6802,6.6802,6.6802,6.6802,6.6802,6.2323,6.2391,6.2391,6.2391,6.2391,6.2391,6.2391,6.2706,6.2891,6.2891,6.3197,6.3426,6.3426,6.3426,6.3423,6.3411,6.2799,6.2391,6.2391,6.2391,6.2391,6.2391,6.2391,6.2391,6.2391,6.2391,6.2565,6.2891,6.3241,6.3426,6.3426,6.3426,6.3426,6.3426,6.383,6.3987,6.4039,6.441,6.4773,6.5084,6.5112,6.5531,6.6205,6.6205,6.6437,6.6802,6.6802,6.6802,6.6802,6.6802,6.6802,6.6802,6.6802,6.6802,6.6802,6.6802,6.6802,6.6802,6.6802,6.6802,6.6802,6.6802,6.6802,6.6802,6.6802,6.6802,6.6802,6.6802,6.6481,6.6179,6.619,6.5888,6.5615,6.5621,6.5325,6.5104,6.5093,6.4796,6.4613,6.4613,6.4597,6.4603,6.4603,6.4906,6.5093,6.5094,6.5433,6.5786,6.6194,6.6204,6.6215,6.6213,6.6219,6.6392,6.6802,6.6802,6.6802,6.6802,6.6802,6.6802,6.6802,6.6802,6.6802,6.6802,6.6802,6.6802,6.6802,6.6802,6.6802,6.6802,6.6802,6.6802,6.6802,6.6802,6.6802,6.6802,6.256,6.2661,6.2729,6.2729,6.2729,6.2729,6.2729,6.3249,6.3654,6.3678,6.4214,6.4589,6.4598,6.4594,6.4582,6.4613,6.3455,6.2715,6.274,6.275,6.275,6.275,6.275,6.275,6.275,6.275,6.3041,6.3656,6.4281,6.4598,6.4598,6.4598,6.4598,6.4598,6.473,6.4762,6.4759,6.4892,6.5299,6.5851,6.5851,6.6249,6.6802,6.6802,6.6802,6.6802,6.6802,6.6802,6.6802,6.6802,6.6802,6.6802,6.6802,6.6802,6.6802,6.6802,6.6802,6.6802,6.6802,6.6802,6.6802,6.6802,6.6802,6.6802,6.6802,6.6802,6.6802,6.6802,6.6802,6.6802,6.6802,6.6802,6.6802,6.6802,6.626,6.5851,6.5851,6.5322,6.4942,6.4942,6.4942,6.4942,6.4942,6.5491,6.5854,6.5854,6.6456,6.6802,6.6802,6.6802,6.6802,6.6802,6.6802,6.6802,6.6802,6.6802,6.6802,6.6802,6.6802,6.6802,6.6802,6.6802,6.6802,6.6802,6.6802,6.6802,6.6802,6.6802,6.6802,6.6802,6.6802,6.6802,6.6802,6.6802,6.6802,6.6802,6.3318,6.3825,6.4275,6.4275,6.4275,6.4275,6.4275,6.4352,6.4426,6.4427,6.4549,6.4607,6.4591,6.4588,6.4588,6.4615,6.4399,6.4271,6.4249,6.4268,6.4268,6.4268,6.4268,6.4268,6.4268,6.4268,6.4321,6.4451,6.4539,6.4593,6.4593,6.4593,6.4593,6.4637,6.5265,6.5535,6.5575,6.6205,6.6525,6.6624,6.6624,6.6703,6.6802,6.6802,6.6802,6.6802,6.6802,6.6802,6.6802,6.6802,6.6802,6.6802,6.6802,6.6802,6.6802,6.6802,6.6802,6.6802,6.6802,6.6802,6.6802,6.6802,6.6802,6.6802,6.6802,6.6802,6.6802,6.6802,6.6802,6.6802,6.6802,6.6802,6.6802,6.6802,6.6703,6.6624,6.6624,6.6544,6.6464,6.6464,6.6464,6.6464,6.6464,6.6552,6.6641,6.6641,6.6755,6.6802,6.6802,6.6802,6.6802,6.6802,6.6802,6.6802,6.6802,6.6802,6.6802,6.6802,6.6802,6.6802,6.6802,6.6802,6.6802,6.6802,6.6802,6.6802,6.6802,6.6802,6.6802,6.6802,6.6802,6.6802,6.6802,6.6802,6.6802,6.6802,6.4096,6.4377,6.4613,6.4613,6.4613,6.46,6.4593,6.4955,6.5192,6.5207,6.5542,6.5792,6.5783,6.5766,6.5797,6.5773,6.5785,6.5792,6.5797,6.5047,6.4607,6.4607,6.4607,6.4607,6.4607,6.5003,6.5194,6.5178,6.5575,6.5762,6.5762,6.5762,6.5762,6.5807,6.6127,6.6293,6.6304,6.6658,6.6802,6.6802,6.6802,6.6802,6.6802,6.6802,6.6802,6.6802,6.6802,6.6802,6.6802,6.6802,6.6802,6.6802,6.6802,6.6802,6.6802,6.6802,6.6802,6.6802,6.6802,6.6802,6.6802,6.6802,6.6802,6.6802,6.6802,6.6802,6.6802,6.6802,6.6802,6.6802,6.6802,6.6802,6.6802,6.6802,6.6802,6.6802,6.6802,6.6802,6.6802,6.6802,6.6802,6.6802,6.6802,6.6802,6.6802,6.6802,6.6802,6.6802,6.6802,6.6802,6.6802,6.6802,6.6802,6.6802,6.6802,6.6802,6.6802,6.6802,6.6802,6.6802,6.6802,6.6802,6.6802,6.6802,6.6802,6.6802,6.6802,6.6802,6.6802,6.6802,6.6802,6.6802,6.6802,6.6802,6.6802,6.6802,6.485,6.4986,6.5121,6.5121,6.5121,6.5118,6.5098,6.56,6.597,6.5956,6.6462,6.6802,6.6802,6.6802,6.6802,6.6802,6.6802,6.6802,6.6802,6.5752,6.5123,6.5123,6.5123,6.5123,6.5123,6.5663,6.5939,6.5939,6.6525,6.6802,6.6802,6.6802,6.6802,6.6802,6.6802,6.6802,6.6802,6.6802,6.6802,6.6802,6.6802,6.6802,6.6802,6.6802,6.6802,6.6802,6.6802,6.6802,6.6802,6.6802,6.6802,6.6802,6.6802,6.6802,6.6802,6.6802,6.6802,6.6802,6.6802,6.6802,6.6802,6.6802,6.6802,6.6802,6.6802,6.6802,6.6802,6.6802,6.6802,6.6802,6.6802,6.6802,6.6802,6.6802,6.6802,6.6802,6.6802,6.6802,6.6802,6.6802,6.6802,6.6802,6.6802,6.6802,6.6802,6.6802,6.6802,6.6802,6.6802,6.6802,6.6802,6.6802,6.6802,6.6802,6.6802,6.6802,6.6802,6.6802,6.6802,6.6802,6.6802,6.6802,6.6802,6.6802,6.6802,6.6802,6.6802,6.6802,6.6802,6.6802,6.6802,6.6802,6.6802,6.6802,6.6802,6.6802,6.5605,6.617,6.6633,6.6633,6.6633,6.6633,6.6643,6.6677,6.6732,6.6719,6.6755,6.6802,6.6802,6.6802,6.6802,6.6802,6.6802,6.6802,6.6802,6.6703,6.6658,6.6658,6.6658,6.6658,6.6658,6.6703,6.6713,6.6713,6.6757,6.6802,6.6802,6.6802,6.6802,6.6802,6.6802,6.6802,6.6802,6.6802,6.6802,6.6802,6.6802,6.6802,6.6802,6.6802,6.6802,6.6802,6.6802,6.6802,6.6802,6.6802,6.6802,6.6802,6.6802,6.6802,6.6802,6.6802,6.6802,6.6802,6.6802,6.6802,6.6802,6.6802,6.6802,6.6802,6.6802,6.6802,6.6802,6.6802,6.6802,6.6802,6.6802,6.6802,6.6802,6.6802,6.6802,6.6802,6.6802,6.6802,6.6802,6.6802,6.6802,6.6802,6.6802,6.6802,6.6802,6.6802,6.6802,6.6802,6.6802,6.6802,6.6802,6.6802,6.6802,6.6802,6.6802,6.6802,6.6802,6.6802,6.6802,6.6802,6.6802,6.6802,6.6802,6.6802,6.6802,6.6802,6.6802,6.6802,6.6802,6.6802,6.6802,6.6802,6.6802,6.6802,6.6802,6.6802,6.6373,6.6599,6.6802,6.6802,6.6802,6.6802,6.6802,6.6802,6.6802,6.6802,6.6802,6.6802,6.6802,6.6802,6.6802,6.6802,6.6802,6.6802,6.6802,6.6802,6.6802,6.6802,6.6802,6.6802,6.6802,6.6802,6.6802,6.6802,6.6802,6.6802,6.6802,6.6802,6.6802,6.6802,6.6802,6.6802,6.6802,6.6802,6.6802,6.6802,6.6802,6.6802,6.6802,6.6802,6.6802,6.6802,6.6802,6.6802,6.6802,6.6802,6.6802,6.6802,6.6802,6.6802,6.6802,6.6802,6.6802,6.6802,6.6802,6.6802,6.6802,6.6802,6.6802,6.6802,6.6802,6.6802,6.6802,6.6802,6.6802,6.6802,6.6802,6.6802,6.6802,6.6802,6.6802,6.6802,6.6802,6.6802,6.6802,6.6802,6.6802,6.6802,6.6802,6.6802,6.6802,6.6802,6.6802,6.6802,6.6802,6.6802,6.6802,6.6802,6.6802,6.6802,6.6802,6.6802,6.6802,6.6802,6.6802,6.6802,6.6802,6.6802,6.6802,6.6802,6.6802,6.6802,6.6802,6.6802,6.6802,6.6802,6.6802,6.6802,6.6802,6.6802,6.6802,6.6802,6.6802,6.6802,6.6802,6.6802,6.6802,6.6802,6.6802,6.6802,6.6802,6.6802,6.6802,6.6802,6.6802,6.6802,6.6802,6.6802,6.6802,6.6802,6.6802,6.6802,6.6802,6.6802,6.6802,6.6802,6.6802,6.6802,6.6802,6.6802,6.6802,6.6802,6.6802,6.6802,6.6802,6.6802,6.6802,6.6802,6.6802,6.6802,6.6802,6.6802,6.7068,6.7157,6.7157,6.7434,6.7523,6.7523,6.7523,6.7523,6.7523,6.7523,6.7523,6.7523,6.7523,6.7523,6.7523,6.7523,6.7523,6.7523,6.7523,6.7523,6.7423,6.6924,6.6802,6.6802,6.6802,6.6802,6.6802,6.6802,6.6802,6.6802,6.6802,6.6802,6.6802,6.6802,6.6802,6.6802,6.6802,6.6802,6.6802,6.6802,6.6802,6.6802,6.6802,6.6802,6.6802,6.6802,6.6802,6.6802,6.6802,6.6802,6.6802,6.6802,6.6802,6.6802,6.6802,6.6802,6.6802,6.6802,6.6802,6.6802,6.6802,6.6802,6.6802,6.6802,6.6802,6.6802,6.6802,6.6802,6.6802,6.6802,6.6802,6.6802,6.6802,6.6802,6.6802,6.6802,6.6802,6.6802,6.6802,6.6802,6.6802,6.6802,6.6802,6.6802,6.6802,6.6802,6.6802,6.6802,6.6802,6.6802,6.6802,6.6802,6.6802,6.6802,6.6802,6.6802,6.6802,6.6802,6.6802,6.6802,6.6802,6.6802,6.6802,6.6802,6.6802,6.6802,6.6802,6.6802,6.6802,6.6802,6.6802,6.6802,6.6802,6.6802,6.6802,6.6891,6.7612,6.7912,6.8001,6.8803,6.9081,6.9081,6.9081,6.9081,6.9081,6.9081,6.9081,6.9081,6.9081,6.9081,6.9081,6.9081,6.9081,6.9081,6.9081,6.9081,6.8724,6.7201,6.6802,6.6802,6.6802,6.6802,6.6802,6.6802,6.6802,6.6802,6.6802,6.6802,6.6802,6.6802,6.6802,6.6802,6.6802,6.6802,6.6802,6.6802,6.6802,6.6802,6.6802,6.6802,6.6802,6.6802,6.6802,6.6802,6.6802,6.6802,6.6802,6.6802,6.6802,6.6802,6.6802,6.6802,6.6802,6.6802,6.6802,6.6802,6.6802,6.6802,6.6802,6.6802,6.6802,6.6802,6.6802,6.6802,6.6802,6.6802,6.6802,6.6802,6.6802,6.6802,6.6802,6.6802,6.6802,6.6802,6.6802,6.6802,6.6802,6.6802,6.6802,6.6802,6.6802,6.6802,6.6802,6.6802,6.6802,6.6802,6.6802,6.6802,6.6802,6.6802,6.6802,6.6802,6.6802,6.6802,6.6802,6.6802,6.6802,6.6802,6.6802,6.6802,6.6802,6.6802,6.6802,6.6802,6.7068,6.7567,6.7567,6.7878,6.8413,6.8413,6.8413,6.8423,6.8646,6.8722,6.8772,6.8996,6.9085,6.9085,6.9085,6.9085,6.9085,6.9085,6.9085,6.9085,6.9085,6.9085,6.9085,6.9085,6.9085,6.9085,6.9085,6.9085,6.8982,6.8511,6.8413,6.8413,6.8413,6.8413,6.8413,6.8413,6.8413,6.8234,6.769,6.7567,6.7389,6.6891,6.6802,6.6802,6.6802,6.6802,6.6802,6.6802,6.6802,6.6802,6.6802,6.6802,6.6802,6.6802,6.729,6.7567,6.7567,6.8101,6.8413,6.8413,6.8413,6.8413,6.8413,6.7334,6.6802,6.6802,6.6802,6.6802,6.6802,6.6802,6.6802,6.6802,6.6802,6.6802,6.6802,6.6802,6.6802,6.6802,6.6802,6.6802,6.6802,6.6802,6.6802,6.6802,6.6802,6.6802,6.6802,6.6802,6.6802,6.6802,6.6802,6.6802,6.6802,6.6802,6.6802,6.6802,6.6802,6.6802,6.6927,6.721,6.7535,6.7715,6.7715,6.7718,6.7705,6.7726,6.7728,6.7567,6.7246,6.7557,6.77,6.77,6.77,6.77,6.77,6.77,6.7967,6.8357,6.8365,6.8639,6.9097,6.9097,6.9097,6.913,6.941,6.9542,6.957,6.985,6.9985,6.9985,6.9985,6.9985,6.9985,6.9985,6.9985,6.9985,6.9985,6.9985,6.9985,6.9985,6.9985,6.9985,6.9985,6.9985,6.9951,6.9974,6.9533,6.9097,6.9097,6.9097,6.9097,6.9097,6.9097,6.8952,6.8461,6.8381,6.8234,6.7789,6.77,6.77,6.77,6.77,6.77,6.77,6.77,6.77,6.77,6.77,6.77,6.77,6.8111,6.8377,6.8382,6.8829,6.9097,6.9097,6.9097,6.9097,6.9097,6.8182,6.7708,6.77,6.77,6.77,6.77,6.77,6.77,6.77,6.7379,6.7246,6.7201,6.6924,6.6802,6.6802,6.6802,6.6802,6.6802,6.6802,6.6802,6.6802,6.6802,6.6802,6.6802,6.6802,6.6802,6.6802,6.6802,6.6802,6.6836,6.6903,6.6903,6.6937,6.7005,6.7005,6.7288,6.7955,6.8663,6.908,6.9092,6.9111,6.911,6.9114,6.9167,6.8865,6.8108,6.8776,6.9099,6.9099,6.9099,6.9099,6.9099,6.9099,6.9144,6.9191,6.9187,6.9222,6.9301,6.9301,6.9301,6.9357,7.003,7.0299,7.0389,7.103,7.13,7.13,7.13,7.13,7.13,7.13,7.13,7.13,7.13,7.13,7.13,7.13,7.13,7.13,7.13,7.13,7.13,7.13,7.0299,6.9301,6.9301,6.9301,6.9301,6.9301,6.9301,6.9267,6.9211,6.9202,6.9178,6.9099,6.9099,6.9099,6.9099,6.9099,6.9099,6.9099,6.9099,6.9099,6.9099,6.9099,6.9099,6.9099,6.9144,6.9195,6.9211,6.9256,6.9301,6.9301,6.9301,6.9301,6.9301,6.9301,6.9231,6.9099,6.9099,6.9099,6.9099,6.9099,6.9099,6.9054,6.833,6.8016,6.7967,6.7201,6.6891,6.6891,6.6836,6.6802,6.6802,6.6802,6.6802,6.6802,6.6802,6.6802,6.6802,6.6802,6.6802,6.6802,6.6802,6.6802,6.7005,6.759,6.7658,6.7895,6.8527,6.8594,6.8662,6.882,6.8992,6.9096,6.9088,6.9121,6.9087,6.911,6.9659,6.986,6.9725,6.9311,6.9087,6.9087,6.9087,6.9087,6.9087,6.9087,6.9411,6.9949,6.9951,7.0299,7.0805,7.0805,7.0805,7.0839,7.0985,7.1064,7.1075,7.1244,7.13,7.13,7.13,7.13,7.13,7.13,7.13,7.13,7.13,7.13,7.13,7.13,7.13,7.13,7.13,7.13,7.13,7.13,7.1064,7.0805,7.0805,7.0805,7.0805,7.0805,7.0805,7.0659,7.0075,6.9939,6.977,6.9188,6.9087,6.9087,6.9087,6.9087,6.9087,6.9087,6.9087,6.9087,6.9087,6.9087,6.9087,6.9087,6.9635,6.995,6.9951,7.0524,7.0805,7.0805,7.0805,7.0805,7.0805,7.0805,7.0232,6.9087,6.9087,6.9087,6.9087,6.9087,6.9087,6.9087,6.8908,6.8822,6.878,6.7978,6.7656,6.7601,6.7024,6.6802,6.6802,6.6802,6.6802,6.6802,6.7242,6.7309,6.7444,6.7817,6.7884,6.7884,6.7884,6.7884,6.8053,6.8436,6.847,6.8639,6.9045,6.9113,6.9248,6.9586,6.9937,7.0141,7.0131,7.0164,7.0164,7.0164,7.0524,7.0715,7.0715,7.0344,7.0164,7.0164,7.0164,7.0164,7.0164,7.0164,7.0355,7.0715,7.0715,7.094,7.13,7.13,7.13,7.13,7.13,7.13,7.13,7.13,7.13,7.13,7.13,7.13,7.13,7.13,7.13,7.13,7.13,7.13,7.13,7.13,7.13,7.13,7.13,7.13,7.13,7.13,7.13,7.13,7.13,7.13,7.13,7.13,7.13,7.1165,7.0794,7.0715,7.0614,7.0209,7.0164,7.0164,7.0164,7.0164,7.0164,7.0164,7.0164,7.0164,7.0164,7.0164,7.0164,7.0164,7.0524,7.0715,7.0715,7.1075,7.13,7.13,7.13,7.13,7.13,7.13,7.0895,7.0164,7.0164,7.0164,7.0164,7.0164,7.0164,7.012,6.976,6.9613,6.9559,6.8788,6.8255,6.7878,6.7478,6.7112,6.6802,6.6802,6.6802,6.6802,6.7996,6.8098,6.8335,6.8977,6.9113,6.9113,6.9113,6.9113,6.9147,6.9282,6.9282,6.935,6.9451,6.9485,6.9722,7.0342,7.0962,7.13,7.13,7.13,7.13,7.13,7.13,7.13,7.13,7.13,7.13,7.13,7.13,7.13,7.13,7.13,7.13,7.13,7.13,7.13,7.13,7.13,7.13,7.13,7.13,7.13,7.13,7.13,7.13,7.13,7.13,7.13,7.13,7.13,7.13,7.13,7.13,7.13,7.13,7.13,7.13,7.13,7.13,7.13,7.13,7.13,7.13,7.13,7.13,7.13,7.13,7.13,7.13,7.13,7.13,7.13,7.13,7.13,7.13,7.13,7.13,7.13,7.13,7.13,7.13,7.13,7.13,7.13,7.13,7.13,7.13,7.13,7.13,7.13,7.13,7.13,7.13,7.13,7.13,7.13,7.13,7.13,7.13,7.13,7.13,7.13,7.13,7.1255,7.0659,7.0389,7.0344,6.9581,6.8895,6.8269,6.7993,6.7523,6.6979,6.6846,6.6802,6.6802,6.891,6.8944,6.8977,6.9079,6.9113,6.9113,6.9113,6.9113,6.9316,6.9969,7.0037,7.0297,7.0928,7.0996,7.103,7.1131,7.1233,7.13,7.13,7.13,7.13,7.13,7.13,7.13,7.13,7.13,7.13,7.13,7.13,7.13,7.13,7.13,7.13,7.13,7.13,7.13,7.13,7.13,7.13,7.13,7.13,7.13,7.13,7.13,7.13,7.13,7.13,7.13,7.13,7.13,7.13,7.13,7.13,7.13,7.13,7.13,7.13,7.13,7.13,7.13,7.13,7.13,7.13,7.13,7.13,7.13,7.13,7.13,7.13,7.13,7.13,7.13,7.13,7.13,7.13,7.13,7.13,7.13,7.13,7.13,7.13,7.13,7.13,7.13,7.13,7.13,7.13,7.13,7.13,7.13,7.13,7.13,7.13,7.13,7.13,7.13,7.13,7.13,7.13,7.13,7.13,7.13,7.13,7.1289,7.1199,7.1154,7.1075,7.0355,6.9985,6.977,6.844,6.7834,6.7656,6.7024,6.6802,6.6802,6.962,6.9722,6.9823,7.0252,7.0319,7.0319,7.0319,7.0319,7.0455,7.077,7.0804,7.0939,7.1267,7.13,7.13,7.13,7.13,7.13,7.13,7.13,7.13,7.13,7.13,7.13,7.13,7.13,7.13,7.13,7.13,7.13,7.13,7.13,7.13,7.13,7.13,7.13,7.13,7.13,7.13,7.13,7.13,7.13,7.13,7.13,7.13,7.13,7.13,7.13,7.13,7.13,7.13,7.13,7.13,7.13,7.13,7.13,7.13,7.13,7.13,7.13,7.13,7.13,7.13,7.13,7.13,7.13,7.13,7.13,7.13,7.13,7.13,7.13,7.13,7.13,7.13,7.13,7.13,7.13,7.13,7.13,7.13,7.13,7.13,7.13,7.13,7.13,7.13,7.13,7.13,7.13,7.13,7.13,7.13,7.13,7.13,7.13,7.13,7.13,7.13,7.13,7.13,7.13,7.13,7.13,7.13,7.13,7.1255,7.094,7.0569,7.0075,6.8995,6.8056,6.7246,6.6924,6.6802,6.6802]},{"header":{"parameterUnit":"m.s-1","parameterCategory":1,"la1":30.6,"la2":28.766,"lo1":-90.7593,"lo2":-88.6598,"dy":0.0162,"dx":0.0183,"nx":116,"ny":114,"refTime":"2023-11-22T06:00:00:Z","depth":0,"parameterNumber":3,"parameterNumberName":"V-component_of_WINDS"},"data":[0.0,0.0,0.0,0.0,0.0,0.0,0.0,0.0,0.0,0.0,0.0,0.0,0.0,0.0,0.0,0.0,0.0,0.0,0.0,0.0,0.0,0.0,0.0,0.0,0.0,0.0,0.0,0.0,0.0,0.0,0.0,0.0,0.0,0.0,0.0,0.0,0.0,0.0,0.0,0.0,0.0,0.0,0.0,0.0,0.0,0.0,0.0,0.0,0.0,0.0,0.0,0.0,0.0,0.0,0.0,0.0,0.0,0.0,0.0,0.0,0.0,0.0,0.0,0.0,0.0,0.0,0.0,0.0,0.0,0.0,0.0,0.0,0.0,0.0,0.0,0.0,0.0,0.0,0.0,0.0,0.0,0.0,0.0,0.0,0.0,0.0,0.0,0.0,0.0,0.0,0.0,0.0,0.0,0.0,0.0,0.0,0.0,0.0,0.0,0.0,0.0,0.0,0.0,0.0,0.0,0.0,0.0,0.0,0.0,0.0,0.0,0.0,0.0,0.0,0.0,0.0,0.0,0.0,0.0,0.0,0.0,0.0,0.0,0.0,0.0,0.0,0.0,0.0,0.0,0.0,0.0,0.0,0.0,0.0,0.0,0.0,0.0,0.0,0.0,0.0,0.0,0.0,0.0,0.0,0.0,0.0,0.0,0.0,0.0,0.0,0.0,0.0,0.0,0.0,0.0,0.0,0.0,0.0,0.0,0.0,0.0,0.0,0.0,0.0,0.0,0.0,0.0,0.0,0.0,0.0,0.0,0.0,0.0,0.0,0.0,0.0,0.0,0.0,0.0,0.0,0.0,0.0,0.0,0.0,0.0,0.0,0.0,0.0,0.0,0.0,0.0,0.0,0.0,0.0,0.0,0.0,0.0,0.0,0.0,0.0,0.0,0.0,0.0,0.0,0.0,0.0,0.0,0.0,0.0,0.0,0.0,0.0,0.0,0.0,0.0,0.0,0.0,0.0,0.0,0.0,0.0,0.0,0.0,0.0,0.0,0.0,0.0,0.0,0.0,0.0,0.0,0.0,0.0,0.0,0.0,0.0,0.0,0.0,0.0,0.0,0.0,0.0,0.0,0.0,0.0,0.0,0.0,0.0,0.0,0.0,0.0,0.0,0.0,0.0,0.0,0.0,0.0,0.0,0.0,0.0,0.0,0.0,0.0,0.0,0.0,0.0,0.0,0.0,0.0,0.0,0.0,0.0,0.0,0.0,0.0,0.0,0.0,0.0,0.0,0.0,0.0,0.0,0.0,0.0,0.0,0.0,0.0,0.0,0.0,0.0,0.0,0.0,0.0,0.0,0.0,0.0,0.0,0.0,0.0,0.0,0.0,0.0,0.0,0.0,0.0,0.0,0.0,0.0,0.0,0.0,0.0,0.0,0.0,0.0,0.0,0.0,0.0,0.0,0.0,0.0,0.0,0.0,0.0,0.0,0.0,0.0,0.0,0.0,0.0,0.0,0.0,0.0,0.0,0.0,0.0,0.0,0.0,0.0,0.0,0.0,0.0,0.0,0.0,0.0,0.0,0.0,0.0,0.0,0.0,0.0,0.0,0.0,0.0,0.0,0.0,0.0,0.0,0.0,0.0,0.0,0.0,0.0,0.0,0.0,0.0,0.0,0.0,0.0,0.0,0.0,0.0,0.0,0.0,0.0,0.0,0.0,0.0,0.0,0.0,0.0,0.0,0.0,0.0,0.0,0.0,0.0,0.0,0.0,0.0,0.0,0.0,0.0,0.0,0.0,0.0,0.0,0.0,0.0,0.0,0.0,0.0,0.0,0.0,0.0,0.0,0.0,0.0,0.0,0.0,0.0,0.0,0.0,0.0,0.0,0.0,0.0,0.0,0.0,0.0,0.0,0.0,0.0,0.0,0.0,0.0,0.0,0.0,0.0,0.0,0.0,0.0,0.0,0.0,0.0,0.0,0.0,0.0,0.0,0.0,0.0,0.0,0.0,0.0,0.0,0.0,0.0,0.0,0.0,0.0,0.0,0.0,0.0,0.0,0.0,0.0,0.0,0.0,0.0,0.0,0.0,0.0,0.0,0.0,0.0,0.0,0.0,0.0,0.0,0.0,0.0,0.0,0.0,0.0,0.0,0.0,0.0,0.0,0.0,0.0,0.0,0.0,0.0,0.0,0.0,0.0,0.0,0.0,0.0,0.0,0.0,0.0,0.0,0.0,0.0,0.0,0.0,0.0,0.0,0.0,0.0,0.0,0.0,0.0,0.0,0.0,0.0,0.0,0.0,0.0,0.0,0.0,0.0,0.0,0.0,0.0,0.0,0.0,0.0,0.0,0.0,0.0,0.0,0.0,0.0,0.0,0.0,0.0,0.0,0.0,0.0,0.0,0.0,0.0,0.0,0.0,0.0,0.0,0.0,0.0,0.0,0.0,0.0,0.0,0.0,0.0,0.0,0.0,0.0,0.0,0.0,0.0,0.0,0.0,0.0,0.0,0.0,0.0,0.0,0.0,0.0,0.0,0.0,0.0,0.0,0.0,0.0,0.0,0.0,0.0,0.0,0.0,0.0,0.0,0.0,0.0,0.0,0.0,0.0,0.0,0.0,0.0,0.0,0.0,0.0,0.0,0.0,0.0,0.0,0.0,0.0,0.0,0.0,0.0,0.0,0.0,0.0,0.0,0.0,0.0,0.0,0.0,0.0,0.0,0.0,0.0,0.0,0.0,0.0,0.0,0.0,0.0,0.0,0.0,0.0,0.0,0.0,0.0,0.0,0.0,0.0,0.0,0.0,0.0,0.0,0.0,0.0,0.0,0.0,0.0,0.0,0.0,0.0,0.0,0.0,0.0,0.0,0.0,0.0,0.0,0.0,0.0,0.0,0.0,0.0,0.0,0.0,0.0,0.0,0.0,0.0,0.0,0.0,0.0,0.0,0.0,0.0,0.0,0.0,0.0,0.0,0.0,0.0,0.0,0.0,0.0,0.0,0.0,0.0,0.0,0.0,0.0,0.0,0.0,0.0,0.0,0.0,0.0,0.0,0.0,0.0,0.0,0.0,0.0,0.0,0.0,0.0,0.0,0.0,0.0,0.0,0.0,0.0,0.0,0.0,0.0,0.0,0.0,0.0,0.0,0.0,0.0,0.0,0.0,0.0,0.0,0.0,0.0,0.0,0.0,0.0,0.0,0.0,0.0,0.0,0.0,0.0,0.0,0.0,0.0,0.0,0.0,0.0,0.0,0.0,0.0,0.0,0.0,0.0,0.0,0.0,0.0,0.0,0.0,0.0,0.0,0.0,0.0,0.0,0.0,0.0,0.0,0.0,0.0,0.0,0.0,0.0,0.0,0.0,0.0,0.0,0.0,0.0,0.0,0.0,0.0,0.0,0.0,0.0,0.0,0.0,0.0,0.0,0.0,0.0,0.0,0.0,0.0,0.0,0.0,0.0,0.0,0.0,0.0,0.0,0.0,0.0,0.0,0.0,0.0,0.0,0.0,0.0,0.0,0.0,0.0,0.0,0.0,0.0,0.0,0.0,0.0,0.0,0.0,0.0,0.0,0.0,0.0,0.0,0.0,0.0,0.0,0.0,0.0,0.0,0.0,0.0,0.0,0.0,0.0,0.0,0.0,0.0,0.0,0.0,0.0,0.0,0.0,0.0,0.0,0.0,0.0,0.0,0.0,0.0,0.0,0.0,0.0,0.0,0.0,0.0,0.0,0.0,0.0,0.0,0.0,0.0,0.0,0.0,0.0,0.0,0.0,0.0,0.0,0.0,0.0,0.0,0.0,0.0,0.0,0.0,0.0,0.0,0.0,0.0,0.0,0.0,0.0,0.0,0.0,0.0,0.0,0.0,0.0,0.0,0.0,0.0,0.0,0.0,0.0,0.0,0.0,0.0,0.0,0.0,0.0,0.0,0.0,0.0,0.0,0.0,0.0,0.0,0.0,0.0,0.0,0.0,0.0,0.0,0.0,0.0,0.0,0.0,0.0,0.0,0.0,0.0,0.0,0.0,0.0,0.0,0.0,0.0,0.0,0.0,0.0,0.0,0.0,0.0,0.0,0.0,0.0,0.0,0.0,0.0,0.0,0.0,0.0,0.0,0.0,0.0,0.0,0.0,0.0,0.0,0.0,0.0,0.0,0.0,0.0,0.0,0.0,0.0,0.0,0.0,0.0,0.0,0.0,0.0,0.0,0.0,0.0,0.0,0.0,0.0,0.0,0.0,0.0,0.0,0.0,0.0,0.0,0.0,0.0,0.0,0.0,0.0,0.0,0.0,0.0,0.0,0.0,0.0,0.0,0.0,0.0,0.0,0.0,0.0,0.0,0.0,0.0,0.0,0.0,0.0,0.0,0.0,0.0,0.0,0.0,0.0,0.0,0.0,0.0,0.0,0.0,0.0,0.0,0.0,0.0,0.0,0.0,0.0,0.0,0.0,0.0,0.0,0.0,0.0,0.0,0.0,0.0,0.0,0.0,0.0,0.0,0.0,0.0,0.0,0.0,0.0,0.0,0.0,0.0,0.0,0.0,0.0,0.0,0.0,0.0,0.0,0.0,0.0,0.0,0.0,0.0,0.0,0.0,0.0,0.0,0.0,0.0,0.0,0.0,0.0,0.0,0.0,0.0,0.0,0.0,0.0,0.0,0.0,0.0,0.0,0.0,0.0,0.0,0.0,0.0,0.0,0.0,0.0,0.0,0.0,0.0,0.0,0.0,0.0,0.0,0.0,0.0,0.0,0.0,0.0,0.0,0.0,0.0,0.0,0.0,0.0,0.0,0.0,0.0,0.0,0.0,0.0,0.0,0.0,0.0,0.0,0.0,0.0,0.0,0.0,0.0,0.0,0.0,0.0,0.0,0.0,0.0,0.0,0.0,0.0,0.0,0.0,0.0,0.0,0.0,0.0,0.0,0.0,0.0,0.0,0.0,0.0,0.0,0.0,0.0,0.0,0.0,0.0,0.0,0.0,0.0,0.0,0.0,0.0,0.0,0.0,0.0,0.0,0.0,0.0,0.0,0.0,0.0,0.0,0.0,0.0,0.0,0.0,0.0,0.0,0.0,0.0,0.0,0.0,0.0,0.0,0.0,0.0,0.0,0.0,0.0,0.0,0.0,0.0,0.0,0.0,0.0,0.0,0.0,0.0,0.0,0.0,0.0,0.0,0.0,0.0,0.0,0.0,0.0,0.0,0.0,0.0,0.0,0.0,0.0,0.0,0.0,0.0,0.0,0.0,0.0,0.0,0.0,0.0,0.0,0.0,0.0,0.0,0.0,0.0,0.0,0.0,0.0,0.0,0.0,0.0,0.0,0.0,0.0,0.0,0.0,0.0,0.0,0.0,0.0,0.0,0.0,0.0,0.0,0.0,0.0,0.0,0.0,0.0,0.0,0.0,0.0,0.0,0.0,0.0,0.0,0.0,0.0,0.0,0.0,0.0,0.0,0.0,0.0,0.0,0.0,0.0,0.0,0.0,0.0,0.0,0.0,0.0,0.0,0.0,0.0,0.0,0.0,0.0,0.0,0.0,0.0,0.0,0.0,0.0,0.0,0.0,0.0,0.0,0.0,0.0,0.0,0.0,0.0,0.0,0.0,0.0,0.0,0.0,0.0,0.0,0.0,0.0,0.0,0.0,0.0,0.0,0.0,0.0,0.0,0.0,0.0,0.0,0.0,0.0,0.0,0.0,0.0,0.0,0.0,0.0,0.0,0.0,0.0,0.0,0.0,0.0,0.0,0.0,0.0,0.0,0.0,0.0,0.0,0.0,0.0,0.0,0.0,0.0,0.0,0.0,0.0,0.0,0.0,0.0,0.0,0.0,0.0,0.0,0.0,0.0,0.0,0.0,0.0,0.0,0.0,0.0,0.0,0.0,0.0,0.0,0.0,0.0,0.0,0.0,0.0,0.0,0.0,0.0,0.0,0.0,0.0,0.0,0.0,0.0,0.0,0.0,0.0,0.0,0.0,0.0,0.0,0.0,0.0,0.0,0.0,0.0,0.0,0.0,0.0,0.0,0.0,0.0,0.0,0.0,0.0,0.0,0.0,0.0,0.0,0.0,0.0,0.0,0.0,0.0,0.0,0.0,0.0,0.0,0.0,0.0,0.0,0.0,0.0,0.0,0.0,0.0,0.0,0.0,0.0,0.0,0.8899,0.8899,0.0,0.0,0.0,0.0,0.0,0.0,0.0,0.0,0.0,0.0,0.0,0.0,0.0,0.0,0.0,0.0,0.0,0.0,0.0,0.0,0.0,0.0,0.0,0.0,0.0,0.0,0.0,0.0,0.0,0.0,0.0,0.0,0.0,0.0,0.0,0.0,0.0,0.0,0.8001,0.8001,0.8001,0.8001,0.8001,0.8001,0.0,0.0,0.0,0.0,0.0,0.0,0.0,0.0,0.0,0.0,0.0,0.0,0.0,0.0,0.0,0.0,0.0,0.0,0.0,0.0,0.0,0.0,0.0,0.0,0.0,0.0,0.0,0.0,0.0,0.0,0.0,0.0,0.0,0.0,0.0,0.0,0.0,0.0,0.0,0.0,0.0,0.0,0.0,0.0,0.0,0.0,0.0,0.0,0.0,0.0,0.0,0.0,0.0,0.0,0.0,0.0,0.0,0.0,0.0,0.0,0.0,0.0,0.0,0.0,0.0,0.0,0.0,0.0,0.0,0.0,0.8901,0.8895,0.0,0.0,0.0,0.0,0.0,0.0,0.0,0.0,0.0,0.0,0.0,0.0,0.0,0.0,0.0,0.0,0.0,0.0,0.0,0.0,0.0,0.0,0.0,0.8001,0.8001,0.8001,0.8001,0.8001,0.0,0.0,0.0,0.0,0.0,0.0,0.8001,0.8001,0.8001,0.8001,0.8001,0.8001,0.8001,0.8001,0.8001,0.8001,0.8001,0.0,0.0,0.0,0.0,0.0,0.0,0.0,0.0,0.0,0.0,0.0,0.0,0.0,0.0,0.0,0.0,0.0,0.0,0.0,0.0,0.0,0.0,0.0,0.0,0.0,0.0,0.0,0.0,0.0,0.0,0.0,0.0,0.0,0.0,0.0,0.0,0.0,0.0,0.0,0.0,0.0,0.0,0.0,0.0,0.0,0.0,0.0,0.0,0.0,0.0,0.0,0.0,0.0,0.0,0.0,0.0,0.0,0.0,0.0,0.0,0.0,0.0,0.0,0.8904,0.8957,0.9063,0.9054,0.9055,0.9063,0.9051,0.8998,0.8892,0.8895,0.0,0.0,0.0,0.0,0.0,0.0,0.0,0.0,0.0,0.0,0.0,0.0,0.0,0.0,0.0,0.0,0.0,0.0,0.0,0.0,0.0,0.8001,0.8001,0.8001,0.8001,0.8001,0.8001,0.0,0.0,0.8001,0.8001,0.8001,0.8001,0.8001,0.8001,0.8001,0.8001,0.8001,0.8001,0.8001,0.8001,0.8001,0.8001,0.8001,0.8001,0.0,0.0,0.0,0.0,0.0,0.0,0.0,0.0,0.0,0.0,0.0,0.0,0.0,0.0,0.0,0.0,0.0,0.0,0.0,0.0,0.0,0.0,0.0,0.0,0.0,0.0,0.0,0.0,0.0,0.0,0.0,0.0,0.0,0.0,0.0,0.0,0.0,0.0,0.0,0.0,0.0,0.8583,0.8059,0.0,0.0,0.0,0.0,0.0,0.0,0.0,0.0,0.0,0.0,0.0,0.0,0.0,0.8905,0.8905,0.8902,0.891,0.891,0.8894,0.9174,0.9679,0.9686,0.9678,0.9685,0.9679,0.0,0.8907,0.8897,0.0,0.0,0.0,0.0,0.0,0.0,0.0,0.0,0.0,0.0,0.0,0.0,0.0,0.0,0.0,0.0,0.0,0.0,0.0,0.0,0.0,0.8001,0.8001,0.8001,0.8001,0.8001,0.8001,0.8001,0.8001,0.8001,0.8001,0.8001,0.8001,0.8001,0.8001,0.8001,0.8001,0.8001,0.8001,0.8001,0.8001,0.8001,0.8001,0.8001,0.8001,0.8001,0.0,0.0,0.0,0.0,0.0,0.0,0.0,0.0,0.0,0.0,0.0,0.0,0.0,0.0,0.0,0.0,0.0,0.0,0.0,0.0,0.0,0.0,0.0,0.0,0.0,0.0,0.0,0.0,0.0,0.0,0.0,0.0,0.0,0.0,0.0,0.0,0.0,0.0,0.0,0.873,0.8805,0.8534,0.8742,0.8904,0.0,0.0,0.0,0.0,0.0,0.0,0.0,0.0,0.0,0.8908,0.8895,0.9057,0.9401,0.9405,0.941,0.941,0.9411,0.9539,0.9803,0.9806,0.9796,0.9803,0.979,0.9641,0.9402,0.9402,0.9566,0.9796,0.0,0.0,0.0,0.0,0.9802,0.9801,0.0,0.0,0.0,0.0,0.0,0.0,0.0,0.0,0.0,0.0,0.0,0.0,0.8001,0.8001,0.8001,0.8001,0.8001,0.8001,0.8001,0.8001,0.8001,0.8001,0.8001,0.8001,0.8001,0.8001,0.8001,0.8001,0.8001,0.8001,0.8001,0.8001,0.8001,0.8001,0.8004,0.7997,0.8001,0.8001,0.8001,0.8001,0.0,0.0,0.0,0.0,0.0,0.0,0.0,0.0,0.0,0.0,0.0,0.0,0.0,0.0,0.0,0.0,0.0,0.0,0.0,0.0,0.0,0.0,0.0,0.0,0.0,0.0,0.0,0.0,0.0,0.0,0.0,0.0,0.0,0.0,0.0,0.0,0.0,0.8904,0.8904,0.8899,0.8893,0.89,0.0,0.0,0.0,0.0,0.0,0.0,0.8899,0.9048,0.913,0.9121,0.9132,0.9348,0.9799,0.9791,0.9797,0.9797,0.9806,0.9803,0.9795,0.9802,0.9798,0.9798,0.9803,0.9795,0.9795,0.98,0.9807,0.9807,0.9807,0.9807,0.9807,0.9807,0.9807,0.9807,0.0,0.0,0.0,0.0,0.0,0.0,0.0,0.0,0.0,0.0,0.0,0.8001,0.8001,0.8001,0.8001,0.8001,0.8001,0.8001,0.8001,0.8001,0.8001,0.8001,0.8001,0.8001,0.8001,0.8001,0.8001,0.8001,0.8001,0.8001,0.8001,0.8001,0.8001,0.7995,0.7997,0.7997,0.8001,0.8001,0.8001,0.8001,0.8001,0.0,0.0,0.0,0.0,0.0,0.0,0.0,0.0,0.0,0.0,0.0,0.0,0.0,0.0,0.0,0.0,0.0,0.0,0.0,0.0,0.0,0.0,0.0,0.0,0.0,0.0,0.0,0.0,0.0,0.0,0.0,0.0,0.0,0.0,0.0,0.0,0.0,0.0,0.8899,0.8906,0.0,0.0,0.0,0.0,0.8897,0.8907,0.8899,0.8905,0.944,0.9758,0.9758,0.9751,0.9768,0.9798,0.9794,0.9802,0.9802,0.9801,0.9804,0.9804,0.9802,0.9804,0.9796,0.9798,0.9795,0.9802,0.9795,0.9807,0.9807,0.9807,0.9807,0.9807,0.9807,0.9807,0.9807,0.0,0.0,0.0,0.0,0.0,0.0,0.0,0.0,0.8001,0.8001,0.8001,0.8001,0.8001,0.8001,0.8001,0.8001,0.8001,0.8001,0.8001,0.8001,0.8001,0.8001,0.8001,0.8001,0.8001,0.8001,0.8001,0.8001,0.7995,0.8003,0.7997,0.8006,0.8007,0.7994,0.7995,0.8215,0.8549,0.8168,0.8007,0.8007,0.8007,0.8007,0.0,0.0,0.0,0.0,0.0,0.0,0.0,0.0,0.0,0.0,0.0,0.0,0.0,0.0,0.0,0.0,0.0,0.0,0.0,0.0,0.0,0.0,0.0,0.0,0.0,0.0,0.0,0.0,0.0,0.0,0.0,0.0,0.0,0.0,0.0,0.0,0.0,0.8908,0.8901,0.0,0.8906,0.8901,0.9063,0.945,0.9484,0.9474,0.9478,0.9679,0.9794,0.9791,0.9805,0.9802,0.9799,0.98,0.9802,0.9807,0.9791,1.198,1.5974,1.5989,1.5979,1.5975,1.5987,1.3621,0.9808,0.9797,0.9791,0.9807,0.9807,0.98,0.9795,0.9795,0.9808,0.9794,0.0,0.0,0.0,0.0,0.0,0.0,0.0,0.0,0.8001,0.8001,0.8001,0.8001,0.8001,0.8001,0.8001,0.8001,0.8001,0.8001,0.8001,0.8001,0.8001,0.8001,0.8001,0.8001,0.8001,0.8005,0.8,0.8,0.8006,0.8104,0.8305,0.8301,0.8308,0.8308,0.8302,0.8534,0.8879,0.8475,0.8302,0.8308,0.8308,0.8308,0.8308,0.0,0.0,0.0,0.0,0.0,0.0,0.0,0.0,0.0,0.0,0.0,0.0,0.0,0.0,0.0,0.0,0.0,0.0,0.0,0.0,0.0,0.0,0.0,0.0,0.0,0.0,0.0,0.0,0.0,0.0,0.0,0.0,0.0,0.0,0.8895,0.8905,0.8898,0.9082,0.9208,0.9208,0.9206,0.937,0.9777,0.9798,0.9803,0.9808,1.1864,1.2045,0.9875,0.9797,0.9807,0.9802,1.1956,1.3225,1.3609,1.3609,1.584,1.9889,1.7537,1.6455,1.6463,1.6464,1.4038,1.0098,1.0098,1.0105,1.0082,0.9887,0.9799,0.9823,1.0033,1.0094,1.0102,0.0,0.0,0.0,0.0,0.0,0.0,0.0,0.8001,0.8001,0.8001,0.8001,0.8001,0.8001,0.8001,0.8001,0.8001,0.8001,0.8001,0.8001,0.8001,0.8001,0.8001,0.8001,0.8001,0.7995,0.7997,0.8006,0.8026,0.8034,0.8328,0.8893,0.89,0.89,0.8894,0.8896,0.8898,0.8899,0.8907,0.8893,0.89,0.89,0.89,0.89,0.0,0.0,0.0,0.0,0.0,0.0,0.0,0.0,0.0,0.0,0.0,0.0,0.0,0.0,0.0,0.0,0.0,0.0,0.0,0.0,0.0,0.0,0.0,0.0,0.0,0.0,0.0,0.0,0.0,0.0,0.0,0.0,0.0,0.893,0.8935,0.8933,0.8924,0.9446,0.9794,0.9801,0.9806,0.9883,1.0072,0.9918,0.9802,0.9795,1.5899,1.6569,1.0344,1.0156,1.0151,1.0148,1.6117,1.9793,2.1101,2.1111,2.1098,2.0871,1.4095,1.102,1.102,1.1019,1.1018,1.101,1.1026,1.0904,1.0636,1.0059,0.9825,0.9895,1.0481,1.0702,1.0702,0.0,0.0,0.0,0.0,0.0,0.0,0.8001,0.8001,0.8001,0.8001,0.8001,0.8001,0.8001,0.8001,0.8001,0.8001,0.8001,0.8001,0.8001,0.8001,0.8001,0.8001,0.8001,0.8005,0.7998,0.7999,0.8213,0.8653,0.8653,0.8742,0.8896,0.8899,0.89,0.89,0.89,0.8907,0.8893,0.8892,0.8906,0.89,0.89,0.89,0.89,0.0,0.0,0.0,0.0,0.0,0.0,0.0,0.0,0.0,0.0,0.0,0.0,0.0,0.0,0.0,0.0,0.0,0.0,0.0,0.0,0.0,0.0,0.0,0.0,0.0,0.0,0.0,0.0,0.0,0.0,0.0,0.9549,0.9555,0.9549,0.9549,0.9553,0.9552,0.9698,0.9799,0.9798,0.9795,1.173,1.6402,1.244,0.9802,0.9795,1.5907,1.8964,1.802,1.7991,1.7988,1.7993,1.4729,1.5791,2.1098,2.1104,2.1094,2.1036,1.9106,1.8241,1.8239,1.8244,1.824,1.824,1.8235,1.5258,1.0684,1.0513,1.044,1.0465,1.0633,1.0702,1.07,0.0,0.0,0.0,0.0,0.0,0.0,0.8001,0.8001,0.8001,0.8001,0.8001,0.8001,0.8001,0.8001,0.8001,0.8001,0.8001,0.8001,0.8001,0.8001,0.8003,0.8007,0.8007,0.7998,0.7995,0.8249,0.8552,0.8906,0.8898,0.8899,0.8906,0.8893,0.8893,0.8893,0.8893,0.8893,0.8893,0.8893,0.8893,0.8893,0.8893,0.8899,0.8899,0.8899,0.8899,0.8899,0.8899,0.8899,0.8899,0.8899,0.0,0.0,0.0,0.0,0.0,0.0,0.0,0.0,0.0,0.0,0.0,0.0,0.0,0.0,0.0,0.0,0.0,0.0,0.0,0.0,0.0,0.0,0.0,0.0,0.9795,0.9794,0.9795,0.9809,0.9798,0.9798,0.9805,0.9799,0.9805,0.9795,1.1348,1.5097,1.4853,1.4528,1.4534,1.8089,1.9082,1.6812,1.9583,2.1102,2.1094,1.7071,1.7352,2.1843,2.1857,2.1852,2.1849,2.1849,2.1852,2.1851,2.1856,2.1565,2.1101,2.1101,1.6994,1.0706,0.0,0.0,0.0,0.0,1.0699,1.0701,0.0,0.0,0.0,0.0,0.0,0.0,0.8001,0.8001,0.8001,0.8001,0.8001,0.8001,0.8001,0.8001,0.8001,0.8001,0.8001,0.8001,0.8001,0.8002,0.8,0.8,0.8064,0.8105,0.8098,0.8628,0.8898,0.8905,0.89,0.9235,0.988,0.9886,0.9875,0.9875,0.9881,0.9873,0.9873,0.9873,0.9884,0.9822,0.9159,0.89,0.8899,0.8899,0.8899,0.8899,0.8899,0.8899,0.8899,0.8899,0.0,0.0,0.0,0.0,0.0,0.0,0.0,0.0,0.0,0.0,0.0,0.0,0.0,0.0,0.0,0.0,0.0,0.0,0.0,0.0,0.0,0.0,0.0,0.0,0.9793,0.9803,0.9802,1.0415,1.0618,0.9877,0.98,0.9807,0.9804,0.9871,1.0229,1.1016,1.7305,2.1106,2.1105,2.1107,0.0,0.0,0.0,2.1297,2.1314,2.131,2.1839,2.2906,2.2896,2.2891,2.2891,2.2891,2.2891,2.2891,2.2896,2.2302,2.1292,2.1305,1.7656,1.1972,1.1064,1.0704,1.0704,1.0708,1.0708,1.0691,0.0,0.0,0.0,0.0,0.0,0.0,0.8001,0.8001,0.8001,0.8001,0.8001,0.8001,0.8001,0.8001,0.8001,0.8001,0.8001,0.8001,0.8001,0.8002,0.7999,0.8006,0.8475,0.8729,0.8727,0.8841,0.8891,0.8893,0.89,1.1303,1.5912,1.5918,1.5925,1.5925,1.5925,1.5918,1.5918,1.5918,1.5916,1.5513,1.0788,0.8893,0.8899,0.8899,0.8899,0.8899,0.8899,0.8899,0.8899,0.8899,0.8899,0.8899,0.8899,0.0,0.0,0.0,0.0,0.0,0.0,0.0,0.0,0.0,0.0,0.0,0.0,0.0,0.0,0.0,0.0,0.0,0.0,0.0,0.0,0.9808,0.9801,0.9794,0.9795,1.4278,1.5624,1.0419,0.9802,0.9798,0.9808,1.0243,1.2856,1.8497,2.0267,2.1107,2.1088,2.1104,2.0934,2.0546,2.1849,2.2557,2.2544,2.2555,2.2677,2.2898,2.2903,0.0,2.2899,2.2899,2.2899,2.2903,2.2903,2.2777,2.2552,2.2548,2.1757,1.9891,1.3276,1.0709,1.0695,1.0698,1.0698,1.0705,0.0,0.0,0.0,0.0,0.0,0.0,0.8001,0.8001,0.8001,0.8001,0.8001,0.8001,0.8001,0.8001,0.8001,0.8001,0.8001,0.8001,0.8001,0.7995,0.8134,0.8435,0.8733,0.8905,0.8898,1.1764,1.3254,1.3252,1.0328,1.0395,1.3242,1.3241,1.479,1.7595,1.7609,1.7596,1.7596,1.7596,1.7595,1.7353,1.4433,1.3248,1.2932,1.0006,0.8892,0.8899,0.8899,0.8899,0.8899,0.8899,0.8899,0.8899,0.8899,0.8899,0.8898,0.0,0.0,0.0,0.0,0.0,0.0,0.0,0.0,0.0,0.0,0.0,0.0,0.0,0.0,0.9793,0.0,0.0,0.9799,0.9795,1.2509,1.4605,1.4605,1.4597,1.3398,1.0188,1.2629,1.4825,1.5411,1.5721,1.7354,2.0838,2.1096,2.1364,2.197,2.1995,2.2268,2.2885,2.2906,2.289,2.2892,2.2893,2.291,2.2893,2.2908,2.2893,2.2893,2.2893,2.2893,2.2911,2.2896,2.291,2.291,2.2893,2.2903,2.2489,1.8399,1.6811,1.6814,1.6813,1.6419,1.5406,0.0,0.0,0.0,0.0,0.0,0.0,0.0,0.8001,0.8001,0.8001,0.8001,0.8001,0.8001,0.8001,0.8001,0.8001,0.8001,0.8002,0.8004,0.8002,0.8779,1.0511,0.9508,0.9432,1.0574,1.5203,1.7604,1.7613,1.1751,0.9481,1.0582,1.0592,1.31,1.7609,1.7608,1.7595,1.7595,1.7595,1.7609,1.7609,1.7609,1.7595,1.7096,1.2385,0.988,0.8906,0.8906,0.8899,0.8899,0.8899,0.8898,0.8897,0.8897,0.8904,0.8902,0.8902,0.8983,0.0,0.0,0.0,0.0,0.0,0.0,0.0,0.0,0.0,0.9807,0.9807,0.9807,0.9802,0.9793,1.0823,1.1676,1.1675,1.4968,1.8042,1.9516,1.5263,1.2007,1.2004,1.6576,2.0091,2.1001,2.1097,2.1212,2.1421,2.1447,2.1862,2.286,2.2905,2.2906,2.2906,2.2906,2.2893,2.2893,2.2893,2.2893,2.2893,2.2893,2.2893,2.2893,2.2893,2.2893,2.2893,2.2893,2.2893,2.2893,2.2893,2.2893,2.2893,2.2893,2.2893,2.273,2.1254,2.0095,1.8448,0.0,0.0,0.0,0.0,0.0,0.0,0.0,0.0,0.8001,0.8001,0.8001,0.8001,0.8001,0.8001,0.8001,0.8001,0.8001,0.7999,0.7999,0.7994,1.0588,1.6367,1.1666,1.1322,1.6516,1.7269,1.7592,1.7605,1.1764,1.1549,1.6625,1.6633,1.6958,1.7609,1.7596,1.7595,1.7595,1.7595,1.7608,1.7609,1.7609,1.7596,1.7542,1.6876,1.341,0.8893,0.8899,0.8899,0.8899,0.8899,0.8896,0.8897,0.8897,0.8898,0.8902,0.8907,0.0,0.9712,0.9777,0.9799,0.9805,0.9795,0.9793,0.9807,0.0,0.0,0.9807,0.9807,0.9807,0.9807,0.9793,1.4465,1.8334,1.8331,1.4141,1.3215,1.9961,2.0301,1.9841,1.9834,2.0472,2.0951,2.108,2.1112,2.1533,2.261,2.2705,2.2754,2.2885,2.2906,2.2905,2.2905,2.2897,2.2893,2.2893,2.2893,2.2893,2.2893,2.2893,2.2893,2.2893,2.2893,2.2893,2.2893,2.2893,2.2893,2.2893,2.2893,2.2893,2.2893,2.2893,2.2901,2.2078,1.5353,1.2776,1.2552,0.0,0.0,0.0,0.0,0.0,0.0,0.0,0.0,0.0,0.8001,0.8001,0.8001,0.8001,0.8001,0.7997,0.7996,0.8003,0.7999,0.7995,0.8333,1.1248,1.7325,1.2012,1.0041,1.2486,1.586,1.7595,1.7595,1.1762,1.1883,1.7593,1.7609,1.7596,1.7609,1.7595,1.7595,1.7595,1.7595,1.7595,1.7595,1.7595,1.7595,1.7609,1.7604,1.609,1.352,1.0114,0.8896,0.0,0.8902,0.8897,0.8957,0.9315,0.942,0.943,0.9431,0.9602,0.0,0.9804,0.9805,0.9807,0.0,0.9807,0.9807,0.9807,0.9807,0.9793,0.9798,0.9802,0.9801,0.9805,1.2001,1.5258,0.0,1.8136,1.748,2.0648,2.1103,2.1108,2.1102,2.1097,2.1094,2.1099,2.1744,2.2353,2.2848,2.289,2.2903,2.2903,2.2908,2.2893,2.2893,2.2893,2.2893,2.2893,2.2893,2.2893,2.2893,2.2893,2.2893,2.2893,2.2893,2.2893,2.2893,2.2893,2.2893,2.2893,2.2893,2.2893,2.2893,2.2893,2.2913,2.2517,1.9335,1.8185,1.8179,0.0,0.0,0.0,0.0,0.0,0.0,0.0,0.0,0.0,0.0,0.8001,0.8001,0.8001,0.8001,0.7999,0.8006,0.8153,0.8253,0.8249,0.8651,1.1504,1.7349,1.2011,0.8904,0.8905,1.462,1.7595,1.7596,1.3366,1.3456,1.7596,1.7609,1.7595,1.7595,1.7595,1.7595,1.7595,1.7595,1.7595,1.7595,1.7596,1.7609,1.7609,1.7595,1.67,1.4879,1.0478,0.9008,0.9139,0.9152,0.9154,0.9216,0.9653,0.9805,0.9795,0.9803,0.9807,0.9798,0.9795,0.0,0.0,0.9807,0.9807,0.9807,0.9807,0.981,0.9808,0.98,1.1217,1.1962,1.0335,1.0043,1.2462,1.9892,2.1096,2.1089,2.109,2.1093,2.1091,2.1099,2.1397,2.1601,2.1601,2.2404,2.2899,2.29,2.2889,2.2893,2.2893,2.2893,2.2893,2.2893,2.2893,2.2893,2.2893,2.2893,2.2893,2.2893,2.2893,2.2893,2.2893,2.2893,2.2893,2.2893,2.2893,2.2893,2.2893,2.2893,2.2893,2.2893,2.2893,2.2893,2.289,2.2903,2.2901,2.2902,0.0,0.0,0.0,0.0,0.0,0.0,0.0,0.0,0.0,0.0,0.0,0.0,0.0,0.8001,0.7999,0.8006,0.8531,0.8879,0.8877,0.8893,1.15,1.7341,1.2004,0.8898,0.8902,1.4614,1.7607,1.7596,1.7411,1.7437,1.7596,1.7609,1.7595,1.7595,1.7595,1.7595,1.7595,1.7595,1.7595,1.7609,1.7594,1.7591,1.7604,1.7603,1.4449,0.993,0.9169,0.9281,0.978,0.9765,0.9768,0.9768,0.979,0.9805,0.0,0.98,0.98,0.98,0.9807,0.9807,0.9807,0.9807,0.9807,0.9807,0.9807,0.9792,0.9806,0.9799,1.4754,1.7388,1.1728,1.0666,1.2953,1.9958,2.1094,2.1096,2.1109,2.1099,2.1096,2.1093,2.2124,2.2848,2.2848,2.2892,2.29,2.2901,2.2893,2.2893,2.2893,2.2893,2.2893,2.2893,2.2893,2.2893,2.2893,2.2893,2.2893,2.2893,2.2893,2.2893,2.2893,2.2893,2.2893,2.2893,2.2893,2.2893,2.2893,2.2893,2.2893,2.2893,2.2893,2.2893,2.2893,2.2907,2.2907,2.289,0.0,0.0,0.0,0.0,0.0,0.0,0.0,0.0,0.0,0.0,0.0,0.0,0.0,0.0,0.0,0.0,0.8559,0.8902,0.8893,0.8899,1.1508,1.7347,1.5715,1.286,0.8985,1.462,1.7609,1.7596,1.7596,1.7609,1.7596,1.7595,1.7595,1.7595,1.7595,1.7595,1.7595,1.7595,1.7596,1.7595,1.7592,1.8075,1.8796,1.8798,1.7697,1.559,0.0,0.9637,0.9809,0.9795,0.9797,0.9799,0.9799,0.9796,0.9807,0.9807,0.9807,0.9807,0.9807,0.9807,0.9807,0.9807,0.9805,0.9802,0.9802,0.9806,0.9914,1.0306,1.2123,1.3038,1.1054,1.4479,1.8364,2.0715,2.1102,2.1093,2.1093,2.1112,2.1396,2.2201,2.2661,2.2893,2.2899,2.2909,2.2902,2.2911,2.2893,2.2893,2.2893,2.2893,2.2893,2.2893,2.2893,2.2893,2.2893,2.2893,2.2893,2.2893,2.2893,2.2893,2.2893,2.2893,2.2893,2.2893,2.2893,2.2893,2.2893,2.2893,2.2893,2.2893,2.2893,2.2893,2.2893,2.2893,2.2893,2.2893,0.0,0.0,0.0,0.0,0.0,0.0,0.0,0.0,0.0,0.0,0.0,0.0,0.0,0.0,0.0,0.0,0.0,0.8899,0.8907,1.0852,1.2759,1.4416,1.6489,1.5854,1.2088,1.3633,1.5513,1.7596,1.7596,1.7595,1.7595,1.7595,1.7595,1.7595,1.7595,1.7595,1.7595,1.7596,1.7595,1.7644,1.8072,1.8712,1.9388,1.9401,1.9399,0.0,1.2103,0.9797,0.979,0.981,0.9807,0.9807,0.9807,0.9807,0.9807,0.9807,0.9807,0.9807,0.9807,0.9807,0.9805,0.9798,0.9802,0.9857,1.0073,1.0116,1.0235,1.0628,1.0704,1.0697,1.0698,1.6396,2.1092,2.1107,2.1113,2.1099,2.1099,2.1097,2.1556,2.2756,2.2895,2.2906,0.0,0.0,2.2893,2.2893,2.2893,2.2893,2.2893,2.2893,2.2893,2.2893,2.2893,2.2893,2.2893,2.2893,2.2893,2.2893,2.2893,2.2893,2.2893,2.2893,2.2893,2.2893,2.2893,2.2893,2.2893,2.2893,2.2893,2.2893,2.2893,2.2893,2.2893,2.2893,2.2893,2.2893,0.0,0.0,0.0,0.0,0.0,0.0,0.0,0.0,0.0,0.0,0.0,0.0,0.0,0.0,0.0,0.0,0.0,0.0,0.8899,1.4078,1.4828,0.9569,1.4361,1.7151,1.7156,1.2011,1.2054,1.7608,1.7595,1.7595,1.7595,1.7595,1.7595,1.7595,1.7595,1.7609,1.7596,1.7607,1.7644,1.7791,1.8941,1.9396,1.9394,1.9398,1.9212,1.8111,1.1995,0.9791,0.9807,0.9807,0.9807,0.9807,0.9807,0.9807,0.9807,0.9807,0.9807,0.9807,0.9807,0.9798,0.9808,0.9804,0.9819,0.9997,1.0564,1.0695,1.0707,1.0704,1.0978,1.123,0.0,0.0,2.1091,2.1104,2.1099,2.1126,2.1187,2.1192,2.1621,0.0,0.0,0.0,0.0,0.0,0.0,2.2893,2.2893,2.2893,2.2893,2.2893,2.2893,2.2893,2.2893,2.2893,2.2893,2.2893,2.2893,2.2893,2.2893,2.2893,2.2893,2.2893,2.2893,2.2893,2.2893,2.2893,2.2893,2.2893,2.2893,2.2893,2.2893,2.2893,2.2893,2.2893,2.2893,2.2893,0.0,0.0,0.0,0.0,0.0,0.0,0.0,0.0,0.0,0.0,0.0,0.0,0.0,0.0,0.0,0.0,0.0,0.0,0.8907,1.0282,1.2392,1.5264,1.2642,1.1116,1.1123,1.392,1.6109,1.7596,1.7609,1.7595,1.7595,1.7595,1.7595,1.7608,1.7596,1.7594,1.7607,1.761,1.8117,1.8969,1.9286,1.9402,1.9397,1.9402,1.642,1.2025,1.0388,0.9791,0.9807,0.9807,0.9807,0.9807,0.9807,0.9807,0.9807,0.9807,0.9807,0.9807,0.9807,0.9796,0.9797,0.9799,1.0136,1.0507,1.0662,1.0693,1.0695,1.07,1.4834,1.8441,0.0,1.9911,2.1091,2.1104,2.1099,0.0,2.2323,2.2445,0.0,2.2859,0.0,2.2893,2.2893,2.2893,0.0,2.2893,2.2893,2.2893,2.2893,2.2893,2.2893,2.2893,2.2893,2.2893,2.2893,2.2893,2.2893,2.2893,2.2893,2.2893,2.2893,2.2893,2.2893,2.2893,2.2893,2.2893,2.2893,2.2893,2.2893,2.2893,2.2893,2.2893,2.2893,2.2893,2.2893,2.2893,0.0,0.0,0.0,0.0,0.0,0.0,0.0,0.0,0.0,0.0,0.0,0.0,0.0,0.0,0.0,0.0,0.0,0.0,0.0,0.89,1.0355,1.3644,1.3108,1.1517,0.8952,1.4616,1.7608,1.7596,1.7596,1.7596,1.7595,1.7595,1.7595,1.7595,1.7596,1.7889,1.8388,1.8398,1.8789,0.0,0.0,1.9401,1.9078,1.6253,1.2934,0.9795,0.9799,0.9803,0.9807,0.9807,0.9807,0.9807,0.9807,0.9807,0.9807,0.9807,0.9807,0.9805,0.9796,0.9793,0.9855,1.013,1.0456,1.0702,1.0693,1.3077,1.5254,1.5252,1.8376,2.1109,2.1107,2.1091,2.1099,0.0,0.0,0.0,2.2728,2.2894,2.29,0.0,2.2898,0.0,2.2893,2.2893,2.2893,2.2893,2.2893,2.2893,2.2893,2.2893,2.2893,2.2893,2.2893,2.2893,2.2893,2.2893,2.2893,2.2893,2.2893,2.2893,2.2893,2.2893,2.2893,2.2893,2.2893,2.2893,2.2893,2.2893,2.2893,2.2893,2.2893,2.2893,2.2893,2.2893,2.2893,2.2893,0.0,0.0,0.0,0.0,0.0,0.0,0.0,0.0,0.0,0.0,0.0,0.0,0.0,0.0,0.0,0.0,0.0,0.0,0.0,0.0,0.89,0.8892,1.3754,1.4437,1.0151,1.4242,1.6442,1.6452,1.7223,1.7596,1.7595,1.7595,1.7595,1.7595,1.7596,1.8183,1.9163,1.9333,1.9402,1.9393,1.9398,1.8889,1.7524,0.0,0.0,0.9801,0.9802,0.9807,0.0,0.0,0.9807,0.9807,0.9807,0.9807,0.9807,0.9807,0.9805,0.98,0.9804,0.9855,1.0058,1.0578,1.0695,1.0935,1.187,1.6032,1.997,2.0906,2.1113,2.0818,1.989,2.048,2.1095,2.1103,0.0,2.1703,2.2751,2.2903,2.2893,2.2893,2.2893,2.2893,2.2893,2.2893,2.2893,2.2893,2.2893,2.2893,2.2893,2.2893,2.2893,2.2893,2.2893,2.2893,2.2893,2.2893,2.2893,2.2893,2.2893,2.2893,2.2893,2.2899,2.2895,2.2909,2.2901,2.2897,2.2897,2.2897,2.2897,2.2897,2.2897,2.2897,2.2897,2.2897,2.2897,2.2897,0.0,0.0,0.0,0.0,0.0,0.0,0.0,0.0,0.0,0.0,0.8006,0.0,0.0,0.0,0.0,0.0,0.0,0.0,0.0,0.0,0.0,0.89,0.9863,1.2188,1.6006,1.2359,1.0411,1.0412,1.5232,1.7596,1.7596,1.7596,1.7595,1.7608,1.7595,1.7723,1.7984,1.8982,1.9393,1.9406,1.9405,1.6212,1.1334,1.0224,0.0,0.0,0.98,0.0,0.0,0.0,0.9807,0.9807,0.9807,0.9807,0.9807,0.9807,0.9803,0.9795,0.9806,1.0166,1.0578,1.0665,1.069,1.2212,1.7987,1.5771,0.0,0.0,2.1102,1.9342,1.358,1.7206,2.1098,2.11,2.1942,2.266,2.2875,2.2903,2.2893,0.0,2.2893,2.2893,2.2893,2.2893,0.0,2.2893,2.2893,2.2893,2.2893,2.2893,2.2893,2.2893,2.2893,2.2893,2.2893,2.2893,2.2893,2.2893,2.2893,2.2893,2.2907,2.2892,2.2893,2.2906,2.2906,2.2891,2.2891,2.2891,2.2891,2.2891,2.2891,2.2891,2.2891,2.2891,2.2891,2.2901,0.0,0.0,0.0,0.0,0.0,0.0,0.0,0.0,0.0,0.0,0.8268,0.8579,0.0,0.0,0.0,0.0,0.0,0.0,0.0,0.0,0.0,0.0,0.89,1.0206,1.301,1.034,0.8893,0.8893,0.0,1.4632,1.7608,1.7596,1.7596,1.7609,1.7609,1.7604,1.7677,1.8888,1.941,1.94,1.9403,1.5534,0.9804,0.0,0.0,0.0,0.0,0.0,0.0,0.0,0.9807,0.9807,0.9807,0.9807,0.9805,0.9803,0.9799,0.9877,1.0172,1.0481,1.0693,1.071,1.0706,1.2523,1.9507,0.0,0.0,1.9661,1.8208,1.4662,1.1326,1.692,2.2041,2.2045,2.2519,2.2896,2.2896,2.2898,2.2893,2.2893,2.2893,2.2893,2.2893,2.2893,2.2893,2.2893,2.2893,2.2893,2.2893,2.2893,2.2893,2.2893,2.2893,2.2893,2.2893,2.2893,2.2905,2.2913,2.2913,2.2893,2.2902,2.2893,2.3214,2.3788,2.3785,2.3785,2.3785,2.3785,2.3785,2.3785,2.3785,2.3785,2.3785,2.3785,2.3785,2.379,0.0,0.0,0.0,0.0,0.0,0.0,0.0,0.7998,0.8046,0.8176,0.8607,0.8905,0.8899,0.8893,0.8899,0.0,0.0,0.0,0.0,0.0,0.0,0.0,0.0,0.0,0.8899,0.0,0.0,1.0762,0.9519,0.0,0.0,0.0,0.0,0.0,1.7596,1.7594,1.7681,1.8891,1.9399,0.0,0.0,1.6368,0.0,0.0,0.0,0.0,0.0,0.0,0.0,0.0,0.9807,0.9807,0.9807,0.9797,0.9798,0.9811,0.9884,1.01,1.0578,1.0702,1.0695,1.0696,1.0706,1.2532,1.9512,1.6861,0.0,1.9975,1.5554,1.1241,1.298,1.8577,2.2902,2.2893,2.2903,2.2903,2.2901,2.2893,2.2893,0.0,2.2893,0.0,2.2893,2.2893,2.2893,2.2893,2.2893,2.2893,2.2893,2.2893,2.2893,2.2893,2.2893,2.2893,2.2893,2.2909,2.2904,2.2902,2.3157,2.3267,2.3269,2.3268,2.3741,2.46,2.4601,2.461,2.461,2.461,2.461,2.461,2.461,2.461,2.461,2.461,2.461,2.4597,0.0,0.0,0.0,0.0,0.0,0.0,0.0,0.7995,0.8197,0.8749,0.8857,0.8906,0.8899,0.8906,0.8899,0.0,0.0,0.0,0.0,0.0,0.0,0.0,0.0,0.0,0.0,0.0,0.0,1.6807,1.1481,0.0,0.0,0.0,0.0,0.0,0.0,1.7593,1.7677,1.8903,0.0,0.0,0.0,0.0,0.0,0.0,0.0,0.0,0.0,0.9807,0.9807,0.9807,0.9807,0.9807,0.9807,0.9803,0.9793,0.9806,1.0195,1.0621,1.0688,1.0704,1.071,1.0707,1.0704,1.2531,1.9508,0.0,2.0333,2.0972,1.5544,1.2964,2.0414,2.2389,2.2903,2.2891,2.2901,2.2901,2.2893,2.2893,2.2893,2.2893,0.0,0.0,2.2893,2.2893,2.2893,2.2893,2.2893,2.2893,2.2893,2.2893,2.2893,2.2893,2.2893,2.2893,2.2893,2.2905,2.2911,2.292,2.3948,2.4445,2.4437,2.4431,2.4499,2.4603,2.4609,2.4606,2.4606,2.4606,2.4606,2.4606,2.4606,2.4606,2.4606,2.4606,2.4606,2.4603,0.0,0.0,0.0,0.0,0.0,0.0,0.0,0.8539,0.8628,0.8871,0.8907,0.89,0.8906,0.8899,0.8899,0.0,0.0,0.0,0.0,0.0,0.0,0.0,0.0,0.0,0.0,0.0,1.0036,1.2363,1.0042,0.0,0.0,0.0,0.0,0.0,0.0,1.431,1.763,1.8106,0.0,0.0,0.0,0.0,0.0,0.0,0.0,0.0,0.0,0.0,0.9807,0.9807,0.9807,0.9805,0.9801,0.9795,0.9866,1.0236,1.0513,1.0693,1.0707,1.0699,1.1714,1.5909,1.6957,1.7685,2.0469,0.0,2.1102,2.1102,1.9475,1.9042,2.2308,2.2906,2.2891,2.2911,2.2893,2.2893,2.2893,2.2893,2.2893,2.2893,2.2893,2.2893,2.2893,2.2893,2.2893,2.2893,2.2893,2.2893,2.2893,2.2893,2.2893,2.2893,2.2912,2.2905,2.2905,2.2907,2.3244,2.3933,2.4381,2.4598,2.4602,2.46,2.4586,2.4599,2.4596,2.4599,2.4599,2.4599,2.4599,2.4599,2.4599,2.4599,2.4599,2.4599,2.4599,2.4604,0.0,0.0,0.0,0.0,0.0,0.0,0.9099,0.8896,0.8906,0.8906,0.89,0.8899,0.8899,0.8899,0.8899,0.8899,0.0,0.0,0.0,0.0,0.0,0.0,0.0,0.0,0.0,0.0,0.8906,0.8899,0.8893,0.9775,0.0,0.0,0.8907,0.89,0.0,0.0,0.0,0.0,0.0,0.0,0.0,0.0,0.0,0.0,0.0,0.0,0.0,0.0,0.0,0.0,0.0,0.9803,0.0,0.0,0.0,1.0577,1.0695,1.0703,1.0707,1.0704,1.1877,1.6797,1.9557,2.1096,2.1105,0.0,1.8715,2.1132,2.2311,2.2896,2.2899,2.2891,2.2893,2.2893,2.2893,2.2893,2.2893,2.2893,2.2893,2.2893,2.2893,2.2893,2.2893,2.2893,2.2893,2.2893,2.2893,2.2893,2.2893,2.2893,2.2893,2.2893,2.2897,2.3055,2.341,2.3408,2.382,2.4594,2.4602,2.4609,2.4599,2.4599,2.4599,2.4599,2.4599,2.4599,2.4599,2.4599,2.4599,2.4599,2.4599,2.4599,2.4599,2.4599,2.4599,2.4599,0.0,0.0,0.0,0.0,0.0,0.0,0.0,0.8907,0.8899,0.8899,0.8899,0.8899,0.8899,0.8899,0.8899,0.8899,0.0,0.0,0.0,0.0,0.0,0.0,0.0,0.0,0.0,0.0,0.8899,0.8899,0.8899,1.1848,1.738,1.1605,0.8899,0.8907,0.0,0.0,0.0,0.0,0.0,0.0,0.0,0.0,0.9802,0.0,0.0,0.0,0.0,0.0,0.0,0.0,0.0,0.0,0.0,1.0208,1.0684,1.0695,1.07,1.0701,1.0701,1.0696,1.0713,1.0799,1.5993,2.1104,2.1102,1.5759,1.3108,2.1204,2.2898,2.289,2.2905,2.2893,2.2893,2.2893,2.2893,2.2893,2.2893,2.2893,2.2893,2.2893,2.2893,2.2893,2.2893,2.2893,2.2893,2.2893,2.2893,2.2893,2.2893,2.2893,2.2893,2.2893,2.2897,2.3445,2.4561,2.4587,2.4594,2.4594,2.4608,2.4599,2.4599,2.4599,2.4599,2.4599,2.4599,2.4599,2.4599,2.4599,2.4599,2.4599,2.4599,2.4599,2.4599,2.4599,2.4599,2.4599,0.0,0.0,0.0,0.0,0.0,0.0,0.0,0.89,0.89,0.8906,0.8899,0.8899,0.8899,0.8899,0.8899,0.8899,0.0,0.0,0.0,0.0,0.0,0.0,0.0,0.0,0.0,0.0,0.0,0.8899,0.8906,0.9849,1.1702,1.3843,1.2731,0.8906,0.89,0.8899,0.0,0.0,0.0,0.0,0.0,1.1618,0.9802,0.0,0.0,0.0,0.0,0.0,0.0,0.0,0.0,0.0,0.0,0.0,0.0,1.0707,1.07,1.0701,1.0701,1.0704,1.0696,1.0696,1.5949,2.1091,2.1101,1.94,1.878,2.221,2.2903,2.2902,2.2897,2.2893,2.2893,2.2893,2.2893,2.2893,2.2893,2.2893,2.2893,2.2893,2.2893,2.2893,2.2893,2.2893,2.2893,2.2893,2.2893,2.2893,2.2893,2.2908,2.291,2.291,2.2898,2.3439,2.4601,2.4597,2.4608,2.4608,2.4596,2.4599,2.4599,2.4599,2.4599,2.4599,2.4599,2.4599,2.4599,2.4599,2.4599,2.4599,2.4599,2.4599,2.4599,2.4599,2.4599,2.4599,0.0,0.0,0.0,0.0,0.0,0.0,0.0,1.0311,0.89,0.8906,0.8899,0.8899,0.8899,0.8899,0.8899,0.8899,0.0,0.0,0.0,0.0,0.0,0.0,0.0,0.0,0.0,0.0,0.8899,0.8899,0.8893,0.89,0.8982,1.2625,1.3556,1.2092,0.9876,0.8905,0.0,0.0,0.0,0.0,0.9802,0.9795,0.9806,0.0,0.0,0.0,0.0,0.0,0.0,0.0,0.0,0.0,0.0,0.0,0.0,0.0,1.0701,1.0701,1.0701,1.0701,1.0704,1.0704,1.3967,1.7182,1.7177,1.9566,2.1993,2.2751,2.2906,2.2893,2.2893,2.2893,2.2893,2.2893,2.2893,2.2893,2.2893,2.2893,2.2893,2.2893,2.2893,2.2893,2.2893,2.2893,2.2893,2.2893,2.2893,2.2893,2.2893,2.2901,2.3108,2.3536,2.3541,2.3882,2.4594,2.4594,2.4599,2.4599,2.4599,2.4599,2.4599,2.4599,2.4599,2.4599,2.4599,2.4599,0.0,2.4599,2.4599,2.4599,2.4599,2.4599,2.4599,2.4599,2.4599,2.4599,0.0,0.0,0.0,0.0,0.0,0.0,0.0,0.0,0.0,0.0,0.8899,0.8899,0.8899,0.8899,0.8899,0.0,0.0,0.0,0.0,0.0,0.0,0.0,0.0,0.0,0.0,0.8899,0.8899,0.8899,0.8899,0.8906,0.89,0.8906,1.1798,1.6741,1.1321,0.8917,0.0,0.0,0.0,0.0,0.9807,0.9807,0.0,0.0,0.0,0.0,0.0,0.0,0.0,0.0,0.0,0.0,0.0,0.0,0.0,0.0,0.0,0.0,0.0,1.0701,1.0704,0.0,0.0,0.0,0.0,0.0,0.0,2.2903,2.2903,2.2893,2.2893,2.2893,2.2893,2.2893,2.2893,2.2893,2.2893,2.2893,2.2893,2.2893,2.2893,2.2893,2.2893,2.2893,2.2893,2.2893,2.2893,2.2907,2.2903,2.2893,2.3417,2.4553,2.4593,2.4602,2.4602,2.4608,2.4599,2.4599,2.4599,2.4599,2.4599,2.4599,2.4599,2.4599,2.4599,2.4599,2.4599,2.4599,2.4599,2.4599,2.4599,2.4599,2.4599,2.4599,2.4599,2.4599,0.0,0.0,0.0,0.0,0.0,0.0,0.0,0.0,0.0,0.0,0.8899,0.8899,0.8899,0.8899,0.8899,0.0,0.0,0.0,0.0,0.0,0.0,0.0,0.0,0.0,0.0,0.8899,0.8899,0.8899,0.8899,0.8906,0.8899,0.8907,0.9628,1.0877,0.9509,0.9155,0.959,0.0,0.0,0.0,0.9807,0.9807,0.0,0.0,0.0,0.0,0.9807,0.9807,0.0,0.0,0.0,0.0,0.0,0.0,0.0,0.0,1.0701,1.0701,1.0701,0.0,1.0695,0.0,0.0,0.0,0.0,0.0,0.0,0.0,0.0,2.2893,2.2893,2.2893,2.2893,2.2893,2.2893,2.2893,2.2893,2.2893,0.0,2.2893,2.2893,2.2893,2.2893,2.2893,2.2893,2.2893,2.2893,2.2901,2.2889,2.2906,2.3416,2.4557,2.4592,2.4598,2.4598,2.4609,2.4599,2.4599,2.4599,2.4599,2.4599,2.4599,2.4599,2.4599,2.4599,2.4599,2.4599,2.4599,2.4599,2.4599,2.4599,2.4599,2.4599,2.4599,2.4599,2.4599,0.0,0.0,0.0,0.0,0.0,0.0,0.0,0.0,0.0,0.0,0.0,0.0,0.0,0.0,0.0,0.0,0.0,0.0,0.0,0.0,0.0,0.0,0.0,0.0,0.8899,0.8899,0.8899,0.8899,0.8899,0.8899,0.8899,0.8899,0.8899,0.8916,0.9197,0.9497,0.9803,0.9794,0.9807,0.9807,0.9807,0.0,0.0,0.0,0.0,0.0,0.9807,0.99,0.0,1.0263,1.0501,1.0702,0.0,0.0,0.0,0.0,1.0701,1.0701,1.0701,1.0705,1.0699,1.0705,0.0,0.0,0.0,0.0,0.0,0.0,0.0,2.2893,2.2893,2.2893,2.2893,2.2893,2.2893,2.2893,2.2893,2.2893,2.2893,2.2893,2.2893,2.2893,2.2893,2.2893,2.2893,2.2893,2.2893,2.2893,2.2894,2.3404,2.3968,2.458,2.4594,2.4599,2.4599,2.4599,2.4599,2.4599,2.4599,2.4599,2.4599,2.4599,2.4599,2.4599,2.4599,2.4599,2.4599,2.4599,2.4599,2.4599,2.4599,2.4599,2.4599,2.4599,2.4599,2.4599,0.0,0.0,0.0,0.0,0.0,0.0,0.0,0.0,0.0,0.0,0.0,0.0,0.0,0.0,0.0,0.0,0.0,0.0,0.0,0.0,0.0,0.0,0.0,0.8899,0.8899,0.8899,0.8899,0.8899,0.8899,0.8899,0.8899,0.8899,0.8959,0.9056,0.9527,0.9764,0.9798,0.9795,0.9807,0.9807,0.9807,0.0,0.0,0.0,0.0,0.0,0.0,0.0,0.0,1.0383,1.0527,1.0667,1.0693,0.0,0.0,0.0,0.0,0.0,1.0794,1.1021,1.1381,1.1627,1.2518,0.0,0.0,0.0,0.0,0.0,0.0,0.0,0.0,2.2893,0.0,2.2893,2.2893,2.2893,2.2893,2.2893,2.2893,2.2893,2.2893,2.2893,2.2893,2.2893,2.2893,2.2893,2.2893,2.2903,2.2907,2.3975,2.4601,2.4611,2.4589,2.4599,2.4599,2.4599,2.4599,2.4599,2.4599,2.4599,2.4599,2.4599,2.4599,2.4599,2.4599,2.4599,2.4599,2.4599,2.4599,2.4599,2.4599,2.4599,2.4599,2.4599,2.4599,2.4599,0.0,0.0,0.0,0.0,0.0,0.0,0.0,0.0,0.0,0.0,0.0,0.0,0.0,0.0,0.0,0.0,0.0,0.0,0.0,0.0,0.0,0.0,0.8899,0.8899,0.8899,0.8899,0.8899,0.8899,0.8899,0.8899,0.8899,0.8899,0.9174,0.965,0.9516,0.9584,0.9799,0.9802,0.9807,0.9807,0.9807,0.0,0.0,0.0,0.0,0.0,0.0,0.0,0.0,1.0381,1.0506,1.0553,1.0653,0.0,0.0,0.0,0.0,0.0,1.1243,1.2492,1.4492,1.5861,1.8697,0.0,0.0,0.0,0.0,0.0,0.0,0.0,0.0,2.2893,2.2893,0.0,2.2893,2.2893,2.2893,2.2893,2.2893,2.2893,2.2893,2.2893,2.2893,2.2893,2.2893,2.2893,2.2893,2.2913,2.2908,2.3981,2.4611,2.4593,2.4604,2.4599,2.4599,2.4599,2.4599,2.4599,2.4599,2.4599,2.4599,2.4599,2.4599,2.4599,2.4599,2.4599,2.4599,2.4599,2.4599,2.4599,2.4599,2.4599,2.4599,2.4599,2.4599,2.4599,0.0,0.0,0.0,0.0,0.0,0.0,0.0,0.0,0.0,0.0,0.0,0.0,0.0,0.0,0.0,0.0,0.0,0.0,0.0,0.0,0.0,0.8899,0.8899,0.8899,0.8899,0.8899,0.8899,0.8899,0.8899,0.8899,0.8899,0.9089,0.9395,0.9794,0.967,0.9683,0.9804,0.9803,0.9807,0.9807,0.0,0.0,0.0,0.0,0.0,0.0,0.0,0.0,0.0,0.0,1.0548,1.0629,1.068,0.0,0.0,0.0,0.0,0.0,1.1097,1.2642,1.4903,1.6645,0.0,0.0,0.0,0.0,0.0,0.0,0.0,0.0,0.0,0.0,2.2893,2.2893,2.2893,2.2893,2.2893,2.2893,2.2893,2.2893,2.2893,2.2893,2.2893,2.2893,2.2893,2.2893,2.2893,2.2909,2.2889,2.399,2.4607,2.4604,2.4599,2.4599,2.4599,2.4599,2.4599,2.4599,2.4599,2.4599,2.4599,2.4599,2.4599,2.4599,2.4599,2.4599,2.4599,2.4599,2.4599,2.4599,2.4599,2.4599,2.4599,2.4599,2.4599,2.4599,0.0,0.0,0.0,0.0,0.0,0.0,0.0,0.0,0.0,0.0,0.0,0.0,0.0,0.0,0.0,0.0,0.0,0.0,0.0,0.0,0.8899,0.8899,0.8974,0.8974,0.8899,0.8899,0.8899,0.8899,0.8974,0.9022,0.9049,0.9356,0.9581,0.9763,0.9782,0.9791,0.9807,0.9805,0.9807,0.9807,0.0,0.0,0.0,0.0,0.0,0.0,0.0,0.0,0.0,0.0,0.0,0.0,0.0,0.0,0.0,1.0748,1.1105,1.153,1.1636,1.353,1.5837,1.7355,0.0,2.2164,2.2766,0.0,0.0,0.0,0.0,0.0,0.0,2.2893,2.2893,2.2893,2.2893,2.2893,2.2893,2.2893,2.2893,2.2893,2.2893,2.2893,2.2893,2.2893,2.2893,2.2893,2.2893,2.2909,2.2889,2.399,2.4607,2.4604,2.4599,2.4599,2.4599,2.4599,2.4599,2.4599,2.4599,2.4599,2.4599,2.4599,2.4599,2.4599,2.4599,2.4599,2.4599,2.4599,2.4599,2.4599,2.4599,2.4599,2.4599,2.4599,2.4599,2.4599,0.0,0.0,0.0,0.0,0.0,0.0,0.0,0.0,0.0,0.0,0.0,0.0,0.0,0.0,0.0,0.0,0.0,0.0,0.0,0.0,0.8899,0.8899,0.9195,0.9216,0.8899,0.8899,0.8899,0.8899,0.9216,0.9404,0.9455,0.9671,0.9717,0.9613,0.9739,0.98,0.9808,0.98,0.9807,0.9807,0.9807,0.0,0.0,0.0,0.0,0.0,0.0,0.0,0.0,0.0,0.0,0.0,0.0,0.0,1.0718,1.086,1.2034,1.341,1.3845,1.6523,1.9329,1.9779,0.0,0.0,2.2353,2.2893,0.0,0.0,0.0,0.0,0.0,2.2893,2.2893,2.2893,2.2893,2.2893,2.2893,2.2893,2.2893,2.2893,2.2893,2.2893,2.2893,2.2893,2.2893,2.2893,2.2893,2.2909,2.2889,2.399,2.4607,2.4604,2.4599,2.4599,2.4599,2.4599,2.4599,2.4599,2.4599,2.4599,2.4599,2.4599,2.4599,2.4599,2.4599,2.4599,2.4599,2.4599,2.4599,2.4599,2.4599,2.4599,2.4599,2.4599,2.4599,2.4599,0.0,0.0,0.0,0.0,0.0,0.0,0.0,0.0,0.0,0.0,0.0,0.0,0.0,0.0,0.0,0.0,0.0,0.0,0.0,0.0,0.9254,0.9211,0.9323,0.9344,0.9211,0.9254,0.9254,0.9211,0.9344,0.9461,0.9568,0.9644,0.9689,0.9725,0.978,0.9807,0.9807,0.9807,0.9807,0.9807,0.9807,0.9846,0.0,0.0,0.0,0.0,0.0,0.0,0.0,0.0,1.0701,1.0701,1.0701,1.0752,1.1068,1.2321,1.3298,1.4225,1.5573,1.788,1.9933,2.0062,2.0795,0.0,0.0,0.0,0.0,0.0,0.0,0.0,0.0,0.0,2.2893,2.2893,2.2893,2.2893,2.2893,2.2893,2.2893,2.2893,2.2893,2.2893,2.2893,2.2893,2.2893,2.2893,2.2899,2.2902,2.2902,2.3977,2.4589,2.4604,2.4599,2.4599,2.4599,2.4599,2.4599,2.4599,2.4599,2.4599,2.4599,2.4599,2.4599,2.4599,2.4599,2.4599,2.4599,2.4599,2.4599,2.4599,2.4599,2.4599,2.4599,2.4599,2.4599,2.4599,0.0,0.0,0.0,0.0,0.0,0.0,0.0,0.0,0.0,0.0,0.0,0.0,0.0,0.0,0.0,0.0,0.0,0.0,0.9468,0.9468,0.9454,0.9396,0.9443,0.947,0.947,0.9555,0.9535,0.9396,0.9443,0.953,0.9665,0.9665,0.9712,0.9807,0.9807,0.9807,0.9807,0.9807,0.9807,0.9807,0.9846,1.0243,0.0,0.0,0.0,0.0,0.0,0.0,0.0,0.0,1.1065,1.1429,1.0921,1.1246,1.2097,1.3502,1.4482,1.5508,1.7444,1.9013,2.0236,2.0842,2.1953,0.0,2.2893,0.0,0.0,0.0,2.2893,0.0,0.0,0.0,2.2893,2.2893,2.2893,2.2893,2.2893,2.2893,2.2893,2.2893,2.2893,2.2893,2.2893,2.2893,2.2893,2.2893,2.2901,2.3056,2.3412,2.4188,2.4606,2.4604,2.4599,2.4599,2.4599,2.4599,2.4599,2.4599,2.4599,2.4599,2.4599,2.4599,2.4599,2.4599,2.4599,2.4599,2.4599,2.4599,2.4599,2.4599,2.4599,2.4599,2.4599,2.4599,2.4599,2.4599,0.0,0.0,0.0,0.0,0.0,0.0,0.0,0.0,0.0,0.0,0.0,0.0,0.0,0.0,0.0,0.0,0.0,0.0,0.9402,0.9402,0.9402,0.9402,0.953,0.9597,0.9597,0.9732,0.9665,0.9402,0.9537,0.9671,0.9807,0.9822,0.9822,0.9807,0.9822,0.9822,0.9822,0.9822,0.9837,0.9866,0.9969,1.1062,1.2638,0.0,0.0,0.0,0.0,0.0,0.0,0.0,1.1877,1.303,1.1432,1.226,1.3898,1.4181,1.5568,1.7482,1.9565,2.0132,2.0565,2.2435,2.2893,0.0,2.2893,2.2893,2.2893,2.2893,0.0,2.2893,2.2893,2.2893,2.2893,2.2893,2.2893,2.2893,2.2893,2.2893,2.2893,2.2893,2.2893,2.2893,2.2893,2.2893,2.2893,2.2893,2.2901,2.3408,2.4543,2.4602,2.4588,2.4604,2.4599,2.4599,2.4599,2.4599,2.4599,2.4599,2.4599,2.4599,2.4599,2.4599,2.4599,2.4599,2.4599,2.4599,2.4599,2.4599,2.4599,2.4599,2.4599,2.4599,2.4599,2.4599,2.4599,2.4599,0.0,0.0,0.0,0.0,0.0,0.0,0.0,0.0,0.0,0.0,0.0,0.0,0.0,0.0,0.0,0.0,0.0,0.0,0.9678,0.9678,0.9678,0.9678,0.9719,0.9739,0.9739,0.9786,0.9766,0.9678,0.9719,0.9766,0.9822,1.0959,1.0884,0.9852,1.0974,1.148,1.148,1.148,1.2239,1.3356,1.2172,1.2205,1.2821,0.0,0.0,0.0,0.0,0.0,0.0,0.0,0.0,0.0,1.3085,1.4374,1.6333,1.772,1.8631,1.9611,2.1537,2.2074,0.0,2.2756,2.2893,0.0,0.0,2.2893,0.0,0.0,2.2893,2.2893,2.2893,2.2893,2.2893,2.2893,2.2893,2.2893,2.2893,2.2893,2.2893,2.2893,2.2893,2.2893,2.2893,2.2893,2.2893,2.2893,2.2902,2.3399,2.4539,2.4598,2.4593,2.4599,2.4599,2.4599,2.4599,2.4599,2.4599,2.4599,2.4599,2.4599,2.4599,2.4599,2.4599,2.4599,2.4599,2.4599,2.4599,2.4599,2.4599,2.4599,2.4599,2.4599,2.4599,2.4599,2.4599,2.4599,0.0,0.0,0.0,0.0,0.0,0.0,0.0,0.0,0.0,0.0,0.0,0.0,0.0,0.0,0.0,0.0,0.0,0.0,0.0,0.9807,0.9807,0.9807,0.9807,0.9807,0.9807,0.9807,1.0103,1.0747,1.0103,1.0134,1.0763,1.1095,1.1065,1.0793,1.1766,1.2202,1.2247,1.3003,1.3981,1.4912,1.4051,1.4298,1.5066,0.0,0.0,0.0,0.0,0.0,0.0,0.0,0.0,0.0,1.5278,1.6471,1.836,1.9558,2.0519,2.1459,2.2602,2.2893,0.0,2.2893,2.2893,2.2893,2.2893,0.0,0.0,0.0,2.2893,2.2893,2.2893,2.2893,2.2893,2.2893,2.2893,2.2893,2.2893,2.2893,2.2893,2.2893,2.2893,2.2893,2.2893,2.2893,2.2893,2.2893,2.2911,2.3407,2.4539,2.4593,2.4599,2.4599,2.4599,2.4599,2.4599,2.4599,2.4599,2.4599,2.4599,2.4599,2.4599,2.4599,2.4599,2.4599,2.4599,2.4599,2.4599,2.4599,2.4599,2.4599,2.4599,2.4599,2.4599,2.4599,2.4599,2.4599,0.0,0.0,0.0,0.0,0.0,0.0,0.0,0.0,0.0,0.0,0.0,0.0,0.0,0.0,0.0,0.0,0.0,0.0,0.0,0.0,0.9807,0.9807,0.9807,0.9807,0.9807,0.9937,1.0657,1.1976,1.0528,1.0611,1.2172,1.0702,1.0793,1.2217,1.2352,1.2502,1.2784,1.4494,1.5333,1.5543,1.581,1.6871,1.8309,1.8275,0.0,0.0,0.0,0.0,0.0,0.0,0.0,0.0,1.7727,1.8555,2.0121,2.0303,2.1562,2.2893,2.2893,2.2893,2.2893,2.2893,2.2893,0.0,2.2893,2.2893,2.2893,2.2893,2.2893,2.2893,2.2893,2.2893,2.2893,2.2893,2.2893,2.2893,2.2893,2.2893,2.2893,2.2893,2.2893,2.2893,2.2893,2.2893,2.2924,2.2951,2.2942,2.3438,2.4531,2.4606,2.4599,2.4599,2.4599,2.4599,2.4599,2.4599,2.4599,2.4599,2.4599,2.4599,2.4599,2.4599,2.4599,2.4599,2.4599,2.4599,2.4599,2.4599,2.4599,2.4599,2.4599,2.4599,2.4599,2.4599,2.4599,2.4599,0.0,0.0,0.0,0.0,0.0,0.0,0.0,0.0,0.0,0.0,0.0,0.0,0.0,0.0,0.0,0.0,0.0,0.0,0.0,0.0,0.9807,0.9807,0.9807,0.9807,0.9807,1.1035,1.1231,1.0316,0.9974,1.0611,1.2187,1.1856,1.1871,1.2262,1.3512,1.4899,1.6313,1.6714,1.79,1.936,1.8093,1.7926,1.8318,1.6969,1.6463,0.0,0.0,0.0,0.0,0.0,0.0,0.0,1.9317,2.0591,2.2236,2.2284,2.2585,2.2893,2.2893,2.2893,2.2893,2.2893,2.2893,2.2893,2.2893,2.2893,2.2893,2.2893,2.2893,2.2893,2.2893,2.2893,2.2893,2.2893,2.2893,2.2893,2.2893,2.2893,2.2893,2.2893,2.2893,2.2893,2.2893,2.2893,2.3035,2.3355,2.3364,2.3723,2.4571,2.4591,2.4599,2.4599,2.4599,2.4599,2.4599,2.4599,2.4599,2.4599,2.4599,2.4599,2.4599,2.4599,2.4599,2.4599,2.4599,2.4599,2.4599,2.4599,2.4599,2.4599,2.4599,2.4599,2.4599,2.4599,2.4599,2.4599,0.0,0.0,0.0,0.0,0.0,0.0,0.0,0.0,0.0,0.0,0.0,0.0,0.0,0.0,0.0,0.0,0.0,0.0,0.0,0.0,0.9807,0.9807,0.9807,1.0164,1.0929,1.102,1.1389,1.2097,1.1337,0.0,0.0,0.0,0.0,1.454,1.5517,1.6474,1.7466,1.8529,1.9655,2.0619,1.9848,1.9612,1.9654,1.8911,1.8624,1.8675,1.9064,0.0,0.0,0.0,0.0,0.0,0.0,0.0,2.2893,2.2893,2.2893,2.2893,2.2893,2.2893,2.2893,2.2893,2.2893,2.2893,2.2893,2.2893,2.2893,2.2893,2.2893,2.2893,2.2893,2.2893,2.2893,2.2893,2.2893,2.2893,2.2893,2.2893,2.2893,2.2893,2.2893,2.2893,2.2893,2.2893,2.3044,2.3383,2.378,2.4143,2.439,2.4526,2.4599,2.4599,2.4599,2.4599,2.4599,2.4599,2.4599,2.4599,2.4599,2.4599,2.4599,2.4599,2.4599,2.4599,2.4599,2.4599,2.4599,2.4599,2.4599,2.4599,2.4599,2.4599,2.4599,2.4599,2.4599,2.4599,0.0,0.0,0.0,0.0,0.0,0.0,0.0,0.0,0.0,0.0,0.0,0.0,0.0,0.0,0.0,0.0,0.0,0.0,0.0,0.0,0.0,1.021,1.021,1.0838,1.2172,1.1171,1.1796,1.4183,1.3407,0.0,0.0,0.0,0.0,1.7088,1.7362,1.7669,1.8088,1.9917,2.0739,2.0791,2.1015,2.112,2.1216,0.0,0.0,2.1511,2.0344,2.0994,2.2183,2.0794,0.0,0.0,0.0,0.0,2.2893,2.2893,2.2893,2.2893,2.2893,2.2893,2.2893,2.2893,2.2893,2.2893,2.2893,2.2893,2.2893,2.2893,2.2893,2.2893,2.2893,2.2893,2.2893,2.2893,2.2893,2.2893,2.2893,2.2893,2.2893,2.2893,2.2893,2.2893,2.2893,2.2893,2.3054,2.3363,2.4046,2.4399,2.428,2.4484,2.4599,2.4599,2.4599,2.4599,2.4599,2.4599,2.4599,2.4599,2.4599,2.4599,2.4599,2.4599,2.4599,2.4599,2.4599,2.4599,2.4599,2.4599,2.4599,2.4599,2.4599,2.4599,2.4599,2.4599,2.4599,2.4599,0.0,0.0,0.0,0.0,0.0,0.0,0.0,0.0,0.0,0.0,0.0,0.0,0.0,0.0,0.0,0.0,0.0,0.0,0.9807,0.0,0.0,1.1886,1.1886,1.1976,1.2202,1.3362,1.3482,1.2517,0.0,0.0,0.0,0.0,0.0,1.7362,0.0,0.0,2.0271,2.058,2.0831,2.1056,2.1096,2.1269,0.0,0.0,0.0,0.0,0.0,2.2177,2.2408,2.2474,2.2665,0.0,0.0,0.0,2.2893,2.2893,2.2893,2.2893,2.2893,2.2893,2.2893,2.2893,2.2893,2.2893,2.2893,2.2893,2.2893,2.2893,2.2893,2.2893,2.2893,2.2893,2.2893,2.2893,2.2893,2.2893,2.2893,2.2893,2.2893,2.2893,2.2893,2.2893,2.2893,2.2893,2.3134,2.3692,2.3843,2.4093,2.4519,2.4572,2.4599,2.4599,2.4599,2.4599,2.4599,2.4599,2.4599,2.4599,2.4599,2.4599,2.4599,2.4599,2.4599,2.4599,2.4599,2.4599,2.4599,2.4599,2.4599,2.4599,2.4599,2.4599,2.4599,2.4599,2.4599,2.4599,0.0,0.0,0.0,0.0,0.0,0.0,0.0,0.0,0.0,0.0,0.0,0.0,0.0,0.0,0.0,1.1531,1.1256,1.0918,1.0135,1.0742,1.1139,1.1139,1.1139,1.2005,1.3894,1.375,1.4225,1.5389,0.0,0.0,0.0,1.8032,1.8475,0.0,0.0,0.0,0.0,0.0,0.0,2.1122,2.1312,0.0,0.0,0.0,0.0,0.0,0.0,0.0,0.0,2.2853,2.2893,2.2893,2.2893,0.0,0.0,0.0,2.2893,2.2893,2.2893,2.2893,2.2893,2.2893,2.2893,2.2893,2.2893,2.2893,2.2893,2.2893,2.2893,2.2893,2.2893,2.2893,2.2893,2.2893,2.2893,2.2893,2.2893,2.2893,2.2893,2.2893,2.2893,2.2893,2.2893,2.3037,2.33,2.3777,2.3946,2.4195,2.4572,2.4599,2.4599,2.4599,2.4599,2.4599,2.4599,2.4599,2.4599,2.4599,2.4599,2.4599,2.4599,2.4599,2.4599,2.4599,2.4599,2.4599,2.4599,2.4599,2.4599,2.4599,2.4599,2.4599,2.4599,2.4599,2.4599,2.4599,0.0,0.0,0.0,0.0,0.0,0.0,0.0,0.0,0.0,0.0,0.0,0.0,0.0,0.0,0.0,0.0,1.278,1.1892,1.0397,1.0689,1.0904,1.0904,1.1325,1.2744,1.5256,1.4556,1.5396,0.0,0.0,0.0,1.864,2.0052,2.0601,0.0,2.0695,0.0,0.0,0.0,0.0,0.0,0.0,0.0,0.0,0.0,0.0,0.0,0.0,0.0,0.0,0.0,0.0,0.0,2.2893,2.2893,0.0,0.0,0.0,2.2893,2.2893,2.2893,2.2893,2.2893,2.2893,2.2893,2.2893,2.2893,2.2893,2.2893,2.2893,2.2893,2.2893,2.2893,2.2893,2.2893,2.2893,2.2893,2.2893,2.2893,2.2893,2.2893,2.2893,2.2893,2.2893,2.314,2.3429,2.3772,2.4035,2.4311,2.4586,2.4599,2.4599,2.4599,2.4599,2.4599,2.4599,2.4599,2.4599,2.4599,2.4599,2.4599,2.4599,2.4599,2.4599,2.4599,2.4599,2.4599,2.4599,2.4599,2.4599,2.4599,2.4599,2.4599,2.4599,2.4599,2.4599,2.4599,0.0,0.0,0.0,0.0,0.0,0.0,0.0,0.0,0.0,0.0,0.0,0.0,0.0,1.7371,1.6827,1.5458,1.3839,1.2146,1.0404,1.1728,1.2578,1.2578,1.4167,0.0,1.5293,1.6834,0.0,0.0,0.0,0.0,2.0562,2.0653,2.0831,2.1053,2.1066,2.1082,2.1109,0.0,0.0,0.0,0.0,0.0,0.0,0.0,0.0,0.0,0.0,0.0,0.0,0.0,0.0,0.0,0.0,0.0,2.2893,0.0,0.0,0.0,2.2893,2.2893,2.2893,2.2893,2.2893,2.2893,2.2893,2.2893,2.2893,2.2893,2.2893,2.2893,2.2893,2.2893,2.2893,2.2893,2.2893,2.2893,2.2893,2.2893,2.2893,2.2893,2.2893,2.2893,2.2893,2.314,2.3429,2.3772,2.4035,2.4311,2.4586,2.4599,2.4599,2.4599,2.4599,2.4599,2.4599,2.4599,2.4599,2.4599,2.4599,2.4599,2.4599,2.4599,2.4599,2.4599,2.4599,2.4599,2.4599,2.4599,2.4599,2.4599,2.4599,2.4599,2.4599,2.4599,2.4599,2.4599,0.0,0.0,0.0,0.0,0.0,0.0,0.0,0.0,0.0,0.0,0.0,0.0,0.0,1.8595,1.8234,1.5841,1.5139,1.4561,1.3944,1.4432,1.4753,1.4753,1.5361,1.6207,1.7334,1.7978,0.0,0.0,0.0,2.084,2.0949,2.0949,2.1002,2.1093,2.1093,2.1216,2.1435,2.1558,0.0,0.0,0.0,0.0,0.0,0.0,0.0,0.0,0.0,0.0,0.0,0.0,0.0,0.0,0.0,0.0,0.0,0.0,2.2893,2.2893,2.2893,2.2893,2.2893,2.2893,2.2893,2.2893,2.2893,2.2893,2.2893,2.2893,2.2893,2.2893,2.2893,2.2893,2.2893,2.2893,2.2893,2.2893,2.2893,2.2893,2.2893,2.2893,2.2893,2.2893,2.2893,2.3331,2.3679,2.3785,2.4209,2.4492,2.4586,2.4599,2.4599,2.4599,2.4599,2.4599,2.4599,2.4599,2.4599,2.4599,2.4599,2.4599,2.4599,2.4599,2.4599,2.4599,2.4599,2.4599,2.4599,2.4599,2.4599,2.4599,2.4599,2.4599,2.4599,2.4599,2.4599,2.4599,0.0,0.0,0.0,0.0,0.0,0.0,0.0,0.0,0.0,0.0,0.0,0.0,0.0,0.0,1.936,1.6848,1.6717,1.6512,1.5946,1.5897,1.5897,1.5897,1.6463,1.7313,1.848,0.0,0.0,0.0,0.0,0.0,0.0,2.1093,2.1162,2.1272,2.1272,2.1379,0.0,0.0,0.0,2.2151,0.0,0.0,2.2592,0.0,0.0,0.0,0.0,0.0,0.0,0.0,0.0,0.0,0.0,0.0,0.0,0.0,0.0,0.0,2.2893,2.2893,2.2893,2.2893,2.2893,2.2893,2.2893,2.2893,2.2893,2.2893,2.2893,2.2893,2.2893,2.2893,2.2893,2.2893,2.2893,2.2893,2.2893,2.2893,2.2893,2.2893,2.2893,2.2893,2.2893,2.3455,2.3803,2.3803,2.4302,2.4599,2.4599,2.4599,2.4599,2.4599,2.4599,2.4599,2.4599,2.4599,2.4599,2.4599,2.4599,2.4599,2.4599,2.4599,2.4599,2.4599,2.4599,2.4599,2.4599,2.4599,2.4599,2.4599,2.4599,2.4599,2.4599,2.4599,2.4599,2.4599,0.0,0.0,0.0,0.0,0.0,0.0,0.0,0.0,0.0,0.0,0.0,0.0,0.0,0.0,0.0,1.8696,1.8576,1.7859,1.6156,1.6043,1.6043,1.6043,1.7667,1.8576,1.8576,0.0,0.0,0.0,0.0,0.0,0.0,0.0,2.1299,2.1612,2.1625,2.1625,2.1665,0.0,2.2402,2.2442,0.0,2.2893,2.2893,0.0,0.0,0.0,2.2893,2.2893,0.0,0.0,0.0,0.0,0.0,0.0,0.0,0.0,0.0,0.0,0.0,0.0,0.0,2.2893,2.2893,2.2893,2.2893,2.2893,2.2893,2.2893,2.2893,2.2893,2.2893,2.2893,2.2893,2.2893,2.2893,2.2893,2.2893,2.2893,2.2893,2.2893,2.2893,2.2893,2.2893,2.3455,2.3803,2.3803,2.4302,2.4599,2.4599,2.4599,2.4599,2.4599,2.4599,2.4599,2.4599,2.4599,2.4599,2.4599,2.4599,2.4599,2.4599,2.4599,2.4599,2.4599,2.4599,2.4599,2.4599,2.4599,2.4599,2.4599,2.4599,2.4599,2.4599,2.4599,2.4599,2.4599,0.0,0.0,0.0,0.0,0.0,0.0,0.0,0.0,0.0,0.0,0.0,0.0,0.0,0.0,0.0,2.0417,2.037,2.0179,1.969,1.9658,1.9658,1.9658,2.0116,2.037,2.037,0.0,0.0,0.0,0.0,0.0,0.0,0.0,0.0,0.0,2.2084,2.2178,2.2191,2.2335,0.0,0.0,2.2867,2.2893,0.0,0.0,0.0,0.0,0.0,2.2893,0.0,0.0,2.2893,2.2893,0.0,0.0,0.0,0.0,0.0,0.0,2.2893,0.0,0.0,0.0,0.0,0.0,2.2893,2.2893,2.2893,2.2893,2.2893,2.2893,2.2893,2.2893,2.2893,2.2893,2.2893,2.2893,2.2893,2.2893,2.2893,2.2893,2.2893,2.2893,2.2893,2.3455,2.3803,2.3803,2.4302,2.4599,2.4599,2.4599,2.4599,2.4599,2.4599,2.4599,2.4599,2.4599,2.4599,2.4599,2.4599,2.4599,2.4599,2.4599,2.4599,2.4599,2.4599,2.4599,2.4599,2.4599,2.4599,2.4599,2.4599,2.4599,2.4599,2.4599,2.4599,2.4626,0.0,0.0,0.0,0.0,0.0,0.0,0.0,0.0,0.0,0.0,0.0,0.0,0.0,0.0,0.0,0.0,2.147,2.147,2.147,2.147,2.147,2.147,2.147,2.147,2.147,0.0,0.0,0.0,0.0,0.0,0.0,0.0,0.0,0.0,0.0,0.0,0.0,0.0,0.0,0.0,2.2893,0.0,0.0,2.2893,2.2893,0.0,0.0,0.0,2.2893,2.2893,2.2893,0.0,0.0,0.0,0.0,0.0,0.0,0.0,0.0,0.0,0.0,0.0,0.0,0.0,2.2893,2.2893,2.2893,2.2893,2.2893,2.2893,2.2893,2.2893,2.2893,2.2893,2.2893,2.2893,2.2893,2.2893,2.2893,2.2893,2.2893,2.2893,2.2893,2.3455,2.3803,2.3803,2.4302,2.4599,2.4599,2.4599,2.4599,2.4599,2.4599,2.4599,2.4599,2.4599,2.4599,2.4599,2.4599,2.4599,2.4599,2.4599,2.4599,2.4599,2.4599,2.4599,2.4599,2.4599,2.4599,2.4599,2.4599,2.4599,2.4599,2.4599,2.4698,2.485,0.0,0.0,0.0,0.0,0.0,0.0,0.0,0.0,0.0,0.0,0.0,0.0,0.0,0.0,0.0,0.0,2.2007,2.2007,2.2007,2.2007,0.0,0.0,2.2007,2.2007,2.2007,2.177,0.0,0.0,0.0,0.0,0.0,0.0,0.0,0.0,0.0,0.0,0.0,0.0,0.0,2.2893,2.2893,2.2893,0.0,0.0,2.2893,2.2893,2.2893,2.2893,2.2893,2.2893,2.2893,0.0,0.0,0.0,0.0,0.0,2.2893,0.0,0.0,0.0,0.0,0.0,0.0,0.0,2.2893,2.2893,2.2893,2.2893,2.2893,2.2893,2.2893,2.2893,2.2893,2.2893,2.2893,2.2893,2.2893,2.2893,2.2893,2.2893,2.2893,2.2893,2.2893,2.3455,2.3803,2.3803,2.4302,2.4599,2.4599,2.4599,2.4599,2.4599,2.4599,2.4599,2.4599,2.4599,2.4599,2.4599,2.4599,2.4599,2.4599,2.4599,2.4599,2.4599,2.4599,2.4599,2.4599,2.4599,2.4599,2.4599,2.4599,2.4613,2.4671,2.4671,2.4858,2.5149,0.0,0.0,0.0,0.0,0.0,0.0,0.0,0.0,0.0,0.0,0.0,0.0,0.0,0.0,0.0,0.0,0.0,2.2007,2.2007,0.0,2.2007,2.2007,2.2007,2.2007,2.2007,2.1954,2.194,2.2007,2.194,0.0,0.0,0.0,0.0,0.0,0.0,0.0,0.0,0.0,0.0,2.2893,2.2893,0.0,2.2893,2.2893,2.2893,2.2893,2.2893,2.2893,2.2893,0.0,2.2893,2.2893,0.0,0.0,0.0,0.0,0.0,0.0,0.0,0.0,0.0,0.0,0.0,0.0,2.2893,2.2893,2.2893,2.2893,2.2893,2.2893,2.2893,2.2893,2.2893,2.2893,2.2893,2.2893,2.2893,2.2893,2.2893,2.2893,2.2893,2.2893,2.2893,2.3455,2.3803,2.3803,2.4302,2.4599,2.4599,2.4599,2.4599,2.4599,2.4599,2.4599,2.4599,2.4599,2.4599,2.4599,2.4599,2.4599,2.4599,2.4599,2.4599,2.4599,2.4599,2.4599,2.4599,2.4599,2.4599,2.4599,2.4599,2.4764,2.4997,2.4997,2.5184,2.5464,0.0,0.0,0.0,0.0,0.0,0.0,0.0,0.0,0.0,0.0,0.0,0.0,0.0,0.0,0.0,0.0,0.0,0.0,0.0,0.0,0.0,2.2452,2.2452,2.2452,2.2452,2.2452,2.2452,2.2452,2.2452,2.2515,0.0,0.0,0.0,0.0,0.0,0.0,0.0,0.0,2.2893,2.2893,2.2893,0.0,2.2893,2.2893,2.2893,2.2893,2.2893,2.2893,2.2893,2.2893,2.2893,0.0,0.0,2.2893,2.2893,0.0,2.2893,2.2893,0.0,0.0,0.0,2.2893,0.0,0.0,0.0,2.2893,2.2893,2.2893,2.2893,2.2893,2.2893,2.2893,2.2893,2.2893,2.2893,2.2893,2.2893,2.2893,2.2893,2.2893,2.2893,2.2893,2.2893,2.3455,2.3906,2.4182,2.4457,2.4599,2.4599,2.4599,2.4599,2.4599,2.4599,2.4599,2.4599,2.4599,2.4599,2.4599,2.4599,2.4599,2.4599,2.4599,2.4599,2.4599,2.4599,2.4599,2.4599,2.4599,2.4711,2.4863,2.4863,2.4943,2.5122,2.5237,2.5478,2.5778,0.0,0.0,0.0,0.0,0.0,0.0,0.0,0.0,0.0,0.0,0.0,0.0,0.0,0.0,0.0,0.0,0.0,0.0,0.0,0.0,0.0,0.0,2.2893,2.2893,2.2893,2.2893,2.2893,2.2893,2.2893,2.2893,2.2893,2.2893,0.0,0.0,0.0,0.0,0.0,0.0,0.0,2.2893,0.0,2.2893,2.2893,2.2893,2.2893,2.2893,2.2893,2.2893,2.2893,2.2893,2.2893,2.2893,2.2893,2.2893,0.0,0.0,0.0,0.0,0.0,0.0,0.0,0.0,0.0,2.2893,0.0,0.0,0.0,2.2893,2.2893,2.2893,2.2893,2.2893,2.2893,2.2893,2.2893,2.2893,2.2893,2.2893,2.2893,2.2893,2.2893,2.2893,2.2893,2.3455,2.4008,2.4559,2.4599,2.4599,2.4599,2.4599,2.4599,2.4599,2.4599,2.4599,2.4599,2.4599,2.4599,2.4599,2.4599,2.4599,2.4599,2.4599,2.4599,2.4599,2.4599,2.4599,2.4599,2.4666,2.4863,2.5096,2.5096,2.5163,2.5296,2.5518,2.5804,2.6078,2.1582,0.0,0.0,0.0,0.0,0.0,0.0,0.0,0.0,0.0,0.0,0.0,0.0,0.0,0.0,0.0,0.0,0.0,2.2893,0.0,0.0,0.0,0.0,0.0,2.2893,2.2893,2.2893,2.2893,2.2893,2.2893,2.2893,2.2893,0.0,0.0,2.2893,0.0,0.0,0.0,2.2893,0.0,2.2893,2.2893,0.0,2.2893,2.2893,2.2893,2.2893,2.2893,2.2893,0.0,2.2893,2.2893,0.0,2.2893,2.2893,0.0,0.0,0.0,0.0,0.0,0.0,0.0,2.2893,0.0,0.0,0.0,2.2893,2.2893,0.0,2.2893,2.2893,0.0,0.0,2.2893,2.2893,2.2893,2.2893,2.2893,2.2893,2.2893,2.2893,2.2893,2.2893,2.3455,2.4008,2.4559,2.4599,2.4599,2.4599,2.4599,2.4599,2.4599,2.4599,2.4599,2.4599,2.4599,2.4599,2.4599,2.4599,2.4599,2.4599,2.4599,2.4599,2.4599,2.4599,2.4599,2.4626,2.4917,2.5069,2.5096,2.5096,2.5436,2.5904,2.5931,2.6131,2.6353,0.0,0.0,0.0,0.0,0.0,0.0,0.0,0.0,0.0,0.0,0.0,0.0,0.0,0.0,0.0,0.0,0.0,2.2893,0.0,0.0,0.0,0.0,0.0,0.0,0.0,2.2893,2.2893,2.2893,2.2893,2.2893,2.2893,2.2893,2.2893,0.0,2.2893,0.0,2.2893,0.0,2.2893,0.0,0.0,2.2893,0.0,2.2893,2.2893,2.2893,2.2893,2.2893,2.2893,0.0,2.2893,0.0,0.0,0.0,0.0,0.0,0.0,0.0,0.0,0.0,0.0,0.0,0.0,0.0,2.2893,0.0,2.2893,0.0,0.0,0.0,0.0,0.0,0.0,0.0,2.2893,2.2893,2.2893,2.2893,2.2893,2.2893,2.2893,2.3041,2.3388,2.3656,2.4008,2.4559,2.4599,2.4599,2.4599,2.4599,2.4599,2.4599,2.4599,2.4599,2.4599,2.4599,2.4599,2.4599,2.4599,2.4599,2.4599,2.4599,2.4599,2.4613,2.4823,2.489,2.4917,2.5211,2.5457,2.5623,2.5623,2.5784,2.6011,2.6165,2.6299,2.6406,0.0,0.0,0.0,0.0,0.0,0.0,0.0,0.0,0.0,0.0,0.0,0.0,2.2893,2.2893,0.0,0.0,0.0,2.2893,0.0,0.0,2.2893,0.0,0.0,0.0,0.0,0.0,2.2893,2.2893,2.2893,2.2893,2.2893,2.2893,2.2893,2.2893,0.0,2.2893,2.2893,0.0,2.2893,2.2945,2.3427,2.3907,2.4297,2.3788,2.3614,2.3683,2.4179,2.4348,2.4348,2.4348,2.4348,2.4571,2.5836,2.5366,2.4588,0.0,0.0,0.0,2.3737,0.0,0.0,0.0,0.0,0.0,0.0,0.0,0.0,0.0,0.0,0.0,0.0,0.0,0.0,0.0,0.0,2.2893,2.2893,2.2893,2.2893,2.2893,2.2893,2.3108,2.3612,2.3745,2.3999,2.4457,2.4559,2.4599,2.4599,2.4599,2.4599,2.4599,2.4599,2.4599,2.4599,2.4599,2.4599,2.4599,2.4599,2.4599,2.4599,2.4599,2.4639,2.4751,2.4983,2.5149,2.5224,2.5518,2.5778,2.5998,2.6078,2.6118,2.6145,2.6326,2.6406,2.6406,0.0,2.2867,0.0,0.0,0.0,0.0,0.0,0.0,0.0,0.0,0.0,0.0,0.0,0.0,0.0,0.0,0.0,2.2893,2.2893,0.0,2.2893,0.0,0.0,0.0,0.0,0.0,0.0,2.2893,2.2893,2.2893,2.2893,2.2893,2.2893,2.2893,2.2893,2.2893,2.2893,2.2893,2.2893,2.3047,2.474,2.6473,2.7834,2.6072,2.5416,2.5651,2.7387,2.8015,2.8015,2.8015,2.8015,2.8032,2.8114,2.8081,2.8032,0.0,0.0,0.0,0.0,2.6689,0.0,2.3768,0.0,0.0,0.0,0.0,2.3376,0.0,0.0,0.0,0.0,0.0,0.0,0.0,0.0,0.0,0.0,2.2893,2.2893,2.2893,2.2893,2.301,2.3296,2.3625,2.3906,2.4195,2.4457,2.4599,2.4599,2.4599,2.4599,2.4599,2.4599,2.4599,2.4599,2.4599,2.4599,2.4599,2.4599,2.4599,2.4599,2.4599,2.4778,2.5082,2.5096,2.5256,2.5499,2.5864,2.5984,2.6024,2.6286,2.6393,2.6393,2.6406,2.6406,2.6406,0.0,0.0,0.0,0.0,0.0,0.0,0.0,2.2893,0.0,0.0,0.0,0.0,0.0,0.0,2.2893,0.0,0.0,2.2893,2.2893,2.2893,0.0,0.0,0.0,2.2893,0.0,0.0,0.0,0.0,0.0,2.2893,2.2893,2.2893,2.2893,2.2893,2.2893,2.2893,0.0,0.0,0.0,0.0,2.6556,2.6939,2.6473,2.7055,2.7288,2.737,2.7966,2.8196,2.8196,2.8196,2.8196,2.8394,2.9556,2.9132,2.8427,2.9588,2.9099,2.8065,2.7453,2.7718,2.7684,2.5512,2.5386,2.541,0.0,0.0,0.0,0.0,0.0,0.0,0.0,0.0,0.0,0.0,0.0,0.0,0.0,2.2893,2.2893,2.2893,2.2893,2.2997,2.3265,2.3594,2.3906,2.4182,2.4457,2.4599,2.4599,2.4599,2.4599,2.4599,2.4599,2.4599,2.4599,2.4599,2.4599,2.4599,2.4599,2.5267,2.6466,2.5417,2.568,2.6899,2.6069,2.5757,2.5844,2.6139,2.6259,2.6272,2.6366,2.6406,2.6406,2.6406,2.6406,2.6406,2.2893,0.0,0.0,0.0,0.0,0.0,0.0,0.0,0.0,0.0,2.2893,0.0,2.2893,0.0,2.2893,0.0,2.2893,2.2893,2.2893,2.2893,0.0,2.2893,2.2893,0.0,0.0,0.0,0.0,0.0,0.0,2.2893,2.2893,2.2893,2.2893,2.2893,2.2893,2.3239,2.389,2.5012,2.5871,2.6623,2.841,2.8804,2.8443,2.9605,2.9279,2.8361,2.9588,3.0061,3.0061,3.0061,3.0061,3.0256,3.1368,3.095,3.029,3.1601,3.1184,3.0192,2.9722,3.0038,2.9974,2.7774,2.7685,2.7748,2.616,2.5606,2.5652,0.0,0.0,0.0,0.0,0.0,0.0,0.0,0.0,0.0,0.0,2.2893,2.2893,2.2893,2.2893,2.2997,2.3265,2.3594,2.3906,2.4182,2.4457,2.4599,2.4599,2.4599,2.4599,2.4599,2.4599,2.4599,2.4599,2.4599,2.4599,2.4618,2.5304,2.5988,2.662,2.6261,2.6509,2.7187,2.635,2.6051,2.6172,2.6339,2.6406,2.6406,2.6406,2.6406,2.6406,2.6406,2.6406,2.6406,0.0,0.0,0.0,0.0,2.2893,0.0,0.0,0.0,2.2893,0.0,2.2893,2.2893,2.2893,2.2893,2.2893,2.2893,2.2893,0.0,2.2893,2.2893,0.0,0.0,2.2893,2.2893,2.2893,0.0,0.0,0.0,0.0,0.0,2.2893,2.2996,2.303,2.303,2.303,2.4009,2.5635,2.5635,2.6723,2.8591,3.0254,3.1867,3.3276,3.3371,3.129,2.8771,3.2174,3.3402,3.3402,3.3402,3.3402,3.3386,3.3422,3.3441,3.3519,3.4,3.4134,3.3856,3.2556,3.3449,3.3862,3.0411,3.0852,3.1646,2.985,2.9424,2.9902,3.1646,0.0,0.0,0.0,0.0,0.0,0.0,0.0,0.0,0.0,2.3057,2.301,2.2911,2.2907,2.301,2.3256,2.3598,2.3906,2.4155,2.4444,2.4599,2.4599,2.4599,2.4599,2.4599,2.4599,2.4599,2.4599,2.4599,2.4655,2.4765,2.663,2.6752,2.5439,2.7144,2.7281,2.6153,2.6167,2.6309,2.6564,2.6663,2.6689,2.6689,2.6689,2.6689,2.6683,2.6465,2.6406,2.6406,2.2893,2.2893,2.2893,0.0,2.2893,2.2893,0.0,0.0,0.0,0.0,2.2893,2.2893,2.2893,2.2893,2.2893,2.2893,2.2893,0.0,0.0,0.0,0.0,2.2893,2.2893,2.2893,2.2893,2.2893,0.0,2.2893,0.0,0.0,2.2928,2.4229,2.4841,2.4841,2.4841,2.5836,2.7503,2.7503,2.9262,3.211,3.254,3.2218,3.1609,3.2908,3.2027,3.0416,3.2603,3.3402,3.3402,3.3402,3.3402,3.3461,3.3824,3.3922,3.4,3.4414,3.4547,3.4469,3.4123,3.4359,3.422,3.2222,3.2055,3.199,3.0418,2.9918,2.9892,3.0376,3.0275,3.0089,3.0089,3.0731,0.0,0.0,0.0,0.0,0.0,0.0,2.4742,2.3109,2.309,2.3153,2.301,2.3496,2.3826,2.3892,2.4337,2.4599,2.4599,2.4599,2.4599,2.4599,2.4599,2.4599,2.4599,2.4599,2.5341,2.6776,2.7252,2.8146,2.9326,2.8609,2.8205,2.81,2.8395,2.8574,2.8764,3.0303,3.0938,3.0938,3.0938,3.0938,3.0573,2.7521,2.6406,2.6406,2.2893,0.0,0.0,2.2893,0.0,0.0,2.2893,2.2893,0.0,2.2893,2.3563,0.0,2.4043,2.474,2.5229,2.5229,2.5229,0.0,2.5229,0.0,0.0,2.5229,2.5229,2.5229,2.5229,2.5229,0.0,2.5229,0.0,0.0,2.5246,2.6221,2.6673,2.6673,2.6673,2.7668,2.9393,3.0158,3.1611,3.3402,3.3402,3.2813,0.0,3.3019,3.2928,3.2373,3.3357,3.3558,3.3441,3.3633,3.3711,3.3789,3.4235,3.4352,3.445,3.4883,3.5016,3.5039,3.5234,3.5257,3.5081,3.4227,3.4028,3.3811,3.2976,3.2678,3.2569,3.2569,3.2424,3.228,3.228,3.2324,3.1722,0.0,0.0,0.0,0.0,0.0,0.0,2.4761,2.4658,2.4365,2.3395,2.3705,2.3973,2.3973,2.4364,2.4599,2.4599,2.4599,2.4599,2.4599,2.4599,2.4599,2.4599,2.5437,2.6411,2.7523,2.9363,3.0539,3.1066,3.1187,3.0929,3.0427,3.0668,3.0765,3.0862,3.2029,3.2505,3.2505,3.2505,3.2135,3.135,2.9044,2.7426,2.6407,2.2893,0.0,0.0,0.0,0.0,0.0,0.0,2.3239,0.0,2.3239,0.0,2.5754,2.5534,2.7122,2.8196,2.8196,0.0,2.8196,2.8196,2.8196,2.8196,2.8196,2.8196,2.8196,2.8196,2.8048,0.0,0.0,0.0,0.0,2.8427,2.8427,2.8459,2.8542,2.8542,2.9376,3.09,3.2651,3.3402,3.3402,3.3402,3.3441,3.348,3.348,3.3769,3.4192,3.4192,3.3922,3.3636,3.4039,3.4192,3.4235,3.4648,3.4785,3.4883,3.5332,3.5469,3.5547,3.5901,3.5999,3.5999,3.5999,3.5999,3.5999,3.5999,3.5999,3.5999,3.5999,3.5999,3.5999,3.5999,3.4444,3.2505,0.0,0.0,0.0,0.0,0.0,0.0,0.0,2.678,0.0,2.4323,2.4197,2.4209,2.4209,2.4457,2.4599,2.4599,2.4599,2.4599,2.4599,2.4599,2.4728,2.4973,2.6666,2.7774,2.8364,3.2046,3.3125,3.1924,3.3954,3.4027,3.2524,3.279,3.2887,3.2906,3.3188,3.3301,3.3301,3.3301,3.26,3.1569,3.1569,3.0049,2.7842,2.2893,0.0,0.0,0.0,0.0,2.5029,2.5029,2.5029,2.5029,2.5029,2.6606,2.7155,2.5668,2.7122,2.8196,2.8196,2.8196,0.0,0.0,0.0,0.0,2.8196,2.8196,2.8196,2.8196,2.7227,2.6719,0.0,0.0,0.0,2.9585,2.9604,2.9857,3.0335,3.0335,3.0513,3.09,3.2651,3.3402,3.3402,3.3402,3.3633,3.3981,3.3981,3.4219,3.459,3.459,3.4531,3.4492,3.457,3.459,3.4668,3.5137,3.5273,3.5351,3.5764,3.5901,3.592,3.5979,3.5999,3.5999,3.5999,3.5999,3.5999,3.5999,3.5999,3.5999,3.5999,3.5999,3.5999,3.5999,3.5665,3.5299,3.4914,0.0,0.0,0.0,0.0,0.0,0.0,0.0,2.6717,2.6152,2.4945,2.4209,2.4209,2.4457,2.4599,2.4599,2.4599,2.4599,2.4599,2.4599,2.5364,2.6979,2.7324,2.9255,3.2719,3.3446,3.3983,3.43,3.4701,3.4027,3.26,3.4245,3.4975,3.5106,3.6811,3.753,3.753,3.753,3.7382,3.7197,3.7197,3.6883,3.5503,0.0,0.0,0.0,0.0,0.0,2.6122,2.7966,2.8262,2.7916,2.7022,2.846,2.9212,2.8344,2.9832,3.0902,3.0902,3.0902,3.0902,3.0902,3.0902,3.0902,3.0902,3.0902,0.0,3.0902,3.0343,3.003,3.003,0.0,0.0,0.0,3.1705,3.1875,3.2139,3.2139,3.2139,3.2187,3.3035,3.3539,3.375,3.375,3.4023,3.4411,3.4411,3.4668,3.5059,3.5059,3.5195,3.5335,3.5137,3.5059,3.5137,3.5569,3.5723,3.5762,3.594,3.5999,3.5999,3.5999,3.5999,3.5999,3.5999,3.5999,3.5999,3.5999,3.5999,3.5999,3.5999,3.5999,3.5999,3.5999,3.5999,3.5999,3.5999,3.5999,0.0,0.0,0.0,0.0,0.0,0.0,0.0,2.7276,2.6384,2.5451,2.4281,2.4457,2.4599,2.4599,2.4599,2.4599,2.4599,2.5584,2.6557,2.7487,2.947,3.1574,3.38,3.5028,3.592,3.6467,3.6711,3.6404,3.5719,3.67,3.7106,3.7198,3.819,3.8592,3.8592,3.8592,3.8592,3.8592,3.8592,3.8592,3.8041,0.0,2.513,0.0,0.0,2.6389,2.757,3.0384,3.1109,3.0741,2.8968,3.0254,3.1224,3.0836,3.2365,3.3402,3.3402,3.3402,3.3402,3.3402,3.3402,3.3402,3.3402,3.3402,3.3402,3.3402,3.3402,3.3402,0.0,0.0,3.3402,3.3402,3.3402,3.3402,3.3386,3.3401,3.3472,3.359,3.3585,3.3855,3.4231,3.4231,3.4469,3.4844,3.4844,3.5137,3.5527,3.5527,3.5725,3.5959,3.5644,3.5527,3.5586,3.5901,3.5999,3.5999,3.5999,3.5999,3.5999,3.5999,3.5999,3.5999,3.5999,3.5999,3.5999,3.5999,3.5999,3.5999,3.5999,3.5999,3.5999,3.5999,3.5999,3.5999,3.5999,3.5999,3.5999,0.0,0.0,0.0,0.0,0.0,0.0,2.8988,2.7978,2.6768,2.5033,2.4704,2.4784,2.5194,2.4821,2.4973,2.579,2.6907,2.7888,2.8701,3.1771,3.374,3.4564,3.65,3.7656,3.8048,3.8436,3.8592,3.8592,3.8592,3.8592,3.8592,3.8592,3.8592,3.8592,3.8592,3.8592,3.8592,3.8592,3.8592,3.8592,0.0,0.0,2.7949,2.7949,2.9262,3.0432,3.0755,3.2139,3.2527,3.0775,3.2078,3.254,3.0964,3.2365,3.3402,3.3402,3.3402,3.3402,3.3402,3.3402,3.3402,3.3402,3.3402,3.3402,3.3402,3.3402,3.3402,0.0,0.0,3.3402,3.3402,3.3402,3.3402,3.3406,3.3411,3.3701,3.4227,3.4229,3.4387,3.4648,3.4648,3.4922,3.5332,3.5332,3.5586,3.594,3.594,3.5979,3.5999,3.5959,3.594,3.5959,3.5999,3.5999,3.5999,3.5999,3.5999,3.5999,3.5999,3.5999,3.5999,3.5999,3.5999,3.5999,3.5999,3.5999,3.5999,3.5999,3.5999,3.5999,3.5999,3.5999,3.5999,3.5999,3.5999,3.5999,3.5999,0.0,3.593,0.0,0.0,0.0,3.2717,2.9524,2.7418,2.7207,2.5588,2.5378,2.7125,2.5566,2.6178,2.9652,2.8287,2.9167,3.263,3.3372,3.483,3.698,3.7567,3.8086,3.8534,3.8573,3.8592,3.8592,3.8592,3.8592,3.8592,3.8592,3.8592,3.8592,3.8592,3.8592,3.8592,3.8592,3.8592,3.8592,2.8262,2.9033,2.9767,2.9767,3.0335,3.116,3.2187,3.3184,3.3569,3.2875,3.3145,3.313,3.2444,3.2972,3.3401,3.3404,3.3408,3.3385,3.3404,3.3408,3.3402,3.3402,3.3402,3.3402,3.3402,3.3402,3.3402,0.0,0.0,3.3402,3.3386,3.3391,3.3392,3.3408,3.3393,3.3826,3.4538,3.4544,3.4607,3.4705,3.4705,3.5129,3.5745,3.5745,3.5862,3.5999,3.5999,3.5999,3.5999,3.5999,3.5999,3.5999,3.5999,3.5999,3.5999,3.5999,3.5999,3.5999,3.5999,3.5999,3.5999,3.5999,3.5999,3.5999,3.5999,3.5999,3.5999,3.5999,3.5999,3.5999,3.5999,3.5999,3.5999,3.5999,3.5999,3.5999,3.5999,0.0,0.0,0.0,0.0,0.0,3.3309,3.1825,2.9969,2.7668,2.5694,2.5437,2.7397,2.6776,2.7563,3.0221,3.0698,3.177,3.3548,3.4889,3.6254,3.7658,3.7834,3.8164,3.8592,3.8592,3.8592,3.8592,3.8592,3.8592,3.8592,3.8592,3.8592,3.8592,3.8592,3.8592,3.8592,3.8592,3.8592,3.8592,2.9865,3.0725,3.1598,3.1759,3.1762,3.2236,3.3578,3.4062,3.4274,3.4274,3.3917,3.3658,3.3658,3.3507,3.3389,3.3395,3.3396,3.3409,3.3395,3.3396,3.3408,3.3408,3.3408,3.3408,3.3408,3.3408,3.3408,3.3408,3.3408,3.3408,3.3408,3.3918,3.416,3.4161,3.4159,3.4508,3.5093,3.5072,3.5084,3.508,3.508,3.5447,3.5999,3.5999,3.5999,3.5999,3.5999,3.5989,3.5998,3.5998,3.6008,3.5995,3.5989,3.5999,3.6055,3.6313,3.6211,3.6037,3.6225,3.6264,3.6225,3.6037,3.6106,3.6155,3.6038,3.5999,3.5999,3.5999,3.5999,3.5999,3.5999,3.5999,3.5999,3.5999,3.5999,3.5999,3.5999,3.5999,0.0,0.0,3.5999,3.5485,3.4141,3.3517,3.2088,2.9381,2.7364,2.6888,2.8251,2.8323,2.9437,3.1895,3.2876,3.3792,3.4629,3.6246,3.7344,3.7912,3.8029,3.8281,3.8592,3.8592,3.8592,3.8592,3.8592,3.8592,3.8592,3.8592,3.8592,3.8592,3.8592,3.8592,3.8592,3.8592,3.8592,3.8592,3.3003,3.3355,3.3507,3.3984,3.4062,3.4199,3.4609,3.4687,3.4687,3.4687,3.4465,3.4295,3.4295,3.3767,3.3413,3.3396,3.3413,3.3413,3.3396,3.3413,3.3413,3.3413,3.3413,3.3413,3.3413,3.3413,3.3413,3.3413,3.3413,3.3413,3.3445,3.5166,3.5974,3.5978,3.5971,3.5963,3.5982,3.5978,3.5982,3.5982,3.5982,3.5999,3.5999,3.5999,3.5999,3.5999,3.5999,3.6008,3.5983,3.5983,3.6004,3.5999,3.5988,3.5999,3.6184,3.704,3.6677,3.6134,3.6718,3.6888,3.6755,3.6151,3.6357,3.656,3.6096,3.5999,3.5999,3.5999,3.5999,3.5999,3.5999,3.5999,3.5999,3.5999,3.5999,3.5999,3.5999,3.5999,0.0,3.5999,3.5999,3.5982,3.5964,3.4278,3.3187,3.3135,3.1333,3.0239,3.0256,3.0274,3.2018,3.5811,3.4548,3.4735,3.6643,3.7482,3.7892,3.7912,3.8359,3.8592,3.8592,3.8592,3.8592,3.8592,3.8592,3.8592,3.8592,3.8592,3.8592,3.8592,3.8592,3.8592,3.8592,3.8592,3.8592,3.8592,3.4125,3.4297,3.4336,3.4473,3.4508,3.4551,3.4668,3.4961,3.514,3.5037,3.5273,3.5465,3.5465,3.4236,3.3392,3.3387,3.4489,3.5169,3.5173,3.5172,3.5169,3.5169,3.5169,3.5169,3.5169,3.5169,3.5169,3.5169,3.5169,3.5172,3.5176,3.5745,3.599,3.5989,3.6006,3.5995,3.5997,3.5993,3.5999,3.5999,3.5999,3.5998,3.6004,3.6004,3.6001,3.6002,3.6002,3.6007,3.6194,3.7378,3.7764,3.7771,3.7783,3.6966,3.6038,3.6334,3.6623,3.693,3.7121,3.7322,3.7355,3.6985,3.7,3.7016,3.6681,3.6751,3.6894,3.6894,3.6732,3.6588,3.6482,3.623,3.5999,3.5999,3.5999,3.5999,3.5999,3.5999,3.5999,3.5999,3.5999,3.5999,3.5999,3.5468,3.4573,3.3292,3.3812,3.3621,3.2351,3.1826,3.3084,3.6376,3.6097,3.6426,3.7502,3.7684,3.7975,3.8377,3.8534,3.8592,3.8592,3.8592,3.8592,3.8592,3.8592,3.8592,3.8592,3.8592,3.8592,3.8592,3.8592,3.8592,3.8592,3.8592,3.8592,3.8592,3.4648,3.4707,3.4766,3.4922,3.4961,3.5019,3.5176,3.5449,3.5608,3.5521,3.5789,3.5999,3.5999,3.5041,3.438,3.4391,3.5371,3.599,3.5989,3.6013,3.5991,3.5991,3.5991,3.5991,3.5991,3.5991,3.5991,3.5991,3.5991,3.5993,3.6009,3.6009,3.5989,3.5999,3.5999,3.5999,3.5999,3.5999,3.6008,3.5986,3.5986,3.5991,3.6073,3.6733,3.6981,3.698,3.698,3.6987,3.714,3.823,3.8604,3.8597,3.8597,3.7846,3.6989,3.6979,3.7356,3.7777,3.7807,3.792,3.7989,3.7832,3.7793,3.7663,3.7162,3.7177,3.7305,3.7305,3.709,3.6877,3.6788,3.6537,3.6344,3.6344,3.6296,3.6269,3.6269,3.6096,3.5999,3.5999,3.5999,3.5999,3.5999,3.6172,3.5787,3.4607,3.5661,3.5841,3.4637,3.3979,3.4488,3.6394,3.6835,3.7257,3.7674,3.7921,3.8227,3.8592,3.8592,3.8592,3.8592,3.8592,3.8592,3.8592,3.8592,3.8592,3.8592,3.8592,3.8592,3.8592,3.8592,3.8592,3.8592,3.8592,3.8592,3.8592,3.4785,3.4785,3.4922,3.5371,3.543,3.5566,3.594,3.5999,3.5999,3.5999,3.5999,3.5999,3.5999,3.5999,3.5999,3.5999,3.5999,3.5999,3.5999,3.5999,3.5999,3.5999,3.5999,3.5999,3.5999,3.5999,3.5999,3.5999,3.5999,3.5999,3.5999,3.5999,3.5999,3.5999,3.6001,3.6004,3.6004,3.6006,3.5993,3.6024,3.613,3.6185,3.6371,3.7977,3.8597,3.86,3.86,3.8584,3.8592,3.8592,3.8591,3.8592,3.8592,3.8592,3.8588,3.8601,3.8592,3.8599,3.8605,3.8592,3.8606,3.8599,3.8592,3.8402,3.7571,3.7383,3.7383,3.7383,3.7201,3.7019,3.6964,3.698,3.6998,3.6943,3.6846,3.6753,3.6736,3.635,3.6096,3.6096,3.606,3.606,3.606,3.643,3.6682,3.6736,3.6854,3.6908,3.6837,3.6309,3.604,3.6081,3.6952,3.7401,3.7384,3.8193,3.8592,3.8592,3.8592,3.8592,3.8592,3.8592,3.8592,3.8592,3.8592,3.8592,3.8592,3.8592,3.8592,3.8592,3.8592,3.8592,3.8592,3.8592,3.8592,3.8592,3.5628,3.5686,3.5725,3.5842,3.5862,3.5881,3.5979,3.5999,3.5999,3.5999,3.5999,3.5999,3.5999,3.5999,3.5999,3.5999,3.5999,3.5999,3.5999,3.5999,3.5999,3.5999,3.5999,3.5999,3.5999,3.5999,3.5999,3.5999,3.5999,3.5999,3.5999,3.5999,3.5999,3.6001,3.5995,3.6008,3.601,3.5998,3.5994,3.6125,3.7455,3.7964,3.803,3.845,3.8612,3.8613,3.8613,3.8598,3.8602,3.8602,3.8606,3.8592,3.8592,3.8592,3.8591,3.8585,3.8602,3.8604,3.8609,3.8592,3.8591,3.8604,3.8602,3.8564,3.8337,3.8299,3.8299,3.8299,3.8246,3.8066,3.7592,3.7901,3.7973,3.7322,3.7352,3.731,3.6914,3.6926,3.6992,3.6992,3.6813,3.6687,3.6687,3.6372,3.6447,3.7094,3.7191,3.6899,3.6247,3.6081,3.6298,3.6973,3.7835,3.8288,3.8288,3.8497,3.8592,3.8592,3.8592,3.8592,3.8592,3.8592,3.8592,3.8592,3.8592,3.8592,3.8592,3.8592,3.8592,3.8592,3.8592,3.8592,3.8592,3.8592,3.8592,3.8592,3.5959,3.5999,3.5999,3.5999,3.5999,3.5999,3.5999,3.5998,3.5991,3.5991,3.6006,3.5999,3.5999,3.5999,3.6318,3.7119,3.6463,3.5999,3.5999,3.5999,3.5999,3.5999,3.5999,3.5999,3.5999,3.5999,3.6008,3.5991,3.6008,3.5999,3.5999,3.5999,3.5999,3.5999,3.5998,3.6433,3.7206,3.7187,3.7185,3.7269,3.8234,3.8601,3.8609,3.8609,3.8599,3.8592,3.8592,3.8592,3.8592,3.8592,3.8592,3.8592,3.8592,3.8592,3.8592,3.8592,3.8592,3.8592,3.8592,3.8592,3.8592,3.8592,3.8592,3.8592,3.8592,3.8592,3.8592,3.8592,3.8601,3.8498,3.8167,3.8377,3.8458,3.7982,3.8025,3.8015,3.7724,3.7457,3.7305,3.7305,3.7177,3.7088,3.7088,3.6792,3.6781,3.7252,3.7682,3.7695,3.7213,3.7195,3.7415,3.7892,3.8352,3.8598,3.8592,3.8592,3.8592,3.8592,3.8592,3.8592,3.8592,3.8592,3.8592,3.8592,3.8592,3.8592,3.8592,3.8592,3.8592,3.8592,3.8592,3.8592,3.8592,3.8592,3.8592,3.8592,3.6096,3.6155,3.6194,3.6194,3.6194,3.6194,3.6194,3.615,3.6151,3.6188,3.6192,3.6241,3.6385,3.6313,3.6888,3.8464,3.7122,3.614,3.6018,3.6001,3.6001,3.6001,3.6001,3.6001,3.6001,3.6001,3.6122,3.6383,3.6391,3.6385,3.6385,3.6385,3.6385,3.6385,3.639,3.7202,3.86,3.8607,3.8608,3.8596,3.8596,3.8611,3.8592,3.8592,3.8592,3.8592,3.8592,3.8592,3.8592,3.8592,3.8592,3.8592,3.8592,3.8592,3.8592,3.8592,3.8592,3.8592,3.8592,3.8592,3.8592,3.8592,3.8592,3.8592,3.8592,3.8592,3.8592,3.8592,3.8592,3.8592,3.8592,3.8592,3.8592,3.8592,3.8593,3.8596,3.8596,3.7952,3.7518,3.7518,3.7518,3.7518,3.7518,3.7502,3.7496,3.7496,3.8175,3.8592,3.8592,3.8592,3.8592,3.8592,3.8592,3.8592,3.8592,3.8592,3.8592,3.8592,3.8592,3.8592,3.8592,3.8592,3.8592,3.8592,3.8592,3.8592,3.8592,3.8592,3.8592,3.8592,3.8592,3.8592,3.8592,3.8592,3.8592,3.8592,3.658,3.6873,3.7109,3.7109,3.7109,3.7109,3.7109,3.6897,3.6846,3.708,3.7103,3.7395,3.8118,3.7737,3.7737,3.8537,3.7674,3.6804,3.605,3.6015,3.6015,3.6015,3.6015,3.6015,3.6015,3.6015,3.6716,3.8202,3.8206,3.8191,3.8191,3.8191,3.8191,3.8193,3.8205,3.8363,3.8603,3.8609,3.8602,3.8587,3.8587,3.8608,3.8592,3.8592,3.8592,3.8592,3.8592,3.8592,3.8592,3.8592,3.8592,3.8592,3.8592,3.8592,3.8592,3.8592,3.8592,3.8592,3.8592,3.8592,3.8592,3.8592,3.8592,3.8592,3.8592,3.8592,3.8592,3.8592,3.8592,3.8592,3.8592,3.8592,3.8592,3.8592,3.8608,3.8587,3.8587,3.8492,3.8397,3.8397,3.8397,3.8397,3.8397,3.84,3.8402,3.8402,3.8517,3.8592,3.8592,3.8592,3.8592,3.8592,3.8592,3.8592,3.8592,3.8592,3.8592,3.8592,3.8592,3.8592,3.8592,3.8592,3.8592,3.8592,3.8592,3.8592,3.8592,3.8592,3.8592,3.8592,3.8592,3.8592,3.8592,3.8592,3.8592,3.8592,3.7029,3.7168,3.7305,3.7305,3.7305,3.725,3.7105,3.7102,3.7001,3.6658,3.7413,3.8153,3.8556,3.8354,3.83,3.8574,3.8244,3.7842,3.744,3.7413,3.7395,3.7395,3.7395,3.7395,3.7395,3.7411,3.7782,3.8584,3.8603,3.8592,3.8592,3.8592,3.8592,3.8594,3.8588,3.8613,3.8595,3.8606,3.8592,3.8592,3.8592,3.8592,3.8592,3.8592,3.8592,3.8592,3.8592,3.8592,3.8592,3.8592,3.8592,3.8592,3.8592,3.8592,3.8592,3.8592,3.8592,3.8592,3.8592,3.8592,3.8592,3.8592,3.8592,3.8592,3.8592,3.8592,3.8592,3.8592,3.8592,3.8592,3.8592,3.8592,3.8592,3.8592,3.8592,3.8592,3.8592,3.8592,3.8592,3.8592,3.8592,3.8592,3.8592,3.8592,3.8592,3.8592,3.8592,3.8592,3.8592,3.8592,3.8592,3.8592,3.8592,3.8592,3.8592,3.8592,3.8592,3.8592,3.8592,3.8592,3.8592,3.8592,3.8592,3.8592,3.8592,3.8592,3.8592,3.8592,3.8592,3.8592,3.8592,3.8592,3.8592,3.8592,3.8592,3.8592,3.7441,3.7519,3.7598,3.7598,3.7598,3.7525,3.7324,3.747,3.7372,3.6678,3.777,3.8592,3.8592,3.8592,3.8592,3.8592,3.8592,3.8592,3.8592,3.861,3.86,3.86,3.86,3.86,3.86,3.8606,3.8599,3.8599,3.8602,3.8592,3.8592,3.8592,3.8592,3.8592,3.8592,3.8592,3.8592,3.8592,3.8592,3.8592,3.8592,3.8592,3.8592,3.8592,3.8592,3.8592,3.8592,3.8592,3.8592,3.8592,3.8592,3.8592,3.8592,3.8592,3.8592,3.8592,3.8592,3.8592,3.8592,3.8592,3.8592,3.8592,3.8592,3.8592,3.8592,3.8592,3.8592,3.8592,3.8592,3.8592,3.8592,3.8592,3.8592,3.8592,3.8592,3.8592,3.8592,3.8592,3.8592,3.8592,3.8592,3.8592,3.8592,3.8592,3.8592,3.8592,3.8592,3.8592,3.8592,3.8592,3.8592,3.8592,3.8592,3.8592,3.8592,3.8592,3.8592,3.8592,3.8592,3.8592,3.8592,3.8592,3.8592,3.8592,3.8592,3.8592,3.8592,3.8592,3.8592,3.8592,3.8592,3.8592,3.8592,3.8592,3.8592,3.8592,3.7853,3.8203,3.8495,3.8495,3.8495,3.8495,3.8476,3.8496,3.8479,3.8423,3.8517,3.8592,3.8592,3.8592,3.8592,3.8592,3.8592,3.8592,3.8592,3.8608,3.8606,3.8606,3.8606,3.8606,3.8606,3.8608,3.859,3.859,3.8591,3.8592,3.8592,3.8592,3.8592,3.8592,3.8592,3.8592,3.8592,3.8592,3.8592,3.8592,3.8592,3.8592,3.8592,3.8592,3.8592,3.8592,3.8592,3.8592,3.8592,3.8592,3.8592,3.8592,3.8592,3.8592,3.8592,3.8592,3.8592,3.8592,3.8592,3.8592,3.8592,3.8592,3.8592,3.8592,3.8592,3.8592,3.8592,3.8592,3.8592,3.8592,3.8592,3.8592,3.8592,3.8592,3.8592,3.8592,3.8592,3.8592,3.8592,3.8592,3.8592,3.8592,3.8592,3.8592,3.8592,3.8592,3.8592,3.8592,3.8592,3.8592,3.8592,3.8592,3.8592,3.8592,3.8592,3.8592,3.8592,3.8592,3.8592,3.8592,3.8592,3.8592,3.8592,3.8592,3.8592,3.8592,3.8592,3.8592,3.8592,3.8592,3.8592,3.8592,3.8592,3.8592,3.8592,3.8592,3.832,3.8475,3.8592,3.8592,3.8592,3.8592,3.8592,3.8592,3.8592,3.8592,3.8592,3.8592,3.8592,3.8592,3.8592,3.8592,3.8592,3.8592,3.8592,3.8592,3.8592,3.8592,3.8592,3.8592,3.8592,3.8592,3.8592,3.8592,3.8592,3.8592,3.8592,3.8592,3.8592,3.8592,3.8592,3.8592,3.8592,3.8592,3.8592,3.8592,3.8592,3.8592,3.8592,3.8592,3.8592,3.8592,3.8592,3.8592,3.8592,3.8592,3.8592,3.8592,3.8592,3.8592,3.8592,3.8592,3.8592,3.8592,3.8592,3.8592,3.8592,3.8592,3.8592,3.8592,3.8592,3.8592,3.8592,3.8592,3.8592,3.8592,3.8592,3.8592,3.8592,3.8592,3.8592,3.8592,3.8592,3.8592,3.8592,3.8592,3.8592,3.8592,3.8592,3.8592,3.8592,3.8592,3.8592,3.8592,3.8592,3.8592,3.8592,3.8592,3.8592,3.8592,3.8592,3.8592,3.8592,3.8592,3.8592,3.8592,3.8592,3.8592,3.8592,3.8592,3.8592,3.8592,3.8592,3.8592,3.8592,3.8592,3.8592,3.8592,3.8592,3.8592,3.8592,3.8592,3.8592,3.8592,3.8592,3.8592,3.8592,3.8592,3.8592,3.8592,3.8592,3.8592,3.8592,3.8592,3.8592,3.8592,3.8592,3.8592,3.8592,3.8592,3.8592,3.8592,3.8592,3.8592,3.8592,3.8592,3.8592,3.8592,3.8592,3.8592,3.8592,3.8592,3.8592,3.8592,3.8592,3.8592,3.8592,3.8592,3.8592,3.8592,3.8592,3.8592,3.86,3.8602,3.8602,3.859,3.8592,3.8592,3.8592,3.8592,3.8592,3.8592,3.8592,3.8592,3.8592,3.8592,3.8592,3.8592,3.8592,3.8592,3.8592,3.8592,3.8609,3.8614,3.8592,3.8592,3.8592,3.8592,3.8592,3.8592,3.8592,3.8592,3.8592,3.8592,3.8592,3.8592,3.8592,3.8592,3.8592,3.8592,3.8592,3.8592,3.8592,3.8592,3.8592,3.8592,3.8592,3.8592,3.8592,3.8592,3.8592,3.8592,3.8592,3.8592,3.8592,3.8592,3.8592,3.8592,3.8592,3.8592,3.8592,3.8592,3.8592,3.8592,3.8592,3.8592,3.8592,3.8592,3.8592,3.8592,3.8592,3.8592,3.8592,3.8592,3.8592,3.8592,3.8592,3.8592,3.8592,3.8592,3.8592,3.8592,3.8592,3.8592,3.8592,3.8592,3.8592,3.8592,3.8592,3.8592,3.8592,3.8592,3.8592,3.8592,3.8592,3.8592,3.8592,3.8592,3.8592,3.8592,3.8592,3.8592,3.8592,3.8592,3.8592,3.8592,3.8592,3.8592,3.8592,3.8592,3.8592,3.8592,3.8592,3.8592,3.8592,3.8592,3.8592,3.8595,3.8594,3.8619,3.862,3.863,3.8613,3.8613,3.8613,3.8613,3.8613,3.8613,3.8613,3.8613,3.8613,3.8613,3.8613,3.8613,3.8613,3.8613,3.8613,3.8613,3.8611,3.8603,3.8592,3.8592,3.8592,3.8592,3.8592,3.8592,3.8592,3.8592,3.8592,3.8592,3.8592,3.8592,3.8592,3.8592,3.8592,3.8592,3.8592,3.8592,3.8592,3.8592,3.8592,3.8592,3.8592,3.8592,3.8592,3.8592,3.8592,3.8592,3.8592,3.8592,3.8592,3.8592,3.8592,3.8592,3.8592,3.8592,3.8592,3.8592,3.8592,3.8592,3.8592,3.8592,3.8592,3.8592,3.8592,3.8592,3.8592,3.8592,3.8592,3.8592,3.8592,3.8592,3.8592,3.8592,3.8592,3.8592,3.8592,3.8592,3.8592,3.8592,3.8592,3.8592,3.8592,3.8592,3.8592,3.8592,3.8592,3.8592,3.8592,3.8592,3.8592,3.8592,3.8592,3.8592,3.8592,3.8592,3.8592,3.8592,3.8592,3.8592,3.8592,3.8592,3.8592,3.8592,3.8592,3.8592,3.86,3.8593,3.8593,3.8599,3.8607,3.8607,3.8607,3.8589,3.8591,3.9328,4.0409,4.0414,4.0416,4.0416,4.0416,4.0416,4.0416,4.0416,4.0416,4.0416,4.0416,4.0416,4.0416,4.0416,4.0416,4.0416,4.0416,4.0416,4.0128,3.891,3.8607,3.8607,3.8607,3.8607,3.8607,3.8607,3.8607,3.8605,3.8615,3.8593,3.8589,3.8595,3.8592,3.8592,3.8592,3.8592,3.8592,3.8592,3.8592,3.8592,3.8592,3.8592,3.8592,3.8592,3.8606,3.8593,3.8593,3.8603,3.8607,3.8607,3.8607,3.8607,3.8607,3.8607,3.8592,3.8592,3.8592,3.8592,3.8592,3.8592,3.8592,3.8592,3.8592,3.8592,3.8592,3.8592,3.8592,3.8592,3.8592,3.8592,3.8592,3.8592,3.8592,3.8592,3.8592,3.8592,3.8592,3.8592,3.8592,3.8592,3.8592,3.8592,3.8592,3.8592,3.8592,3.8592,3.8592,3.8592,3.8689,3.8901,3.9041,3.912,3.912,3.8802,3.8746,3.9101,3.8783,3.8593,3.8605,3.8612,3.8596,3.8596,3.8596,3.8596,3.8596,3.8596,3.8601,3.8626,3.9322,3.9629,3.9617,3.9617,3.9617,3.9636,3.9621,4.0252,4.121,4.1196,4.1198,4.1198,4.1198,4.1198,4.1198,4.1198,4.1198,4.1198,4.1198,4.1198,4.1198,4.1198,4.1198,4.1198,4.1198,4.1198,4.0948,3.9892,3.9641,3.9617,3.9617,3.9617,3.9617,3.9617,3.9617,3.9634,3.9625,3.9058,3.8605,3.8598,3.8596,3.8596,3.8596,3.8596,3.8596,3.8596,3.8596,3.8596,3.8596,3.8596,3.8596,3.8596,3.8585,3.8908,3.9605,3.9613,3.9617,3.9617,3.9617,3.9617,3.9617,3.9638,3.9288,3.8596,3.8596,3.8596,3.8596,3.8596,3.8596,3.8596,3.8608,3.8605,3.8603,3.8614,3.8592,3.8592,3.8592,3.8592,3.8592,3.8592,3.8592,3.8592,3.8592,3.8592,3.8592,3.8592,3.8592,3.8592,3.8592,3.8592,3.8612,3.8651,3.8651,3.8671,3.871,3.871,3.8922,3.9407,3.9743,3.9959,4.0016,3.9276,3.92,3.9978,3.9257,3.8838,3.8828,3.8837,3.8821,3.8821,3.8821,3.8821,3.8821,3.8821,3.8821,3.8897,4.0475,4.1183,4.1204,4.1204,4.1204,4.1186,4.1199,4.1203,4.1204,4.119,4.1191,4.1191,4.1191,4.1191,4.1191,4.1191,4.1191,4.1191,4.1191,4.1191,4.1191,4.1191,4.1191,4.1191,4.1191,4.1191,4.1191,4.1191,4.1203,4.1204,4.1204,4.1204,4.1204,4.1204,4.1204,4.1184,4.1202,3.9904,3.8841,3.8821,3.8821,3.8821,3.8821,3.8821,3.8821,3.8821,3.8821,3.8821,3.8821,3.8821,3.8821,3.8821,3.8821,3.9523,4.1125,4.1203,4.1204,4.1204,4.1204,4.1204,4.1204,4.1204,4.0399,3.8821,3.8821,3.8821,3.8821,3.8821,3.8821,3.8821,3.8832,3.8752,3.8601,3.8603,3.8595,3.8595,3.8612,3.8592,3.8592,3.8592,3.8592,3.8592,3.8592,3.8592,3.8592,3.8592,3.8592,3.8592,3.8592,3.8592,3.871,3.9023,3.9062,3.9199,3.9589,3.9628,3.9667,3.9784,4.0033,4.0397,4.0874,4.0741,4.0721,4.0912,4.0751,4.0639,4.0637,4.0649,4.0645,4.0645,4.0645,4.0645,4.0645,4.0645,4.0632,4.064,4.1025,4.1203,4.1189,4.1189,4.1189,4.1209,4.119,4.121,4.119,4.1211,4.1191,4.1191,4.1191,4.1191,4.1191,4.1191,4.1191,4.1191,4.1191,4.1191,4.1191,4.1191,4.1191,4.1191,4.1191,4.1191,4.1191,4.1191,4.121,4.1189,4.1189,4.1189,4.1189,4.1189,4.1189,4.1207,4.12,4.089,4.0638,4.0628,4.0645,4.0645,4.0645,4.0645,4.0645,4.0645,4.0645,4.0645,4.0645,4.0645,4.0645,4.0645,4.0636,4.0794,4.1179,4.1206,4.1189,4.1189,4.1189,4.1189,4.1189,4.1189,4.1009,4.0645,4.0645,4.0645,4.0645,4.0645,4.0645,4.0645,4.0641,3.9859,3.8592,3.8582,3.8595,3.8613,3.8599,3.8592,3.8592,3.8592,3.8592,3.8592,3.8846,3.8885,3.8964,3.9179,3.9218,3.9218,3.9218,3.9218,3.9315,3.9512,3.9531,3.9629,3.9863,3.9902,3.998,4.0176,4.0505,4.0854,4.1181,4.1201,4.1201,4.1201,4.1206,4.1188,4.1188,4.1204,4.1201,4.1201,4.1201,4.1201,4.1201,4.1201,4.1184,4.1188,4.1188,4.119,4.1191,4.1191,4.1191,4.1191,4.1191,4.1191,4.1191,4.1191,4.1191,4.1191,4.1191,4.1191,4.1191,4.1191,4.1191,4.1191,4.1191,4.1191,4.1191,4.1191,4.1191,4.1191,4.1191,4.1191,4.1191,4.1191,4.1191,4.1191,4.1191,4.1191,4.1191,4.1191,4.1191,4.1191,4.1208,4.1188,4.1207,4.1202,4.1201,4.1201,4.1201,4.1201,4.1201,4.1201,4.1201,4.1201,4.1201,4.1201,4.1201,4.1201,4.1206,4.1188,4.1188,4.119,4.1191,4.1191,4.1191,4.1191,4.1191,4.1191,4.1189,4.1201,4.1201,4.1201,4.1201,4.1201,4.1201,4.1201,4.1195,4.0674,3.9832,3.984,3.9357,3.8599,3.8591,3.8601,3.8592,3.8592,3.8592,3.8592,3.9258,3.9316,3.9453,3.9824,3.9902,3.9902,3.9902,3.9902,3.9922,4.0,4.0,4.0039,4.0098,4.0117,4.0254,4.0586,4.0996,4.1191,4.1191,4.1191,4.1191,4.1191,4.1191,4.1191,4.1191,4.1191,4.1191,4.1191,4.1191,4.1191,4.1191,4.1191,4.1191,4.1191,4.1191,4.1191,4.1191,4.1191,4.1191,4.1191,4.1191,4.1191,4.1191,4.1191,4.1191,4.1191,4.1191,4.1191,4.1191,4.1191,4.1191,4.1191,4.1191,4.1191,4.1191,4.1191,4.1191,4.1191,4.1191,4.1191,4.1191,4.1191,4.1191,4.1191,4.1191,4.1191,4.1191,4.1191,4.1191,4.1191,4.1191,4.1191,4.1191,4.1191,4.1191,4.1191,4.1191,4.1191,4.1191,4.1191,4.1191,4.1191,4.1191,4.1191,4.1191,4.1191,4.1191,4.1191,4.1191,4.1191,4.1191,4.1191,4.1191,4.1191,4.1191,4.1191,4.1191,4.1191,4.1191,4.1191,4.1191,4.1191,4.1191,4.1191,4.1207,4.1204,4.1204,4.1191,4.0355,3.9019,3.8714,3.8592,3.8597,3.8594,3.8592,3.8592,3.9785,3.9805,3.9824,3.9883,3.9902,3.9902,3.9902,3.9902,4.0019,4.0371,4.041,4.0586,4.0976,4.1015,4.1035,4.1094,4.1152,4.1191,4.1191,4.1191,4.1191,4.1191,4.1191,4.1191,4.1191,4.1191,4.1191,4.1191,4.1191,4.1191,4.1191,4.1191,4.1191,4.1191,4.1191,4.1191,4.1191,4.1191,4.1191,4.1191,4.1191,4.1191,4.1191,4.1191,4.1191,4.1191,4.1191,4.1191,4.1191,4.1191,4.1191,4.1191,4.1191,4.1191,4.1191,4.1191,4.1191,4.1191,4.1191,4.1191,4.1191,4.1191,4.1191,4.1191,4.1191,4.1191,4.1191,4.1191,4.1191,4.1191,4.1191,4.1191,4.1191,4.1191,4.1191,4.1191,4.1191,4.1191,4.1191,4.1191,4.1191,4.1191,4.1191,4.1191,4.1191,4.1191,4.1191,4.1191,4.1191,4.1191,4.1191,4.1191,4.1191,4.1191,4.1191,4.1191,4.1191,4.1191,4.1191,4.1191,4.1191,4.1191,4.1191,4.1211,4.121,4.121,4.119,4.1184,4.1044,4.0714,3.9191,3.8599,3.8595,3.8599,3.8592,3.8592,4.0195,4.0254,4.0312,4.0585,4.0625,4.0625,4.0625,4.0625,4.0703,4.0859,4.0879,4.0957,4.1172,4.1191,4.1191,4.1191,4.1191,4.1191,4.1191,4.1191,4.1191,4.1191,4.1191,4.1191,4.1191,4.1191,4.1191,4.1191,4.1191,4.1191,4.1191,4.1191,4.1191,4.1191,4.1191,4.1191,4.1191,4.1191,4.1191,4.1191,4.1191,4.1191,4.1191,4.1191,4.1191,4.1191,4.1191,4.1191,4.1191,4.1191,4.1191,4.1191,4.1191,4.1191,4.1191,4.1191,4.1191,4.1191,4.1191,4.1191,4.1191,4.1191,4.1191,4.1191,4.1191,4.1191,4.1191,4.1191,4.1191,4.1191,4.1191,4.1191,4.1191,4.1191,4.1191,4.1191,4.1191,4.1191,4.1191,4.1191,4.1191,4.1191,4.1191,4.1191,4.1191,4.1191,4.1191,4.1191,4.1191,4.1191,4.1191,4.1191,4.1191,4.1191,4.1191,4.1191,4.1191,4.1191,4.1191,4.1191,4.1191,4.1191,4.1191,4.1191,4.1191,4.1191,4.1191,4.119,4.1206,4.1123,4.0338,3.9466,3.8605,3.8614,3.8592,3.8592]}]]